[[[{"header":{"parameterUnit":"kt","parameterCategory":2,"dx":1,"dy":1,"la1":29.285339999999998,"la2":30.599998999999997,"lo1":-89.70041500000002,"lo2":-87.6738589999976,"nx":112,"ny":82,"refTime":"2022-10-26T18:00:00:Z","depth":0,"parameterNumber":1,"parameterNumberName":"U-component_of_WINDS"},"data":[-1.3274,-1.2094,0.0,-0.9695,-0.8474,0.0,-0.6197,-0.4983,-0.3759,-0.2601,-0.1437,0.0691,0.3179,0.6576,0.9816,1.2904,1.5875,1.8824,0.0,2.4966,0.0,0.0,0.0,0.0,0.0,0.0,0.0,0.0,0.0,0.0,0.0,0.0,5.1967,5.3125,5.4328,5.5514,5.6658,5.7797,5.8517,5.875,5.806,5.7256,5.6409,5.5606,5.4771,5.3976,5.3148,5.236,5.1537,5.0699,4.9904,4.9104,4.8261,4.8071,4.7838,4.7661,4.7408,4.7175,4.7003,4.6822,4.6588,4.6419,4.6271,4.5974,4.5806,4.5682,4.5548,4.5522,4.5606,4.569,4.5773,4.5886,4.5969,4.6023,4.6023,4.6135,4.6276,4.6329,4.6441,4.6552,4.6745,4.6937,4.7039,4.717,4.733,4.7598,4.7755,4.7912,4.8037,4.8191,4.8345,4.8529,4.8712,4.888,4.8973,4.899,4.896,4.8959,4.9004,4.897,4.8934,4.8976,4.9018,4.9039,4.8997,4.8953,4.9051,4.8891,4.8669,4.8385,4.8128,4.7754,0.0,0.0,-0.7796,-0.6654,0.0,-0.4328,-0.3155,-0.1979,-0.0751,0.0525,0.1703,0.3748,0.6069,0.9187,1.2089,1.4706,1.7354,2.0143,0.0,0.0,0.0,0.0,0.0,0.0,0.0,0.0,0.0,0.0,0.0,0.0,0.0,5.0386,5.1423,5.2495,5.3566,5.4672,5.5727,5.6829,5.7461,5.7707,5.702,5.617,5.5394,5.4619,5.3881,5.3118,5.2362,5.1573,5.0819,5.0046,4.929,4.8553,4.7748,4.7515,4.7339,4.7086,4.6956,4.6713,4.6533,4.6344,4.6147,4.6001,4.5737,4.5512,4.5336,4.5123,4.5098,4.507,4.5213,4.5269,4.5354,4.5467,4.5467,4.5551,4.5635,4.5719,4.5861,4.5944,4.5974,4.6086,4.6282,4.6476,4.6611,4.6745,4.6908,4.718,4.734,4.7499,4.7658,4.7785,4.7942,4.8128,4.8422,4.8514,4.8606,4.862,4.8617,4.869,4.8684,4.8725,4.8686,4.8756,4.8743,4.8758,4.8825,4.8777,4.8787,4.8736,4.8479,4.8191,4.79,4.7492,-0.7039,-0.5852,-0.466,-0.3528,-0.233,-0.1156,0.0065,0.1254,0.2526,0.3792,0.5049,0.7024,0.9212,1.1783,1.4017,1.6126,1.8913,0.0,0.0,0.0,0.0,0.0,0.0,0.0,0.0,0.0,0.0,0.0,0.0,0.0,4.8973,4.998,5.0928,5.1898,5.2869,5.3839,5.4809,5.5831,5.6408,5.6584,5.5929,5.518,5.4433,5.3713,5.3005,5.2272,5.1586,5.0872,5.0131,4.9342,4.8663,4.7963,4.7291,4.705,4.6797,4.6604,4.6435,4.6183,4.5995,4.5829,4.5624,4.547,4.5247,4.5074,4.4892,4.4756,4.4643,4.4642,4.4757,4.4843,4.49,4.49,4.5014,4.5157,4.5242,4.5298,4.5327,4.5469,4.5583,4.5641,4.578,4.5948,4.6145,4.6311,4.6476,4.667,4.6916,4.7108,4.7269,4.743,4.759,4.7779,4.7907,4.8107,4.8198,4.8271,4.8262,4.8363,4.8322,4.8391,4.8376,4.8473,4.8569,4.8579,4.8588,4.8565,4.8656,4.8571,4.8309,4.7987,4.7692,4.7277,-0.389,-0.2729,-0.1584,-0.033,0.0883,0.2114,0.3402,0.4629,0.6042,0.7421,0.8782,0.0,0.0,0.0,1.6602,1.9057,0.0,2.427,0.0,0.0,0.0,0.0,0.0,0.0,0.0,0.0,0.0,0.0,0.0,0.0,4.8672,4.9589,5.0416,5.1281,5.2162,5.3043,5.3908,5.4789,5.5304,5.5498,5.4853,5.4153,5.3474,5.2814,5.2101,5.1439,5.0785,5.0152,4.9376,4.8696,4.8058,4.7392,4.676,4.6508,4.6316,4.6146,4.5865,4.5677,4.5481,4.5307,4.5153,4.4932,4.4841,4.4632,4.4442,4.4329,4.4183,4.4268,4.4324,4.4383,4.447,4.447,4.4613,4.4756,4.4756,4.4842,4.4928,4.5071,4.5129,4.5243,4.5329,4.5585,4.5754,4.5952,4.6149,4.6316,4.6511,4.6677,4.6871,4.7064,4.7227,4.7389,4.755,4.7721,4.7841,4.794,4.7928,4.8025,4.8009,4.8074,4.8169,4.8178,4.827,4.8305,4.8424,4.8426,4.8484,4.8395,4.8099,4.7801,4.7412,4.7053,-0.0745,0.0388,0.1601,0.288,0.4255,0.5543,0.6942,0.8339,0.9945,1.1623,0.0,0.0,0.0,0.0,0.0,0.0,2.479,0.0,0.0,0.0,0.0,0.0,0.0,0.0,0.0,0.0,0.0,0.0,0.0,4.7559,4.8334,4.9145,4.9902,5.0674,5.1445,5.2253,5.306,5.3754,5.42,5.439,5.3797,5.3128,5.2516,5.1851,5.1133,5.0576,4.9962,4.9327,4.8691,4.7982,4.7347,4.6812,4.622,4.6027,4.5858,4.565,4.539,4.5195,4.4961,4.4808,4.4755,4.4527,4.4401,4.4185,4.3988,4.3869,4.3746,4.383,4.3974,4.3946,4.4034,4.4062,4.4206,4.4321,4.4321,4.4437,4.4437,4.4609,4.4753,4.4781,4.4955,4.5157,4.53,4.5501,4.5729,4.5928,4.6097,4.6236,4.6433,4.6741,4.6824,4.7019,4.7183,4.7354,4.7473,4.7487,4.7581,4.7675,4.7654,4.7746,4.7837,4.7956,4.8075,4.8104,4.8191,4.8217,4.8301,4.8208,4.7908,4.7606,4.7302,4.6847,0.2435,0.3636,0.4911,0.62,0.7655,0.9088,1.0647,0.0,1.4393,1.6435,0.0,0.0,0.0,0.0,0.0,0.0,0.0,0.0,0.0,0.0,0.0,0.0,0.0,0.0,0.0,0.0,4.5492,4.6136,4.6763,4.7437,4.8108,4.8813,4.9423,5.0082,5.0738,5.1447,5.2096,5.2779,5.3187,5.3289,5.2752,5.2143,5.1561,5.089,5.0281,4.9684,4.9151,4.8568,4.7935,4.7319,4.6749,4.6155,4.5638,4.5468,4.529,4.5103,4.4908,4.4675,4.4523,4.4412,4.4184,4.4005,4.3901,4.3704,4.3585,4.3431,4.3305,4.3388,4.3532,4.3532,4.3649,4.3649,4.3765,4.3793,4.3937,4.4082,4.4082,4.4226,4.4282,4.4427,4.4603,4.4691,4.4866,4.5069,4.5271,4.5472,4.5673,4.5844,4.6044,4.6243,4.6411,4.6609,4.6805,4.6977,4.7124,4.7187,4.7224,4.7314,4.7433,4.7522,4.7522,4.7638,4.7752,4.7865,4.7888,4.7999,4.808,4.7983,4.7678,4.7371,4.7063,4.6603,0.5513,0.6756,0.8059,0.9479,1.1041,1.275,0.0,0.0,0.0,0.0,0.0,0.0,0.0,0.0,0.0,0.0,0.0,0.0,0.0,0.0,0.0,0.0,0.0,0.0,0.0,4.5183,4.5661,4.6205,4.6713,4.7315,4.7883,4.8481,4.8996,4.9503,5.0114,5.0641,5.1183,5.1806,5.217,5.2179,5.1672,5.1055,5.0574,4.9969,4.9392,4.8836,4.8317,4.7735,4.7227,4.6706,4.617,4.5619,4.5048,4.49,4.4743,4.4547,4.442,4.4179,4.4127,4.3929,4.3717,4.356,4.3365,4.3302,4.3177,4.3016,4.2975,4.2967,4.3085,4.3112,4.314,4.323,4.3257,4.3374,4.3547,4.3602,4.3747,4.3747,4.3892,4.3975,4.4182,4.4333,4.445,4.4627,4.4804,4.5036,4.5239,4.5442,4.5616,4.5817,4.5989,4.6189,4.6417,4.6589,4.6735,4.6824,4.6913,4.6942,4.7115,4.7228,4.7313,4.7396,4.7478,4.7674,4.7663,4.7742,4.7876,4.7775,4.7438,4.7127,4.6814,4.6417,0.8379,0.9619,1.0949,1.2674,1.4695,0.0,0.0,2.1195,2.3002,2.461,0.0,0.0,0.0,0.0,0.0,0.0,0.0,0.0,0.0,0.0,0.0,0.0,0.0,0.0,0.0,4.5561,4.5964,4.6351,4.6771,4.7204,4.7657,4.8056,4.8493,4.8954,4.9459,4.9853,5.0333,5.0799,5.1047,5.1097,5.0585,5.007,4.9509,4.9017,4.8552,4.8046,4.7476,4.6947,4.6532,4.6013,4.5513,4.5003,4.4511,4.4323,4.4156,4.4058,4.3846,4.3705,4.3535,4.3409,4.3249,4.3026,4.2936,4.2752,4.2618,4.2569,4.2551,4.2541,4.2714,4.2714,4.2805,4.2832,4.2859,4.3005,4.315,4.3205,4.3232,4.3378,4.3405,4.3487,4.3697,4.3906,4.4114,4.4204,4.4383,4.459,4.4796,4.5029,4.5234,4.541,4.5613,4.5816,4.599,4.6191,4.6306,4.6478,4.6592,4.6676,4.6845,4.6865,4.6945,4.7173,4.728,4.7323,4.7456,4.756,4.7719,4.7641,4.7366,4.6955,4.6582,4.6209,1.0845,1.1975,1.3995,1.6302,1.8618,0.0,2.2826,2.458,2.5977,0.0,0.0,0.0,0.0,0.0,0.0,0.0,0.0,0.0,0.0,0.0,0.0,0.0,0.0,0.0,0.0,4.5876,4.6173,4.6486,4.6775,4.7078,4.7394,4.7739,4.8044,4.838,4.8731,4.9084,4.9454,4.9804,4.9991,4.9974,4.9525,4.9007,4.8517,4.8021,4.7602,4.7093,4.663,4.6196,4.5753,4.5333,4.4939,4.4436,4.3963,4.3766,4.3667,4.3484,4.3371,4.3171,4.3044,4.2912,4.2773,4.2655,4.253,4.231,4.2171,4.2143,4.2094,4.2109,4.2255,4.2282,4.2401,4.2428,4.2482,4.2509,4.2655,4.2801,4.2855,4.2909,4.2936,4.311,4.3229,4.3468,4.3651,4.3862,4.4044,4.4134,4.4343,4.4579,4.4875,4.5082,4.5227,4.5433,4.5609,4.5782,4.5925,4.6121,4.623,4.6311,4.6475,4.6581,4.6687,4.6819,4.6951,4.7109,4.721,4.7339,4.7493,4.7439,4.7162,4.6814,4.634,4.5963,1.3567,1.5585,1.7865,2.008,2.2198,0.0,2.5771,2.7198,2.8315,0.0,0.0,0.0,0.0,0.0,0.0,0.0,0.0,0.0,0.0,0.0,0.0,0.0,0.0,0.0,0.0,4.6202,4.6404,4.6566,4.6738,4.6952,4.7169,4.7368,4.7591,4.7801,4.8052,4.8269,4.8519,4.8775,4.8893,4.8869,4.8458,4.7973,4.7477,4.7024,4.6622,4.6199,4.5738,4.5333,4.4989,4.4639,4.4282,4.3825,4.3512,4.3229,4.3122,4.3009,4.2917,4.2791,4.2547,4.2435,4.2374,4.2277,4.2146,4.1891,4.1836,4.1684,4.1659,4.1646,4.1792,4.1818,4.1965,4.2045,4.2071,4.2124,4.2151,4.2298,4.2445,4.2498,4.2552,4.2632,4.2779,4.2993,4.3206,4.3419,4.3604,4.3788,4.3999,4.4118,4.4446,4.4683,4.4892,4.51,4.5217,4.5391,4.556,4.5751,4.5976,4.6081,4.6185,4.6289,4.6446,4.6603,4.6731,4.6857,4.6983,4.7079,4.7257,4.7297,4.6919,4.654,4.616,4.5732,1.7419,1.9431,2.1514,2.3482,0.0,0.0,2.8151,2.9413,0.0,0.0,0.0,0.0,0.0,0.0,0.0,0.0,0.0,0.0,0.0,0.0,0.0,0.0,0.0,0.0,0.0,0.0,0.0,4.672,4.6773,4.6899,4.6981,4.7091,4.7174,4.7253,4.7398,4.7535,4.7696,4.7814,4.7818,4.7754,4.7375,4.692,4.6514,4.6112,4.5779,4.5379,4.4979,4.4641,4.43,4.3992,4.3681,4.3306,4.3005,4.279,4.2676,4.2445,4.2399,4.2294,4.2069,4.195,4.1796,4.1751,4.1585,4.144,4.1406,4.1274,4.1245,4.1297,4.135,4.1402,4.1575,4.1602,4.1654,4.1707,4.176,4.1786,4.1933,4.2012,4.2187,4.2239,4.2387,4.2509,4.2724,4.294,4.3181,4.3369,4.3582,4.3795,4.4007,4.4246,4.4458,4.4696,4.4934,4.5045,4.5276,4.5435,4.5592,4.5721,4.5943,4.607,4.6224,4.6349,4.6445,4.6595,4.6744,4.6963,4.711,4.7047,4.6692,4.6309,4.5898,4.5513,2.1018,0.0,0.0,0.0,0.0,0.0,3.0351,3.1488,3.2438,0.0,0.0,0.0,0.0,0.0,0.0,0.0,0.0,0.0,0.0,0.0,0.0,0.0,0.0,0.0,0.0,0.0,0.0,0.0,4.6842,4.6809,4.6793,4.6774,4.6732,4.671,4.6743,4.6753,4.6811,4.6778,4.6733,4.6616,4.6232,4.587,4.5497,4.5148,4.4812,4.4503,4.4228,4.3894,4.3592,4.3328,4.3067,4.2777,4.2459,4.2343,4.2112,4.1954,4.1819,4.179,4.167,4.1544,4.1384,4.1217,4.1162,4.101,4.097,4.0831,4.0798,4.0876,4.0902,4.098,4.1153,4.1179,4.1231,4.1309,4.1335,4.1387,4.1509,4.1614,4.1692,4.177,4.1892,4.2137,4.2355,4.2477,4.2816,4.3033,4.3154,4.3464,4.3585,4.3799,4.404,4.4281,4.4549,4.4751,4.4889,4.5043,4.5291,4.5443,4.5595,4.5745,4.5893,4.5986,4.6177,4.635,4.6522,4.6738,4.6908,4.6813,4.6556,4.6143,4.5728,4.534,0.0,0.0,0.0,2.8893,3.0214,3.135,3.2464,3.3594,3.4554,3.5481,0.0,0.0,0.0,0.0,0.0,0.0,0.0,0.0,0.0,0.0,0.0,0.0,0.0,0.0,0.0,0.0,0.0,0.0,0.0,4.6755,4.6605,4.6513,4.6324,4.617,4.611,4.5986,4.5861,4.5809,4.5706,4.5495,4.5157,4.4827,4.4439,4.4089,4.3838,4.3626,4.3357,4.3093,4.2833,4.2576,4.2395,4.2161,4.1903,4.1779,4.1648,4.154,4.1369,4.1192,4.1179,4.1018,4.094,4.0794,4.0759,4.06,4.0555,4.0409,4.0346,4.0423,4.0449,4.0551,4.0725,4.0776,4.0828,4.0879,4.0931,4.0982,4.1033,4.1111,4.1188,4.1363,4.1512,4.1732,4.1908,4.2128,4.2321,4.254,4.2758,4.3029,4.3273,4.3422,4.3612,4.3855,4.4098,4.4328,4.4585,4.4763,4.4885,4.5032,4.5276,4.5449,4.5594,4.571,4.5952,4.6121,4.6288,4.6427,4.6694,4.6725,4.6308,4.5917,4.5499,4.5106,2.6392,2.7867,2.9241,3.0534,3.1719,3.2814,3.3914,3.4995,3.5961,3.6889,0.0,0.0,0.0,0.0,0.0,0.0,0.0,0.0,0.0,0.0,0.0,0.0,0.0,0.0,0.0,0.0,0.0,0.0,0.0,0.0,4.6229,4.599,4.5774,4.5557,4.5383,4.5201,4.4967,4.4832,4.4679,4.4498,4.4201,4.39,4.3578,4.3298,4.3058,4.2824,4.2632,4.2379,4.2171,4.197,4.1774,4.1633,4.139,4.1259,4.115,4.1006,4.0915,4.076,4.0625,4.0574,4.0491,4.0365,4.0298,4.0159,4.0108,4.0026,3.9986,3.9965,4.0016,4.0189,4.0265,4.0316,4.0367,4.0418,4.0494,4.0472,4.0548,4.0573,4.0649,4.0875,4.0999,4.1222,4.1372,4.1595,4.1816,4.2038,4.2258,4.2531,4.2777,4.2927,4.3119,4.3365,4.3609,4.3839,4.4096,4.4269,4.444,4.4654,4.4797,4.4965,4.5105,4.5371,4.5509,4.5774,4.5937,4.6099,4.6363,4.639,4.5996,4.5575,4.5128,4.4732,2.7904,2.9211,3.0519,3.1658,3.2775,3.3864,3.491,3.5872,3.6829,3.7782,0.0,0.0,0.0,0.0,0.0,0.0,0.0,0.0,0.0,0.0,0.0,0.0,0.0,0.0,0.0,0.0,0.0,0.0,0.0,4.5954,4.5665,4.5337,4.5112,4.4889,4.4645,4.4376,4.4148,4.3976,4.383,4.3625,4.3344,4.3093,4.2819,4.2554,4.2329,4.2177,4.2002,4.1836,4.1616,4.1403,4.1195,4.1099,4.1063,4.0816,4.0674,4.061,4.0456,4.0269,4.0244,4.0188,4.0011,3.9997,3.9859,3.9808,3.9752,3.964,3.9572,3.9574,3.965,3.97,3.9676,3.9752,3.9802,3.9877,3.9952,4.0027,4.0102,4.0177,4.0252,4.0202,4.0453,4.0578,4.0903,4.1152,4.1328,4.1552,4.1749,4.1873,4.2122,4.2344,4.2565,4.2812,4.3085,4.3315,4.3473,4.3738,4.3905,4.4043,4.4281,4.4417,4.4579,4.4815,4.4975,4.5237,4.5525,4.5682,4.5864,4.5888,4.549,4.5066,4.4641,4.4191,2.8129,2.9309,3.0515,3.1613,3.2679,3.3685,3.4616,3.5576,3.6433,3.7296,0.0,0.0,0.0,0.0,0.0,0.0,0.0,0.0,0.0,0.0,0.0,0.0,0.0,0.0,0.0,0.0,0.0,0.0,4.5245,4.5047,4.4787,4.4498,4.4314,4.4067,4.386,4.3664,4.3438,4.3302,4.3109,4.2937,4.2687,4.25,4.2256,4.1989,4.1794,4.167,4.1553,4.1383,4.119,4.0973,4.0867,4.0769,4.0649,4.0511,4.0367,4.0244,4.0087,3.9924,3.9897,3.9748,3.971,3.9549,3.9431,3.9376,3.9316,3.9128,3.9205,3.9181,3.9156,3.9206,3.928,3.9255,3.9329,3.9378,3.9453,3.9426,3.95,3.9574,3.9623,3.9722,3.9848,3.9999,4.0226,4.0452,4.0679,4.0829,4.1055,4.128,4.1405,4.1629,4.1852,4.2127,4.2402,4.2604,4.2735,4.287,4.3104,4.3264,4.3497,4.3655,4.3837,4.4069,4.4197,4.4455,4.4739,4.489,4.5147,4.5061,4.4711,4.4259,4.3832,4.3404,2.8423,2.9403,3.0467,3.153,3.2487,3.3399,3.4291,3.515,3.593,0.0,0.0,0.0,0.0,0.0,0.0,0.0,0.0,0.0,0.0,0.0,0.0,0.0,0.0,0.0,0.0,0.0,0.0,0.0,4.4264,4.4073,4.3885,4.3641,4.3405,4.3237,4.3077,4.2883,4.2695,4.2597,4.244,4.2303,4.212,4.1934,4.1723,4.1489,4.1325,4.1231,4.1114,4.0973,4.0764,4.0648,4.0462,4.036,4.0373,4.0123,3.9976,3.9878,3.9718,3.9579,3.9549,3.9423,3.929,3.915,3.9097,3.8943,3.8903,3.8711,3.881,3.8709,3.8734,3.8707,3.8781,3.8753,3.8826,3.8875,3.8949,3.892,3.8916,3.8964,3.9037,3.9007,3.9158,3.9412,3.9539,3.9743,3.9947,4.0098,4.0326,4.0553,4.0779,4.088,4.1131,4.1381,4.1657,4.1885,4.2013,4.2118,4.2348,4.2477,4.2629,4.2884,4.306,4.3288,4.3411,4.3665,4.3837,4.4064,4.4317,4.4226,4.3873,4.3444,4.3014,4.2585,2.8859,2.9645,3.0482,3.1339,3.2227,3.3076,3.3891,3.471,3.5423,3.6089,3.6776,0.0,0.0,0.0,0.0,0.0,0.0,0.0,0.0,0.0,0.0,0.0,0.0,0.0,0.0,0.0,0.0,0.0,4.3282,4.3128,4.2908,4.2728,4.2534,4.2372,4.2223,4.2104,4.1989,4.1927,4.1806,4.1684,4.1555,4.1402,4.1224,4.1021,4.0854,4.0727,4.0607,4.0522,4.0383,4.0219,4.0136,4.0087,4.0015,3.9873,3.9725,3.9511,3.9376,3.9375,3.9227,3.9098,3.8935,3.8817,3.8716,3.8532,3.8464,3.8366,3.8287,3.8309,3.8256,3.8305,3.8276,3.8349,3.8319,3.8266,3.8338,3.8331,3.8427,3.8371,3.8443,3.8435,3.8586,3.8818,3.8946,3.9177,3.9255,3.9485,3.9588,3.9842,4.0046,4.0148,4.04,4.0653,4.0804,4.1006,4.1258,4.146,4.1609,4.1758,4.1879,4.213,4.2355,4.2499,4.2749,4.2891,4.314,4.3231,4.3479,4.3408,4.3051,4.2644,4.2213,4.1829,2.9366,2.9958,3.0591,3.1305,3.207,3.2803,3.3519,3.4218,3.4893,3.5488,3.6133,0.0,0.0,0.0,0.0,0.0,0.0,0.0,0.0,0.0,0.0,0.0,0.0,0.0,0.0,0.0,0.0,0.0,4.2261,4.2154,4.2006,4.1816,4.1664,4.1517,4.1439,4.1361,4.1249,4.1259,4.1241,4.1119,4.0969,4.0814,4.0666,4.0523,4.0418,4.0254,4.0161,4.0144,4.0032,3.9866,3.976,3.9706,3.9711,3.9511,3.9388,3.9257,3.9147,3.9029,3.8904,3.8771,3.8631,3.8509,3.8379,3.8217,3.8071,3.7969,3.7862,3.7905,3.7876,3.7822,3.7791,3.7887,3.7832,3.7776,3.7744,3.7815,3.7829,3.7771,3.7737,3.7831,3.7983,3.8112,3.8345,3.8473,3.8554,3.8762,3.8994,3.9097,3.9328,3.9456,3.9686,3.9916,4.0042,4.0268,4.0519,4.0614,4.0862,4.1004,4.1121,4.1342,4.1588,4.1726,4.1972,4.2108,4.2328,4.2438,4.2682,4.2606,4.2245,4.1836,4.1426,4.1038,2.9838,3.0312,3.0762,3.1318,3.1902,3.2553,3.3135,3.3676,3.4299,3.4891,3.5425,3.5907,0.0,0.0,0.0,0.0,0.0,0.0,0.0,0.0,0.0,0.0,0.0,0.0,0.0,0.0,0.0,0.0,0.0,4.1179,4.1067,4.096,4.0794,4.0727,4.0659,4.0585,4.0546,4.0627,4.0594,4.0556,4.0439,4.0259,4.0232,4.0089,3.9949,3.9849,3.9785,3.9724,3.9609,3.9572,3.9434,3.9378,3.9409,3.9234,3.9136,3.8943,3.8803,3.8682,3.8554,3.8351,3.8232,3.8079,3.792,3.7826,3.7675,3.7593,3.7482,3.7499,3.7468,3.7334,3.7301,3.7395,3.7339,3.7281,3.7224,3.7212,3.7305,3.7164,3.7127,3.7113,3.7266,3.7395,3.7608,3.7737,3.7995,3.8182,3.8287,3.8521,3.8625,3.873,3.8962,3.9194,3.9322,3.9547,3.9796,3.9887,4.0105,4.029,4.046,4.0571,4.0788,4.0969,4.11,4.1292,4.1508,4.1637,4.1901,4.1795,4.1454,4.1042,4.0629,4.0239,3.0363,3.066,3.1037,3.1385,3.182,3.2303,3.2796,3.3244,3.3747,3.422,3.4714,3.5128,3.5519,0.0,0.0,0.0,0.0,0.0,0.0,0.0,0.0,0.0,0.0,0.0,0.0,0.0,0.0,0.0,0.0,4.0234,4.0128,4.0011,3.9925,3.9838,3.9846,3.9846,3.988,3.9951,3.9999,3.9975,3.9856,3.9764,3.9645,3.9532,3.9516,3.9378,3.9311,3.9305,3.9259,3.9145,3.9137,3.9106,3.9077,3.8873,3.8771,3.8576,3.8459,3.836,3.8163,3.8047,3.7899,3.7768,3.7508,3.7385,3.7253,3.719,3.7074,3.6987,3.6954,3.6921,3.691,3.6876,3.6841,3.6805,3.6769,3.6732,3.6717,3.6572,3.6533,3.6539,3.6669,3.68,3.6907,3.7121,3.7228,3.7465,3.77,3.7807,3.8018,3.8147,3.8253,3.8487,3.8616,3.8816,3.9064,3.915,3.9281,3.9519,3.9733,3.9814,3.9942,4.0154,4.0391,4.0516,4.0751,4.0874,4.1085,4.0975,4.063,4.0239,3.9846,3.9475,3.0965,3.1128,3.1336,3.1543,3.1777,3.2116,3.2493,3.2858,3.3219,3.3564,3.3918,3.43,3.4651,3.5022,0.0,0.0,0.0,0.0,0.0,0.0,0.0,0.0,0.0,0.0,0.0,0.0,0.0,0.0,0.0,0.0,3.9213,3.9118,3.9035,3.8987,3.9065,3.9108,3.9174,3.9277,3.9356,0.0,3.9307,3.9181,3.9092,3.9069,3.9083,3.8975,3.8897,3.8958,3.8866,3.8851,3.8762,3.878,3.8829,3.8622,3.8433,3.8322,3.814,3.7922,3.7836,3.7717,3.7591,3.736,3.7216,3.7064,3.6952,3.6808,3.6665,3.6598,3.6436,3.6447,3.6516,3.6352,3.6337,3.6216,3.6178,3.6138,3.6121,3.5973,3.5954,3.5934,3.6065,3.6196,3.6305,3.6413,3.6607,3.6737,3.6998,3.7106,3.7343,3.7427,3.7534,3.777,3.79,3.8076,3.8323,3.8427,3.8529,3.8653,3.8863,3.9072,3.9193,3.9379,3.9475,3.973,3.9984,4.0077,4.0239,4.0146,3.9843,3.9448,3.9052,3.8655,3.161,3.1644,3.1668,3.1754,3.1854,3.2038,3.2236,3.2469,3.2686,3.2902,3.3129,3.3452,3.3776,3.4146,3.4544,0.0,0.0,0.0,0.0,0.0,0.0,0.0,0.0,0.0,0.0,0.0,0.0,0.0,0.0,0.0,0.0,3.8262,3.8227,3.8236,3.8255,3.8303,3.8442,3.8617,3.8748,3.8902,3.8814,3.8751,3.8662,3.8638,3.8648,3.8566,3.8552,3.8512,3.8472,3.8509,3.8493,3.8508,3.8497,3.8287,3.812,3.8058,3.7845,3.7623,3.7509,3.7317,3.7186,3.707,3.6824,3.6667,3.6549,3.6445,3.6321,3.6205,3.6146,3.605,3.6012,3.5823,3.5723,3.5705,3.5664,3.5537,3.5517,3.5387,3.5365,3.5343,3.5343,3.5453,3.5694,3.5804,3.5935,3.6132,3.6241,3.6394,3.6611,3.672,3.685,3.6959,3.7197,3.735,3.7465,3.7671,3.7768,3.7997,3.8202,3.8319,3.8435,3.8617,3.8708,3.8934,3.9046,3.9226,3.9452,3.9354,3.9142,3.867,3.8271,3.787,3.226,3.2155,3.2093,3.1997,3.1933,3.1986,3.203,3.2098,3.2185,3.2284,3.2407,3.2651,3.2943,3.3242,3.3611,3.4014,0.0,0.0,0.0,0.0,0.0,0.0,0.0,0.0,0.0,0.0,0.0,0.0,0.0,0.0,0.0,3.7352,3.7375,3.7424,3.7451,3.7603,3.778,3.7981,3.8191,3.8326,3.8267,3.8235,3.8205,3.8177,3.8184,3.8158,3.814,3.8095,3.8181,3.8166,3.8145,3.8181,3.8248,3.8063,3.7894,3.774,3.7524,3.7324,3.723,3.701,3.6803,3.6682,3.6552,3.6291,3.6166,3.6033,3.5905,3.5809,3.5643,3.565,3.5526,3.5357,3.5231,3.5211,3.5081,3.5038,3.4906,3.4904,3.4769,3.4632,3.4743,3.4854,3.4965,3.5187,3.5319,3.5408,3.5518,3.565,3.5892,3.6024,3.6111,3.633,3.6461,3.6637,3.6727,3.6929,3.7021,3.7245,3.7356,3.7557,3.7645,3.7845,3.7952,3.8152,3.8352,3.8412,3.8516,3.853,3.8336,3.7859,3.75,3.7096,3.2938,3.2741,3.2492,3.2246,3.207,3.1971,3.188,3.1836,3.1751,3.1745,3.1743,3.1921,3.2123,3.24,3.2695,3.3026,3.3319,0.0,0.0,0.0,0.0,0.0,0.0,0.0,0.0,0.0,0.0,0.0,0.0,0.0,0.0,3.6443,3.651,3.6613,3.6715,3.6905,3.7149,3.7424,3.762,3.7751,3.7809,3.7808,3.7749,3.7717,3.7686,3.7788,3.7826,3.7807,3.7817,3.7901,3.7852,3.7936,3.8,3.7753,3.758,3.7397,3.7203,3.7023,3.6926,3.6701,3.6489,3.629,3.6179,3.5934,3.578,3.5722,3.5591,3.5387,3.5242,3.5139,3.5013,3.4885,3.4755,3.4733,3.46,3.4465,3.4308,3.4303,3.4163,3.4023,3.4043,3.4248,3.4248,3.4472,3.4584,3.4696,3.4807,3.503,3.5163,3.5295,3.5385,3.5606,3.576,3.5804,3.6002,3.6178,3.6264,3.6505,3.6589,3.6807,3.6982,3.7063,3.7303,3.736,3.7555,3.7611,3.7708,3.7718,3.75,3.7181,3.6717,3.633,3.365,3.3326,3.2971,3.2614,3.2328,3.1995,3.1755,3.1502,3.1305,3.1159,3.1053,3.1133,3.126,3.1483,3.1766,3.2078,3.2338,3.2598,0.0,0.0,0.0,0.0,0.0,0.0,0.0,0.0,0.0,0.0,0.0,0.0,0.0,3.5609,3.5661,3.5767,3.5945,3.621,3.6525,3.6825,3.7099,3.7295,3.7329,3.7356,3.7324,3.7381,3.7319,3.741,3.7443,3.742,3.7527,3.7636,3.7583,3.7609,3.7693,3.7528,3.7353,3.7103,3.6905,3.6721,3.662,3.6415,3.6223,3.6018,3.5802,3.5653,3.5414,3.5223,3.5108,3.5029,3.4796,3.4668,3.4538,3.4385,3.4361,3.4227,3.4091,3.3953,3.3722,3.3693,3.3571,3.3425,3.3425,3.356,3.3674,3.3787,3.388,3.4106,3.4198,3.4311,3.4423,3.469,3.4781,3.4893,3.5004,3.5202,3.5288,3.5326,3.5519,3.5619,3.5811,3.6025,3.6101,3.6293,3.6367,3.6558,3.6749,3.6842,3.6891,3.6918,3.6696,3.6372,3.5902,3.5532,3.4335,3.3909,3.3459,3.3,3.2553,3.2092,3.1656,3.129,3.0928,3.0667,3.0392,3.0358,3.0415,3.0602,3.0834,3.1075,3.139,3.1655,3.1918,0.0,0.0,0.0,0.0,0.0,0.0,0.0,0.0,0.0,0.0,0.0,0.0,3.4738,3.4834,3.496,3.5177,3.5481,3.5903,3.6239,3.6531,3.6819,3.685,3.6847,3.693,3.6983,3.6946,3.7033,3.709,3.7162,3.7218,3.7293,3.7342,3.7364,3.7412,3.7217,3.7063,3.6809,3.6631,3.6443,3.6218,3.6032,3.5833,3.5645,3.5523,3.5267,3.5125,3.4847,3.4705,3.4537,3.4451,3.4299,3.4145,3.3879,3.3743,3.3737,3.3486,3.3344,3.3241,3.3116,3.2968,3.2819,3.2839,3.2839,3.309,3.3184,3.3279,3.3373,3.3487,3.3601,3.3715,3.3942,3.4055,3.4169,3.4282,3.4458,3.4563,3.4617,3.4785,3.4858,3.5046,3.5234,3.5346,3.5513,3.5581,3.5747,3.5834,3.6062,3.6206,3.6086,3.5902,3.5553,3.5097,3.4723,3.4991,3.4446,3.3963,3.3384,3.28,3.2221,3.168,3.1195,3.0655,3.0192,2.9764,2.9588,2.9541,2.9733,2.9924,3.0154,3.0372,3.0622,3.0903,3.1214,0.0,0.0,0.0,0.0,0.0,0.0,0.0,0.0,0.0,0.0,3.3692,3.3794,3.3951,3.4153,3.4417,3.4824,3.5203,3.5643,3.6029,3.6429,3.6404,3.6485,3.6567,3.6616,3.6698,3.6781,3.6835,3.6859,3.6909,3.7033,3.7047,3.7062,3.7077,3.693,3.6747,3.6513,3.6331,3.6138,3.5839,3.5742,3.5538,3.53,3.5095,3.4981,3.4708,3.4423,3.4321,3.4148,3.4038,3.3774,3.3638,3.35,3.325,3.3108,3.2985,3.2767,3.2659,3.2509,3.2357,3.2224,3.2127,3.2243,3.234,3.2456,3.2572,3.2668,3.2764,3.2879,3.311,3.3225,3.334,3.3319,3.3528,3.3569,3.3671,3.3876,3.4039,3.4066,3.427,3.4356,3.4539,3.4722,3.4785,3.4967,3.5028,3.523,3.5411,3.5429,3.5097,3.4743,3.4387,3.4048,3.5582,3.495,3.4329,3.3624,3.2953,3.2261,3.1624,3.0963,3.0304,2.9702,2.9191,2.887,2.8739,2.8851,2.899,2.9197,2.9314,2.9538,2.9784,0.0,3.0349,0.0,0.0,0.0,0.0,0.0,0.0,0.0,0.0,0.0,3.2672,3.275,3.2934,3.3237,3.3598,3.4029,3.45,3.5059,3.548,3.5818,3.5903,3.5951,3.6114,3.6186,3.6224,3.6326,3.6369,3.6427,3.6496,3.6638,3.6644,3.6676,3.6681,3.6503,3.634,3.6125,3.5937,3.5738,3.5456,3.5233,3.4998,3.4899,3.4687,3.4463,3.4204,3.3933,3.3824,3.3647,3.3402,3.3244,3.3084,3.2873,3.273,3.2472,3.223,3.212,3.2008,3.1874,3.1601,3.1462,3.1501,3.1501,3.158,3.1698,3.1834,3.1913,3.201,3.2107,3.2224,3.2456,3.2456,3.2552,3.2628,3.2804,3.2904,3.3084,3.3126,3.3285,3.3346,3.3544,3.3743,3.3781,3.3959,3.4014,3.4191,3.4369,3.4566,3.4454,3.4116,3.3777,3.3416,3.309,3.6137,3.5375,3.4538,3.3793,3.3036,3.2224,3.1493,3.0768,2.9976,2.9279,2.8629,2.8209,2.7971,2.7992,2.807,2.8167,2.8245,2.8383,2.858,2.8793,2.9098,2.938,0.0,0.0,0.0,0.0,0.0,0.0,0.0,0.0,3.1505,3.1638,3.1877,3.2271,3.2755,3.3235,3.3825,3.443,3.4897,3.5187,3.5322,3.5417,3.563,3.5628,3.5749,3.584,3.59,3.5977,3.611,3.6188,3.6213,3.6263,3.6396,3.6101,3.5932,3.5685,3.5517,3.5241,3.5048,3.4842,3.4478,3.4394,3.4174,3.3814,3.3696,3.3437,3.3213,3.3008,3.287,3.2577,3.2435,3.2198,3.1957,3.1848,3.1562,3.1447,3.1195,3.1075,3.0835,3.0691,3.0609,3.0709,3.0791,3.091,3.1047,3.1128,3.1208,3.1307,3.1424,3.1542,3.164,3.1737,3.1835,3.1893,3.201,3.2165,3.234,3.2395,3.255,3.2705,3.2796,3.295,3.3104,3.3154,3.3222,3.3394,3.3585,3.3574,3.3251,3.2907,3.2579,3.2119,3.591,3.509,3.4215,3.3377,3.2573,3.1738,3.0863,3.0074,2.9242,2.8443,2.7714,2.7223,2.6898,2.6915,2.6933,2.6928,2.6939,2.6966,2.7124,2.722,2.7406,0.0,0.0,0.0,0.0,0.0,0.0,0.0,0.0,0.0,2.9727,2.9956,3.0396,3.0894,3.1427,3.1997,3.2618,3.3273,3.3763,3.412,3.4252,3.4405,3.4498,3.4592,3.4686,3.4849,0.0,3.4992,3.5073,3.5233,3.526,3.5372,3.5459,3.5201,3.4953,3.4758,3.4482,3.4264,3.4034,3.3815,3.3484,3.3262,3.3027,3.2885,3.2626,3.2355,3.21,3.1908,3.1673,3.1527,3.1266,3.1136,3.087,3.06,3.0347,3.0188,3.0065,2.9802,2.9536,2.9405,2.9302,2.9405,2.9507,2.9608,2.9728,2.9829,2.993,3.003,3.0131,3.0349,3.0349,3.0449,3.0548,3.0722,3.0816,3.0966,3.1015,3.1063,3.1333,3.138,3.1566,3.1592,3.174,3.1783,3.1968,3.2171,3.2319,3.2175,3.1847,3.1516,3.1201,3.0864,3.5662,3.4775,3.387,3.2953,3.208,3.1187,3.0306,2.9432,2.8495,2.7662,2.6835,2.6272,2.5879,2.5853,2.5761,2.5713,2.5637,2.5619,2.5646,2.5688,2.5733,2.5906,0.0,0.0,0.0,0.0,0.0,0.0,0.0,2.7642,2.7975,2.8424,2.9022,2.9653,3.0226,3.0851,3.1464,3.212,3.2679,3.3067,3.3221,3.3373,3.3467,3.3561,3.3695,3.383,0.0,3.4021,3.4156,3.4211,3.4323,3.4497,3.4563,3.4316,3.4029,3.3752,3.3532,3.3301,3.296,3.2727,3.2504,3.2246,3.1998,3.1736,3.1482,3.1286,3.0889,3.0709,3.0486,3.0335,3.0086,2.9931,2.9658,2.9382,2.9239,2.8957,2.8809,2.854,2.825,2.8095,2.7991,2.8112,2.8215,2.8319,2.8422,2.8525,2.8645,2.8765,2.8849,2.8951,2.9071,2.9172,2.9374,2.9428,2.9518,2.9662,2.9686,2.9848,3.001,3.0171,3.021,3.0353,3.0496,3.0532,3.0728,3.0924,3.0922,3.09,3.0585,3.0266,2.9945,2.9587,3.5388,3.4453,3.3507,3.2506,3.1542,3.0607,2.9724,2.8828,2.7887,2.693,2.5991,2.5358,2.4891,2.477,2.4706,2.4548,2.4482,2.4398,2.4254,2.4168,2.4133,2.4181,2.4261,0.0,0.0,0.0,0.0,0.0,0.0,2.5961,2.6521,2.7114,2.7797,2.8454,2.9134,2.9811,3.0428,3.1106,3.1655,3.2019,3.2226,3.2374,3.2504,3.2567,3.2769,3.2877,0.0,0.0,3.3224,3.331,3.3484,3.355,3.3593,3.3421,3.3121,3.2924,3.2597,3.2254,3.202,3.1773,3.1535,3.1244,3.0875,3.0638,3.0347,3.0137,2.9841,2.9633,2.9384,2.9114,2.884,2.8698,2.8419,2.8137,2.8005,2.7717,2.7426,2.7149,2.699,2.6674,2.6707,2.6829,2.6935,2.704,2.7145,2.7266,2.7371,2.7475,2.7562,2.7665,2.7803,2.7906,2.8128,2.8266,2.8335,2.8371,2.8527,2.856,2.8698,2.8853,2.8884,2.9021,2.9159,2.9187,2.9358,2.9546,2.9682,2.9656,2.9335,2.8897,2.8586,2.8207,3.5136,3.4083,3.3113,3.2089,3.1083,3.0104,2.9122,2.8168,2.718,2.6157,2.5156,2.4496,2.398,2.3823,2.3655,2.3513,2.339,2.3248,2.3027,2.2851,2.2718,2.2577,2.2514,2.2491,0.0,0.0,0.0,0.0,0.0,2.4584,2.5325,2.6035,2.6729,2.7409,2.8097,2.8765,2.9469,3.009,3.0601,3.1031,3.1293,3.1407,3.1532,3.1605,3.1753,3.193,3.2085,3.2167,3.2276,3.2361,3.2573,3.2705,3.2725,3.2424,3.2203,3.1919,3.1674,3.1317,3.1069,3.0809,3.0453,3.0167,2.9888,2.9507,2.9312,2.8995,2.8688,2.8453,2.8295,2.8036,2.7757,2.7491,2.7206,2.6917,2.6762,2.6468,2.6187,2.5887,2.5722,2.5433,2.5448,2.5556,2.554,2.5631,2.5861,2.5983,2.6105,2.6195,2.6301,2.6406,2.6511,2.6616,2.6841,2.6858,2.7045,2.709,2.7239,2.7265,2.7397,2.7545,2.7693,2.7699,2.7831,2.7995,2.8159,2.8178,2.8309,2.8293,2.7982,2.7521,2.7202,2.685,3.4821,0.0,3.27,3.1688,3.0627,2.9572,0.0,2.745,2.6413,2.5366,2.4327,2.3628,2.3084,2.2899,2.2703,2.2503,2.2286,2.2118,2.1895,2.1687,2.1454,2.1261,2.1063,2.0826,2.0669,0.0,0.0,0.0,0.0,2.3578,2.432,2.4988,2.5721,2.6395,2.7108,2.7823,2.8441,2.9203,2.9715,3.0069,3.0294,3.0439,3.0629,3.0698,3.0766,3.0913,3.1117,3.1277,3.1444,3.1504,3.1583,3.1667,3.187,3.1532,3.1202,3.0944,3.0684,3.0291,3.0007,2.9752,2.9484,2.9096,2.8802,2.8475,2.8156,2.7955,2.7656,2.7414,2.6982,2.685,2.6581,2.6258,2.5983,2.5688,2.5527,2.5227,2.4939,2.4617,2.4323,2.4195,2.407,2.418,2.4274,2.4368,2.4585,2.4693,2.4817,2.494,2.5047,2.5139,2.5214,2.5321,2.5427,2.558,2.5643,2.5801,2.582,2.5962,2.6088,2.623,2.6371,2.6513,2.6655,2.6668,2.6825,2.6966,2.7091,2.6939,2.6621,2.63,2.5827,2.5484,0.0,3.3472,3.2362,3.1232,3.0112,2.9032,2.7935,2.6768,0.0,2.4561,2.3466,2.2738,2.2178,2.1957,2.1668,2.145,2.1251,2.1038,2.0772,2.0578,2.0389,2.0164,1.9935,1.9696,1.9445,1.9543,0.0,0.0,0.0,0.0,2.3323,2.4064,2.4789,2.5522,2.6175,2.6852,2.7516,2.8152,2.8725,2.9063,2.9291,2.9401,2.9629,2.974,2.9854,0.0,3.02,3.0334,3.0449,3.0633,3.069,3.0843,3.0982,3.0674,3.0351,3.0012,2.9659,2.9373,2.8992,2.8682,2.8398,2.8102,2.7683,2.7342,2.7155,2.6807,2.6497,2.6112,2.5926,2.5653,2.5376,2.5065,2.4766,2.4465,2.4161,2.3868,2.3711,2.3384,2.3068,2.2778,2.2792,2.2903,2.3,2.3111,2.3207,2.3317,2.3551,2.3675,2.377,2.3849,2.3957,2.4051,2.4174,2.4326,2.4387,2.4522,2.4658,2.4668,2.4803,2.4923,2.5073,2.5193,2.5313,2.5447,2.5467,2.5616,2.5736,2.5708,2.5384,2.4937,2.4471,2.4122,3.4368,3.3218,3.1959,3.0835,2.9661,2.8501,2.7296,2.6109,2.4905,2.3781,2.2617,2.1849,2.1219,2.0927,2.0624,2.0353,2.0151,1.9924,1.9686,1.9486,1.9357,1.9074,1.8885,1.8743,0.0,1.8748,0.0,0.0,0.0,0.0,2.2344,2.3076,2.3823,2.4513,2.5143,2.586,2.6531,2.7163,2.7718,2.8165,2.8332,2.8452,2.8576,2.8753,2.9015,2.9054,2.926,2.9389,0.0,2.968,2.9826,2.9936,3.0031,2.9727,2.9387,2.9011,2.8744,2.836,2.8048,2.7637,2.73,2.7006,2.6682,2.6361,2.601,2.5647,2.5308,2.4931,2.4741,2.446,2.4161,2.3874,2.3554,2.3232,2.2935,2.2636,2.2347,2.2139,2.1817,2.1506,2.1519,2.1632,2.1732,2.1844,2.1943,2.2055,2.2166,2.2278,2.2486,2.2582,2.2692,2.2802,2.2912,2.3064,2.3121,2.325,2.3379,2.3507,2.3495,2.3623,2.3751,2.3865,2.3979,2.4121,2.4132,2.4288,2.4387,2.4352,2.4035,2.358,2.3105,2.2899,3.4121,3.2863,3.162,3.0418,2.9164,2.7953,2.6666,2.5448,2.4201,2.3,2.1778,2.0984,2.0279,1.9963,1.9691,1.9356,1.908,1.8855,1.8628,1.8393,1.8197,1.7946,1.777,1.7678,1.7605,0.0,1.8526,0.0,0.0,0.0,2.1312,2.2058,2.2734,2.3445,2.4092,2.4759,2.5418,2.6199,2.6765,2.7183,2.7313,2.7494,2.7611,2.7836,2.7966,0.0,2.8296,2.8484,2.8614,2.8708,2.8966,2.9055,2.9205,2.8885,2.8529,2.8118,2.7733,2.7419,2.7005,2.6685,2.6226,2.5915,2.5574,2.5237,2.487,2.4474,2.414,2.3874,2.3574,2.3271,2.2843,2.2642,2.2207,2.1906,2.1713,2.1393,2.1083,2.0771,2.0442,2.0098,2.011,2.0238,2.034,2.0454,2.0569,2.0783,2.0884,2.0984,2.1083,2.1183,2.1308,2.1545,2.1656,2.1808,2.1862,2.1983,2.2092,2.22,2.2194,2.2315,2.2436,2.2557,2.2678,2.2799,2.2802,2.2935,2.3042,2.3002,2.269,2.2213,2.1867,2.153,3.3817,3.2559,3.1189,2.9987,2.8701,2.7407,2.6106,2.4773,2.3511,2.2241,2.0939,2.0038,1.9321,1.9003,1.8651,1.8326,1.8005,1.7701,1.7451,1.7204,1.6956,1.6721,1.6544,1.6498,1.6447,1.6665,1.7322,0.0,0.0,0.0,2.0127,2.0882,2.161,2.2286,2.2961,2.3646,2.4398,2.5135,2.5761,2.6182,2.6348,2.655,2.6637,2.6832,2.6991,2.7114,2.7353,2.7493,0.0,2.778,2.7994,2.8135,2.8287,2.7928,2.7555,2.7147,2.6726,2.6397,2.5966,2.563,2.5265,2.481,2.4469,2.4098,2.3716,2.3424,2.308,2.2685,2.2392,2.2068,2.1756,2.1304,2.0985,2.0664,2.0366,2.0039,1.9721,1.9516,1.9193,1.8843,1.8715,1.8831,1.8936,1.9181,1.9297,1.94,1.9619,1.9721,1.9836,1.9937,2.0051,2.0165,2.0404,2.0555,2.0606,2.0708,2.081,2.0912,2.0898,2.1012,2.1139,2.124,2.1342,2.1336,2.1462,2.1588,2.1689,2.1642,2.1334,2.0985,2.0496,2.0163,3.3556,3.2233,3.087,2.9546,2.8236,2.6885,2.547,2.4072,2.2812,2.1448,2.0081,1.9156,1.8372,1.8043,1.7615,1.7276,1.6894,1.6544,1.6219,1.5897,1.5609,1.5374,1.5243,1.5189,1.5115,1.528,1.5945,1.6654,0.0,0.0,1.886,1.9603,2.0325,2.1092,2.1785,2.2528,2.3329,2.4101,2.4633,2.506,2.5343,2.5492,2.5649,2.5876,2.5986,2.6232,2.6316,2.6478,0.0,2.6831,2.7077,2.7219,2.7451,2.7076,2.6687,2.6264,2.5845,2.5411,2.4928,2.4576,2.418,2.3707,2.3333,2.2932,2.2563,2.2272,2.1915,2.1497,2.1197,2.0867,2.0548,2.0089,1.9764,1.9437,1.9118,1.8808,1.8483,1.8144,1.7931,1.7598,1.7457,1.7414,1.7662,1.778,1.7887,1.8122,1.8239,1.8344,1.8449,1.8565,1.8808,1.8912,1.9027,1.9166,1.934,1.9308,1.9404,1.9499,1.9618,1.9725,1.9844,1.9927,1.9889,2.0007,2.026,2.0367,2.0326,2.0285,1.9968,1.9623,1.9137,1.8795,3.3293,3.1861,3.0548,2.9162,2.7727,2.6346,2.489,2.353,2.2135,2.075,1.9309,1.8316,1.75,1.7055,1.6606,1.6227,1.5822,1.5409,1.5087,1.4699,1.4375,1.4089,1.3852,1.3688,1.3534,1.3675,1.4423,1.5219,0.0,0.0,1.7534,1.8306,1.9078,1.9828,2.0621,2.1393,2.2164,2.2915,2.3547,2.4032,2.424,2.4438,2.4647,2.4846,2.5014,2.5192,2.534,2.5479,0.0,2.5994,2.6124,2.6343,2.6537,2.6144,2.5718,2.5278,2.4824,2.4339,2.3985,2.349,2.3096,2.272,2.22,2.1798,2.1517,2.1091,2.0736,2.0321,1.9988,1.9665,1.934,1.9023,1.8554,1.8219,1.7882,1.7553,1.7221,1.6876,1.6528,1.6187,1.6056,1.6157,1.6277,1.6388,1.6627,1.6736,1.6974,1.7082,1.72,1.7307,1.7414,1.7649,1.7766,1.7904,1.7938,1.8038,1.8126,1.8226,1.8326,1.8426,1.8537,1.8626,1.8715,1.8815,1.8926,1.9037,1.8978,1.8929,1.8602,1.8261,1.7915,1.7435,3.3026,3.1613,3.0167,2.8726,2.7226,2.5772,2.4323,2.2899,2.1424,1.9952,1.85,1.742,1.6536,1.6058,1.5594,1.5116,1.4701,1.4222,1.3815,1.3438,1.3051,1.2745,1.241,1.2131,1.1836,1.2004,1.287,1.3725,1.4544,0.0,1.6066,1.6903,1.769,1.8486,1.9312,2.0127,2.1044,2.1804,2.243,2.2955,2.3133,2.3364,2.3628,2.3779,2.4028,2.4142,2.4357,2.4566,0.0,2.5038,2.5245,2.5427,2.5621,2.5191,2.4748,2.4274,2.3786,2.3413,2.2916,2.2519,2.201,2.1603,2.1199,2.0782,2.0352,2.0032,1.9554,1.9243,1.8779,1.845,1.8129,1.7805,1.7339,1.6987,1.6633,1.6287,1.5958,1.5475,1.5121,1.4763,1.4772,1.4886,1.4999,1.5111,1.5224,1.5466,1.5577,1.5678,1.5799,1.6048,1.6148,1.6257,1.6504,1.6514,1.6674,1.6767,1.6849,1.6932,1.7035,1.7128,1.722,1.7303,1.7396,1.7488,1.7581,1.7684,1.7629,1.7573,1.7227,1.6896,1.6542,1.6051,3.2882,3.1301,2.9861,2.8258,2.6696,2.5247,2.3702,2.2192,2.0711,1.9141,1.7665,1.6491,1.5618,1.5119,1.46,1.4086,1.3565,1.3063,1.2566,1.2134,1.1702,1.132,1.0959,1.0594,1.025,1.0316,1.1248,1.2102,1.294,0.0,1.4555,1.5426,1.6268,1.7199,1.7989,1.8903,1.9817,2.0572,2.128,2.1811,2.2061,2.2266,2.2465,2.2676,2.2899,2.3134,2.3402,2.357,2.3768,2.4077,2.421,2.4492,2.4666,2.422,2.3759,2.3252,2.2875,2.236,2.1846,2.1434,2.0908,2.0513,2.0078,1.9643,1.9197,1.8862,1.8357,1.7923,1.7567,1.7242,1.6903,1.6561,1.6088,1.5611,1.538,1.5037,1.4569,1.4201,1.384,1.3485,1.3352,1.346,1.3576,1.3823,1.3938,1.4184,1.4289,1.4402,1.4515,1.4628,1.4861,1.4982,1.5241,1.5251,1.5409,1.5504,1.5571,1.5637,1.5732,1.5827,1.5778,1.5989,1.6065,1.615,1.6245,1.6341,1.6278,1.6214,1.5878,1.5519,1.5165,1.4663,3.2552,3.1018,2.9504,2.7831,2.6267,2.4716,2.3072,2.1538,1.9936,1.8334,1.6835,1.5639,1.4667,1.4108,1.3549,1.3094,1.2542,1.1917,1.1392,1.0943,1.0425,0.9907,0.9489,0.9065,0.8585,0.8623,0.9575,1.046,1.1316,1.2203,1.3037,1.3897,1.4854,1.5781,1.6659,1.7574,1.8494,1.9354,2.0111,2.064,2.0946,2.123,2.1387,2.1573,2.1862,2.2148,2.2397,2.2544,2.2818,2.3073,2.3324,2.3572,2.3833,2.3353,2.286,2.2339,2.1836,2.1319,2.0889,2.0347,1.9921,1.9377,1.8939,1.8476,1.8025,1.7674,1.7145,1.6829,1.6351,1.6018,1.5672,1.5314,1.4833,1.4349,1.4123,1.3641,1.3279,1.2914,1.2554,1.2058,1.2058,1.2169,1.2288,1.2398,1.2649,1.2766,1.3006,1.2982,1.3098,1.3345,1.3451,1.3705,1.3827,1.3975,1.4001,1.4219,1.4288,1.4349,1.4427,1.4514,1.4458,1.4662,1.4732,1.4673,1.4768,1.4993,1.4914,1.4843,1.4497,1.4137,1.3773,1.3412,3.2266,3.0674,2.911,2.7411,2.5718,2.4169,2.253,2.0871,1.9208,1.7563,1.5929,1.4705,1.373,1.3098,1.2578,1.1988,1.1396,1.0813,1.0247,0.9699,0.9149,0.8551,0.7986,0.7504,0.7046,0.6994,0.7881,0.8741,0.9648,1.0604,1.1524,1.2392,1.3347,1.427,1.525,1.6162,1.7098,1.8006,1.88,1.9472,1.9805,2.0048,2.0212,2.0463,2.0807,2.1021,2.1264,0.0,2.1826,2.2078,2.231,2.2645,2.2857,2.236,2.1946,2.1411,2.0779,2.0259,1.9814,1.9372,1.88,1.8359,1.7906,1.7428,1.6961,1.6471,1.6055,1.5594,1.5128,1.4778,1.4426,1.4053,1.3574,1.309,1.2859,1.2493,1.1984,1.1621,1.112,1.075,1.0756,1.0878,1.0999,1.1113,1.136,1.1473,1.1592,1.1697,1.1815,1.1933,1.2175,1.2292,1.2409,1.2687,1.2726,1.2797,1.2859,1.2922,1.2984,1.3055,1.3277,1.334,1.3395,1.3336,1.3414,1.3632,1.3687,1.3609,1.3261,1.2893,1.2376,1.2005,2.9855,2.8266,2.6808,2.5238,2.3693,2.2136,2.0598,1.9075,1.7658,1.614,1.4612,1.3417,1.2364,1.1584,1.0929,1.0283,0.9584,0.882,0.8172,0.7466,0.6798,0.61,0.551,0.4894,0.426,0.4157,0.488,0.5712,0.6533,0.7385,0.8212,0.8999,0.9796,1.071,1.1599,1.2436,1.3203,1.409,1.48,1.537,1.5818,1.6074,1.6464,1.6721,1.7075,1.7347,1.7706,1.7966,1.837,1.8673,1.9054,1.9345,1.9717,1.9208,1.8784,1.8238,1.7817,1.727,1.6836,1.6369,1.5901,1.5553,1.5073,1.4581,1.4221,1.385,1.34,1.2937,1.2453,1.1958,1.1598,1.1091,1.0588,1.0082,0.9712,0.9207,0.8831,0.8314,0.7934,0.7417,0.7417,0.7542,0.7795,0.7914,0.8171,0.8422,0.8671,0.8787,0.9035,0.9287,0.9401,0.9652,0.9901,1.0045,1.0339,1.039,1.0587,1.0652,1.0845,1.1053,1.1255,1.1316,1.1507,1.1713,1.1789,1.2005,1.2068,1.1983,1.1626,1.1115,1.0741,1.0217,2.7251,2.5888,2.4455,2.2997,2.1565,2.0126,1.8708,1.7293,1.6012,1.4608,1.32,1.2036,1.0913,1.0088,0.9295,0.8534,0.7627,0.6868,0.6062,0.5301,0.4431,0.3707,0.2967,0.2218,0.147,0.1186,0.1806,0.2537,0.3249,0.4002,0.4718,0.5406,0.6186,0.6933,0.7719,0.837,0.913,0.9917,1.0613,1.1106,1.1561,1.2033,1.2439,1.283,1.3205,1.3608,0.0,1.4419,1.4872,1.5215,1.5645,1.6081,1.6425,1.5997,1.557,1.5121,1.4671,1.422,1.3875,1.34,1.3026,1.2652,1.2277,1.1766,1.1384,1.1104,1.0654,1.0171,0.9679,0.9171,0.8667,0.8156,0.7642,0.6995,0.6485,0.6101,0.5586,0.5062,0.4538,0.4013,0.4013,0.4274,0.4397,0.4651,0.504,0.5298,0.5551,0.5804,0.6055,0.6437,0.6686,0.7064,0.7185,0.7585,0.7869,0.8045,0.8227,0.8416,0.8741,0.8934,0.913,0.9457,0.9645,0.9978,1.0187,1.0399,1.06,1.0515,1.0009,0.9495,0.8975,0.8437,2.4716,2.3378,2.2171,2.0826,1.9508,1.8186,1.6885,1.5602,1.431,1.302,1.163,1.0598,0.9516,0.8547,0.7624,0.6748,0.5844,0.4904,0.4028,0.3126,0.222,0.1243,0.0349,-0.0532,-0.1459,-0.1865,-0.1287,-0.0667,-0.0069,0.0571,0.1182,0.1756,0.2435,0.3075,0.3755,0.429,0.4941,0.5621,0.6313,0.6918,0.7402,0.7806,0.8316,0.8831,0.9255,0.9797,1.0358,1.0834,1.1311,1.1788,1.2273,1.2784,1.3305,1.2859,1.2506,1.2038,1.1568,1.1203,1.0829,1.0572,1.0073,0.9799,0.9394,0.9105,0.8692,0.8264,0.7924,0.7431,0.6795,0.6278,0.5764,0.5248,0.4599,0.3946,0.3427,0.2905,0.225,0.1724,0.1195,0.0665,0.0664,0.0928,0.119,0.1452,0.1842,0.2234,0.2623,0.2876,0.326,0.3643,0.4026,0.4277,0.4524,0.492,0.5325,0.5619,0.5917,0.6226,0.6534,0.6846,0.7161,0.7485,0.7812,0.8139,0.8473,0.8812,0.9004,0.9056,0.8538,0.788,0.7208,0.6527,2.218,2.0949,1.9835,1.8618,1.74,1.6206,1.5011,1.3834,1.2663,1.1486,1.0213,0.9107,0.8068,0.7063,0.6021,0.5038,0.4034,0.3012,0.1897,0.0869,-0.0151,-0.1157,-0.2214,-0.3245,-0.4304,-0.4848,-0.4388,-0.3947,0.0,-0.2869,-0.2373,-0.1919,-0.1344,-0.0815,-0.0252,0.0259,0.0712,0.1373,0.197,0.2584,0.3104,0.3637,0.4282,0.4846,0.5418,0.6008,0.6611,0.7128,0.7762,0.8296,0.8841,0.9409,0.999,0.9737,0.9371,0.8995,0.861,0.8222,0.7937,0.7657,0.7252,0.695,0.6645,0.6332,0.6016,0.5555,0.5202,0.4697,0.4051,0.3531,0.288,0.223,0.1574,0.0918,0.0394,-0.0263,-0.0922,-0.1585,-0.2117,-0.2782,-0.2779,-0.2374,-0.1974,-0.1706,-0.1308,-0.0914,-0.0391,-0.013,0.0388,0.0775,0.1159,0.1541,0.1922,0.2437,0.2831,0.3239,0.3655,0.4077,0.4367,0.4799,0.5233,0.5545,0.5997,0.6451,0.6773,0.7103,0.7568,0.7477,0.6955,0.6142,0.5461,0.4629,1.9629,1.8492,1.7461,1.6344,1.5254,1.4268,1.32,1.2026,1.0955,0.9899,0.8841,0.7769,0.6675,0.5543,0.4382,0.3297,0.22,0.1016,-0.0163,-0.1328,-0.2474,-0.3588,-0.4748,-0.5955,-0.7109,-0.7823,-0.7465,-0.7078,-0.6717,-0.6289,-0.5906,-0.5494,-0.5109,-0.4695,-0.4245,-0.385,-0.3424,-0.2969,-0.2471,-0.1839,-0.1177,-0.0496,0.0201,0.0916,0.1545,0.2191,0.2744,0.3526,0.4106,0.4811,0.5538,0.6167,0.6809,0.6531,0.6252,0.5965,0.5549,0.5251,0.4941,0.4752,0.4432,0.4105,0.3897,0.3558,0.3336,0.2978,0.2605,0.2091,0.1308,0.0655,-0.0,-0.0656,-0.1311,-0.2097,-0.2756,-0.3416,-0.4211,-0.4877,-0.5544,-0.6214,-0.6071,-0.5658,-0.5245,-0.4834,-0.4296,-0.3893,-0.3493,-0.2967,-0.2572,-0.2052,-0.1662,-0.1147,-0.0635,-0.0127,0.0383,0.0901,0.1297,0.183,0.2367,0.278,0.3201,0.363,0.42,0.4645,0.5094,0.5549,0.6007,0.6049,0.5382,0.4558,0.3583,0.2744,1.7012,1.6089,1.5172,1.4169,1.3191,1.2318,1.1336,1.0263,0.9318,0.8366,0.7415,0.6374,0.5235,0.3978,0.271,0.1527,0.026,-0.1001,-0.2246,-0.3476,-0.4755,-0.6012,-0.7301,-0.8562,-0.9912,-1.0673,0.0,-1.0214,-0.9898,-0.959,-0.9321,-0.902,-0.8757,-0.8447,-0.8102,-0.7824,-0.7512,-0.7162,-0.6757,-0.62,-0.5373,-0.4625,-0.3867,-0.3086,-0.2288,-0.1578,-0.0851,-0.0108,0.0653,0.143,0.2224,0.2923,0.3636,0.3447,0.3134,0.2812,0.2486,0.2273,0.2054,0.1831,0.1605,0.1373,0.1135,0.0765,0.0515,0.026,-0.0131,-0.0656,-0.1444,-0.21,-0.2889,-0.3547,-0.4337,-0.4992,-0.5778,-0.6576,-0.724,-0.8035,-0.8831,-0.9503,-0.9485,-0.9058,-0.8505,-0.7949,-0.7527,-0.6979,-0.644,-0.5903,-0.5371,-0.4845,-0.4322,-0.3797,-0.3154,-0.265,-0.2152,-0.1531,-0.103,-0.0389,0.0131,0.0659,0.1195,0.174,0.2293,0.2857,0.3429,0.4009,0.4596,0.4492,0.3815,0.2843,0.2005,0.101,1.4463,1.3644,1.2832,1.1943,1.1077,1.0301,0.9435,0.8567,0.7724,0.6777,0.6038,0.4938,0.3747,0.2378,0.11,-0.0265,-0.162,-0.2964,-0.4288,-0.5669,-0.7016,-0.8439,-0.9815,-1.1225,-1.2613,-1.3527,-1.3396,-1.323,-1.3013,-1.2815,-1.2658,-1.2547,-1.2295,-1.2095,-1.1858,-1.1683,-1.1485,-1.1244,-1.0925,-1.0329,-0.9517,-0.8593,-0.7851,-0.699,-0.6104,-0.5319,-0.4513,-0.358,-0.2742,-0.1994,-0.1119,-0.0339,0.0457,0.0346,0.0117,-0.0235,-0.0476,-0.0721,-0.0849,-0.1104,-0.1241,-0.1378,-0.1647,-0.1922,-0.2072,-0.2354,-0.2761,-0.3429,-0.4219,-0.4874,-0.5665,-0.6457,-0.7249,-0.8045,-0.8831,-0.9621,-1.0418,-1.1214,-1.2011,-1.2815,-1.2783,-1.2339,-1.1762,-1.1196,-1.0627,-0.9928,-0.9369,-0.8819,-0.8148,-0.7617,-0.6953,-0.642,-0.5766,-0.5145,-0.4531,-0.3931,-0.3325,-0.2709,-0.2082,-0.1443,-0.0793,-0.0133,0.0538,0.1085,0.1778,0.2343,0.3057,0.3082,0.2256,0.1278,0.0286,-0.0865,1.197,1.1259,1.0452,0.9772,0.9004,0.8241,0.758,0.6824,0.5985,0.5248,0.4518,0.3557,0.2319,0.0839,-0.054,-0.1999,-0.3446,-0.4876,-0.6374,-0.7851,-0.9378,-1.089,-1.2392,-1.3874,-1.5337,-1.6328,-1.6344,-1.6271,-1.6163,-1.6056,-1.5993,-1.5904,-1.5771,-1.5691,-1.5559,-1.5476,-1.5362,-1.5227,-1.489,-1.4362,-1.345,-1.2611,-1.1681,-1.0713,-0.9832,-0.8957,-0.8056,-0.7131,-0.6205,-0.5365,-0.451,-0.3641,-0.2758,-0.2788,-0.2933,-0.3198,-0.3354,-0.3509,-0.3667,-0.3828,-0.3996,-0.4165,-0.4336,-0.4515,-0.4695,-0.5005,-0.543,-0.6101,-0.6894,-0.7817,-0.8612,-0.9407,-1.0201,-1.0994,-1.1917,-1.2701,-1.362,-1.4417,-1.5352,-1.6168,-1.5989,-1.5533,-1.4915,-1.4193,-1.3604,-1.3011,-1.2314,-1.1614,-1.1059,-1.0384,-0.9699,-0.9027,-0.8372,-0.7622,-0.7014,-0.6311,-0.56,-0.4876,-0.4145,-0.3396,-0.2633,-0.1994,-0.1341,-0.0541,0.0136,0.0826,0.1526,0.1539,0.0704,-0.0284,-0.143,-0.2595,0.951,0.8807,0.821,0.7538,0.6879,0.6216,0.5668,0.5026,0.4396,0.3769,0.3154,0.2131,0.0947,-0.0641,-0.2212,-0.3684,-0.5315,-0.6846,-0.8446,-1.0028,-1.1616,-1.3247,-1.4842,-1.6496,-1.8101,-1.9173,-1.9228,-1.9232,-1.9206,-1.9198,-1.9235,-1.9229,-1.9215,-1.9156,-1.9206,-1.9223,-1.9116,-1.9064,-1.8807,-1.8317,-1.7391,-1.6447,-1.5475,-1.4498,-1.3514,-1.2513,-1.1613,-1.0578,-0.9652,-0.8709,-0.7755,-0.6784,-0.5795,-0.5857,-0.5915,-0.6091,-0.6279,-0.6469,-0.6531,-0.6725,-0.6796,-0.6994,-0.7071,-0.7153,-0.7361,-0.7563,-0.8008,-0.8693,-0.9615,-1.0548,-1.1472,-1.227,-1.3066,-1.3992,-1.4916,-1.5847,-1.6767,-1.7705,-1.8514,-1.9451,-1.9392,-1.8762,-1.8126,-1.7369,-1.6618,-1.5884,-1.5272,-1.4551,-1.3844,-1.3144,-1.2441,-1.1628,-1.0823,-1.0194,-0.9474,-0.8677,-0.7864,-0.7035,-0.6199,-0.5468,-0.4596,-0.3843,-0.3077,-0.2293,-0.1498,-0.0687,-0.0,0.014,-0.0844,-0.1985,-0.3144,-0.4469,0.6857,0.6378,0.5905,0.5342,0.4792,0.4245,0.0,0.3274,0.2753,0.2243,0.1742,0.076,-0.0464,-0.2158,-0.3835,-0.5489,-0.7149,-0.8877,-1.0578,-1.2227,-1.3888,-1.5618,-1.7316,-1.9065,-2.0744,-2.1913,-2.2084,-2.2181,-2.2249,-2.2333,-2.2442,-2.2531,-2.2635,-2.2673,-2.2836,-2.2858,-2.284,-2.2895,-2.268,-2.2316,-2.1294,-2.0293,-1.9266,-1.8149,-1.7148,-1.612,-1.5088,-1.4062,-1.3009,-1.1931,-1.087,-0.9783,-0.8782,-0.8763,-0.8849,-0.9054,-0.9147,-0.9246,-0.9456,-0.955,-0.9662,-0.9629,-0.9728,-0.9846,-0.9945,-1.0176,-1.0506,-1.1333,-1.2273,-1.3203,-1.4262,-1.5185,-1.6115,-1.7052,-1.7988,-1.8933,-1.9877,-2.0807,-2.1761,-2.2714,-2.2604,-2.2059,-2.1253,-2.0455,-1.9676,-1.8916,-1.8151,-1.727,-1.652,-1.5778,-1.5054,-1.4224,-1.3392,-1.2635,-1.1797,-1.0909,-1.0126,-0.932,-0.8371,-0.7537,-0.6551,-0.5683,-0.4938,-0.4042,-0.3127,-0.2333,-0.1384,-0.1395,-0.2389,-0.3541,-0.5002,-0.635,0.0,0.0,0.0,0.0,0.0,0.0,0.0,0.147,0.1067,0.0672,0.0285,-0.0652,-0.1911,-0.371,-0.5495,-0.7263,-0.9031,-1.08,-1.2576,-1.4393,-1.6185,-1.7978,-1.9808,-2.1602,-2.3405,-2.4713,-2.4947,-2.5041,-2.526,-2.5361,-2.5577,-2.5772,-2.5922,-2.613,-2.6298,-2.6405,-2.6471,-2.6729,-2.6585,-2.6157,-2.5064,-2.4024,-2.294,-2.1789,-2.0745,-1.958,-1.851,-1.7341,-1.6257,-1.516,-1.4081,-1.287,-1.1874,-1.1871,-1.1866,-1.1978,-1.2099,-1.2097,-1.2217,-1.2219,-1.2345,-1.2344,-1.2476,-1.2478,-1.2602,-1.2726,-1.3206,-1.3909,-1.498,-1.6046,-1.6985,-1.7921,-1.8986,-1.9927,-2.1009,-2.2088,-2.3035,-2.3994,-2.5065,-2.602,-2.5912,-2.5206,-2.4351,-2.3504,-2.268,-2.1864,-2.1057,-2.0134,-1.9356,-1.8574,-1.7714,-1.6741,-1.5885,-1.5109,-1.4261,-1.3261,-1.2381,-1.1473,-1.0412,-0.9471,-0.8505,-0.7661,-0.6667,-0.5786,-0.4753,-0.3838,-0.2904,-0.279,-0.3797,-0.525,-0.6584,-0.8097,0.0,0.0,0.0,0.0,0.0,0.0,0.0,0.0,0.0,0.0,0.0,-0.2104,-0.3395,0.0,-0.7196,-0.8997,-1.0889,-1.2723,-1.4594,-1.6529,-1.846,-2.0404,-2.2297,-2.4196,-2.6109,-2.7427,-2.7738,-2.7998,-2.8204,-2.8477,-2.8701,-2.9051,-2.9283,-2.9468,-2.9716,-2.9923,-3.0088,-3.0427,-3.0326,-2.9904,-2.8868,-2.7656,-2.6521,-2.5432,-2.4223,-2.2986,-2.1881,-2.0666,-1.9539,-1.8414,-1.7176,-1.5946,-1.4955,-1.4839,-1.4849,-1.4877,-1.4892,-1.4915,-1.4935,-1.4962,-1.4987,-1.5009,-1.5158,-1.5054,-1.521,-1.5348,-1.571,-1.6557,-1.7633,-1.8715,-1.9792,-2.0852,-2.18,-2.289,-2.3976,-2.5059,-2.6169,-2.7261,-2.8349,-2.9306,-2.917,-2.8445,-2.7519,-2.6635,-2.5744,-2.4878,-2.3898,-2.3051,-2.2107,-2.1185,-2.0287,-1.9276,-1.8383,-1.7473,-1.6609,-1.5635,-1.4639,-1.3496,-1.2464,-1.1538,-1.0463,-0.9503,-0.8396,-0.7394,-0.6377,-0.548,-0.4425,-0.4186,-0.5351,-0.6818,-0.8318,-0.9854,0.0,0.0,0.0,0.0,0.0,0.0,0.0,0.0,0.0,0.0,0.0,0.0,0.0,0.0,0.0,-1.0703,-1.2688,-1.4702,-1.6678,-1.8737,-2.0717,-2.2788,-2.4746,-2.6843,-2.8776,-3.0256,-3.0584,-3.0916,-3.1155,-3.1499,-3.1892,-3.224,-3.2517,-3.2857,-3.3205,-3.351,-3.3772,-3.4067,-3.4123,-3.37,0.0,0.0,-3.0212,-2.8925,-2.7757,-2.6471,-2.5305,-2.4051,-2.2769,-2.1477,-2.0306,-1.9022,-1.7882,-1.7797,-1.7829,-1.7737,-1.7787,-1.7698,-1.773,-1.7782,-1.7714,-1.776,-1.7802,-1.771,-1.7746,-1.7915,0.0,-1.915,-2.0367,-2.1454,-2.2549,-2.3759,-2.4843,-2.5938,-2.7028,-2.8131,-2.9263,-3.0375,-3.1485,-3.2609,-3.2423,-3.1625,-3.0639,-2.9698,-2.8644,-2.7723,-2.6813,-2.5823,-2.4828,-2.3844,-2.2901,-2.1968,-2.0898,-1.9973,-1.8994,-1.7911,-1.6804,-1.5683,-1.4654,-1.3477,-1.2422,-1.1352,-1.0258,-0.9136,-0.8002,-0.6985,-0.5808,-0.5725,-0.6907,-0.8392,-1.0061,-1.1629,0.0,0.0,0.0,0.0,0.0,0.0,0.0,0.0,0.0,0.0,0.0,0.0,0.0,0.0,0.0,0.0,-1.4535,-1.668,-1.8812,-2.0871,-2.3006,-2.514,-2.7243,-2.9357,-3.1465,-3.2972,-3.3427,-3.3795,-3.4195,-3.4609,-3.5074,0.0,0.0,0.0,0.0,-3.7006,-3.7456,-3.7845,-3.7832,-3.7527,-3.6352,-3.5079,-3.378,-3.252,-3.1164,-2.9932,-2.8582,-2.7357,-2.6027,-2.4689,-2.3344,-2.2124,-2.0926,-2.0742,-2.0673,-2.06,-2.0535,-2.0466,-2.0518,0.0,0.0,-2.0462,-2.0395,-2.0455,-2.0379,-2.0421,-2.0949,-2.1829,-2.3066,-2.416,-2.5396,-2.6478,-2.7716,-2.8832,-3.0075,-3.1201,-3.2469,-3.3605,-3.4738,-3.5887,-3.5666,-3.4808,-3.3776,-3.2755,-3.1641,-3.0679,-2.9709,-2.8647,-2.7597,-2.6559,-2.5566,-2.4466,-2.348,0.0,-2.1282,-2.0075,-1.8989,-1.7743,-1.6733,-1.5448,-1.4265,-1.3205,-1.1999,-1.0892,-0.9635,-0.8494,-0.7332,-0.7124,-0.8324,-0.9974,-1.1816,-1.342,0.0,0.0,0.0,0.0,0.0,0.0,0.0,0.0,0.0,0.0,0.0,0.0,0.0,0.0,0.0,0.0,-1.6412,-1.8604,-2.0843,-2.2989,-2.5185,-2.7467,-2.9672,-3.1875,-3.4145,-3.5773,-3.6294,-3.6792,-3.7226,-3.7735,-3.8192,-3.8724,-3.9108,-3.9522,-4.0029,-4.0518,-4.1059,-4.1511,-4.1546,-4.1227,-3.996,-3.87,-3.7307,-3.5979,-3.4648,-3.3354,-3.1923,-3.0582,-2.9199,-2.7926,-2.6531,0.0,0.0,0.0,0.0,0.0,-2.3404,-2.3339,-2.3283,-2.3237,-2.3186,-2.313,-2.3082,-2.3028,-2.2943,-2.3141,-2.356,-2.4438,-2.5696,-2.6947,-2.819,-2.9309,-3.0571,-3.1827,-3.3113,-3.4245,-3.5521,-3.6683,-3.799,-3.9188,-3.891,0.0,-3.7032,-3.582,-3.4764,-3.3597,-3.2463,-3.1424,-3.0315,-2.9219,-2.8189,-2.7036,-2.5896,-2.4748,-2.3583,-2.2412,0.0,0.0,0.0,-1.7441,-1.6264,-1.5074,0.0,0.0,0.0,-1.0013,-0.8729,-0.8534,0.0,0.0,-1.3457,-1.5236,0.0,0.0,0.0,0.0,0.0,0.0,0.0,0.0,0.0,0.0,0.0,0.0,0.0,0.0,0.0,0.0,-1.5277,-1.7432,-1.9609,-2.1757,-2.396,-2.6115,-2.8372,-3.0451,-3.2656,-3.424,-3.4734,-3.5296,-3.5837,-3.6326,-3.6809,-3.7325,-3.7775,-3.8287,-3.8756,-3.9275,-3.9808,-4.0327,-4.0441,-4.0129,-3.9008,-3.7681,-3.6458,-3.5125,-3.3943,-3.2668,-3.1409,-3.0106,-2.8839,-2.7585,-2.6229,-2.4982,-2.3731,-2.3528,-2.3334,-2.3164,-2.3095,-2.2898,-2.2694,-2.2624,-2.2563,-2.2369,-2.2297,-2.2089,-2.2007,-2.1919,-2.2425,-2.3297,-2.4514,-2.5738,-2.6954,-2.8195,-2.9431,-3.0532,-3.1793,-3.3049,-3.43,-3.5566,-3.6703,-3.8023,-3.7811,-3.7186,-3.6141,-3.5247,-3.4362,-3.3366,-3.2498,-3.164,-3.0693,-2.9774,-2.8847,-2.7966,-2.6962,-2.5991,-2.4875,-2.3609,-2.2297,-2.0983,-1.9664,-1.8435,-1.7166,-1.5751,-1.4453,-1.3254,-1.1909,-1.0666,0.0,0.0,0.0,0.0,0.0,0.0,0.0,0.0,0.0,0.0,0.0,0.0,0.0,0.0,0.0,0.0,0.0,0.0,0.0,0.0,0.0,0.0,0.0,0.0,-1.7947,-2.0057,-2.2133,-2.4316,-2.6446,-2.8522,-3.0602,-3.2165,-3.2709,-3.3268,-3.3813,-3.4341,-3.4871,-3.5335,-3.592,-3.6471,-3.6986,-3.7466,-3.803,-3.8538,-3.8725,-3.8395,-3.7317,-3.6164,-3.5007,-3.3826,-3.2665,-3.1564,-3.0328,-2.9199,-2.7974,-2.6857,-2.5658,-2.4436,-2.3357,-2.29,-2.2698,-2.2491,-2.2292,-2.2073,-2.1849,-2.1633,-2.1313,-2.111,-2.1013,-2.0797,-2.0444,-2.0331,-2.0822,-2.1658,-2.2844,-2.4022,-2.5223,-2.6433,-2.7622,-2.8822,-3.0051,-3.1295,-3.2518,-3.3735,-3.4967,-3.6257,-3.6231,-3.5658,-3.4813,-3.4229,-3.3534,-3.2824,-3.2025,0.0,-3.0696,-2.9936,-2.9277,-2.8531,-2.7921,-2.6999,-2.5923,-2.4681,-2.3208,-2.1826,-2.0541,-1.9234,-1.7891,-1.6533,-1.5009,-1.3696,-1.2383,-1.1032,-0.9639,0.0,0.0,0.0,0.0,0.0,0.0,0.0,0.0,0.0,0.0,0.0,0.0,0.0,0.0,0.0,0.0,0.0,0.0,0.0,0.0,0.0,0.0,0.0,0.0,0.0,-1.954,-2.1593,-2.3632,-2.5651,-2.7603,-2.9078,-2.9653,-3.022,-3.075,-3.1313,-3.1844,-3.2318,-3.2835,-3.3376,-3.3977,-3.4466,-3.5044,-3.5599,-3.5774,-3.5523,-3.4619,-3.3518,-3.2435,-3.1453,-3.0384,-2.9437,-2.8379,-2.7317,-2.6269,-2.5198,-2.4125,-2.308,-2.2157,-2.17,-2.1348,-2.1032,-2.0682,-2.0324,-2.0105,-1.9748,-1.9396,-1.9062,-1.8829,-1.8454,-1.8095,-1.7968,-1.8301,-1.9094,-2.0366,-2.1393,-2.2678,-2.382,-2.497,-2.6131,-2.732,-2.8507,-2.9673,-3.0853,-3.2068,-3.332,-3.3453,-3.3211,-3.2699,-3.2285,-3.1892,-3.1389,-3.0909,-3.0543,-3.0069,-2.9707,-2.9238,-2.8791,-2.8474,-2.7696,-2.6775,-2.5393,-2.3985,-2.2548,-2.1213,-1.9713,-1.8302,-1.6858,-1.5506,-1.3975,-1.2687,-1.124,-0.9741,0.0,0.0,0.0,0.0,0.0,0.0,0.0,0.0,0.0,0.0,0.0,0.0,0.0,0.0,0.0,0.0,0.0,0.0,0.0,0.0,0.0,0.0,0.0,0.0,0.0,0.0,-1.8893,-2.0825,0.0,-2.4616,-2.6037,-2.6581,-2.7121,-2.7672,-2.8224,-2.875,-2.9326,-2.9802,-3.0417,-3.0932,-3.1425,-3.1988,-3.2582,-3.2813,-3.2562,-3.1803,-3.0896,-2.9964,-2.907,-2.8172,-2.727,-2.6468,-2.5472,-2.4576,-2.3676,-2.2757,-2.1866,-2.0877,-2.0419,-2.0064,-1.9592,-1.9127,-1.8767,-1.8312,-1.7824,-1.7456,-1.7117,-1.6639,-1.625,-1.5754,-1.5493,-1.5798,-1.6573,-1.7669,-1.8902,-2.001,-2.1232,-2.2343,-2.345,-2.4599,-2.5731,-2.6859,-2.8001,-2.9159,-3.0353,-3.0748,-3.0705,-3.049,-3.0296,-3.0191,-3.0015,-2.9839,-2.9731,-2.9555,-2.9378,-2.9202,-2.913,-2.8952,-2.8457,-2.7618,-2.6074,-2.4732,-2.3245,-2.1837,-2.0289,-1.8818,-1.7294,-1.5864,-1.4384,-1.2871,-1.1452,0.0,0.0,0.0,0.0,0.0,0.0,0.0,0.0,0.0,0.0,0.0,0.0,0.0,0.0,0.0,0.0,0.0,0.0,0.0,0.0,0.0,0.0,0.0,0.0,0.0,0.0,0.0,-1.6188,-1.8044,0.0,0.0,0.0,0.0,-2.4036,-2.4566,-2.5148,-2.5738,-2.6313,-2.6851,-2.7352,-2.7882,-2.8353,-2.8921,-2.9523,-2.9783,-2.9722,-2.9025,-2.8282,-2.7515,-2.6784,-2.6068,-2.5273,-2.4412,-2.365,-2.2831,-2.2094,-2.1337,-2.0592,-1.9766,-1.928,-1.8683,-1.8105,-1.7654,-1.7073,-1.6472,-1.5986,-1.5504,-1.5047,-1.4559,-1.3948,-1.3444,-1.3048,0.0,0.0,-1.5022,-1.6201,-1.7374,-1.8553,-1.9625,-2.0807,-2.1788,-2.288,-2.4083,-2.5188,-2.629,-2.7537,-2.7939,-2.8084,-2.8259,0.0,-2.8566,-2.8662,-2.8756,-2.8809,-2.8918,-2.9128,-2.9212,-2.9396,-2.9596,-2.9193,-2.8421,-2.6954,-2.5449,-2.392,-2.233,-2.0839,-1.9301,-1.7714,-1.6201,-1.4667,-1.3189,0.0,0.0,0.0,0.0,0.0,0.0,0.0,0.0,0.0,0.0,0.0,0.0,0.0,0.0,0.0,0.0,0.0,0.0,0.0,0.0,0.0,0.0,0.0,0.0,0.0,0.0,-0.9975,-1.174,-1.3457,-1.5188,-1.6831,0.0,0.0,0.0,0.0,0.0,0.0,-2.2685,-2.321,-2.3784,-2.4332,-2.4834,-2.5327,-2.592,-2.6507,-2.6814,-2.6705,-2.6254,-2.5666,-2.496,-2.4365,-2.3785,-2.3166,-2.2463,-2.1855,-2.116,-2.0576,-1.9973,-1.9367,-1.8669,-1.8082,-1.7387,-1.6685,-1.6118,-1.5544,-1.4845,-1.4148,-1.3561,-1.2985,-1.2399,-1.1794,-1.1069,0.0,0.0,0.0,0.0,-1.3664,-1.4682,-1.5807,-1.6962,-1.8005,-1.9046,-2.0195,-2.1233,-2.2298,-2.3471,-2.4552,-2.5208,-2.5702,-2.605,-2.6394,0.0,-2.721,-2.7661,-2.8007,-2.8369,-2.8847,-2.93,-2.9672,-3.0138,-2.9867,-2.9263,-2.7657,-2.6123,-2.454,-2.2922,-2.1377,-1.9803,-1.8143,-1.667,-1.505,0.0,0.0,0.0,0.0,0.0,0.0,0.0,0.0,0.0,0.0,0.0,0.0,0.0,0.0,0.0,0.0,0.0,0.0,0.0,0.0,0.0,0.0,0.0,0.0,0.0,0.0,0.0,-0.7477,-0.9092,-1.0645,-1.2277,-1.3862,0.0,0.0,0.0,0.0,0.0,0.0,0.0,0.0,0.0,-2.1268,-2.1741,-2.2313,-2.299,-2.3563,-2.3804,-2.3778,-2.3449,-2.3007,-2.2433,-2.1966,-2.1514,-2.1059,-2.0489,-2.0026,-1.9561,-1.8996,-1.8539,-1.8064,0.0,0.0,0.0,0.0,-1.4557,-1.3877,-1.3098,-1.2414,-1.1626,-1.0943,0.0,0.0,0.0,0.0,0.0,0.0,0.0,-1.0986,-1.2065,-1.3147,-1.4151,-1.526,-1.6251,-1.7358,-1.8463,-1.958,-2.0606,-2.1632,-2.249,-2.3224,-2.3818,-2.4508,0.0,0.0,0.0,-2.7198,-2.78,-2.8514,-2.9245,-2.9993,-3.0601,-3.0595,-2.9946,-2.8426,-2.6752,-2.5139,-2.3608,-2.1904,-2.0272,-1.8664,-1.7005,0.0,0.0,0.0,0.0,0.0,0.0,0.0,0.0,0.0,0.0,0.0,0.0,0.0,0.0,0.0,0.0,0.0,0.0,0.0,0.0,0.0,0.0,0.0,0.0,0.0,0.0,0.0,0.0,0.0,-0.6414,-0.788,0.0,0.0,0.0,0.0,0.0,0.0,0.0,0.0,0.0,0.0,0.0,0.0,0.0,-1.9335,-1.9971,-2.0511,-2.0879,-2.0964,-2.066,-2.0318,-1.9958,-1.9628,-1.9296,-1.8854,-1.8516,0.0,-1.7833,-1.7379,0.0,0.0,0.0,0.0,0.0,0.0,0.0,0.0,0.0,0.0,0.0,0.0,0.0,0.0,0.0,0.0,0.0,0.0,0.0,0.0,0.0,0.0,-1.143,-1.2485,-1.3539,-1.4591,-1.5654,-1.6728,-1.7701,-1.8803,-1.9732,-2.0739,0.0,0.0,0.0,0.0,0.0,0.0,-2.7326,-2.8264,-2.9241,-3.0215,-3.1209,-3.1302,-3.0821,-2.916,-2.7574,-2.5839,-2.4152,-2.2516,-2.0822,-1.9063,0.0,0.0,0.0,0.0,0.0,0.0,0.0,0.0,0.0,0.0,0.0,0.0,0.0,0.0,0.0,0.0,0.0,0.0,0.0,0.0,0.0,0.0,0.0,0.0,0.0,0.0,0.0,0.0,0.0,0.0,0.0,0.0,0.0,0.0,0.0,0.0,0.0,0.0,0.0,0.0,0.0,0.0,0.0,0.0,0.0,0.0,0.0,0.0,0.0,0.0,-1.7932,-1.7702,-1.7367,-1.7237,-1.7016,-1.6794,-1.6555,-1.6342,-1.6113,-1.5869,0.0,0.0,0.0,0.0,0.0,0.0,0.0,0.0,0.0,0.0,0.0,0.0,0.0,0.0,0.0,0.0,0.0,0.0,0.0,0.0,0.0,0.0,-0.8717,-0.9812,-1.0822,-1.1831,-1.284,0.0,0.0,0.0,0.0,0.0,0.0,0.0,0.0,0.0,0.0,0.0,-2.6805,-2.7998,-2.9212,-3.0513,-3.1796,-3.2033,-3.1653,-2.9953,-2.8247,-2.6481,-2.4771,-2.2992,0.0,0.0,0.0,0.0,0.0,0.0,0.0,0.0,0.0,0.0,0.0,0.0,0.0,0.0,0.0,0.0,0.0,0.0,0.0,0.0,0.0,0.0,0.0,0.0,0.0,0.0,0.0,0.0,0.0,0.0,0.0,0.0,0.0,0.0,0.0,0.0,0.0,0.0,0.0,0.0,0.0,0.0,0.0,0.0,0.0,0.0,0.0,0.0,0.0,0.0,0.0,0.0,0.0,0.0,0.0,0.0,0.0,0.0,0.0,-1.4417,0.0,0.0,0.0,0.0,0.0,0.0,0.0,0.0,0.0,0.0,0.0,0.0,0.0,0.0,0.0,0.0,0.0,0.0,0.0,0.0,0.0,0.0,0.0,0.0,0.0,0.0,0.0,0.0,0.0,0.0,0.0,0.0,0.0,0.0,0.0,0.0,0.0,0.0,0.0,0.0,-2.6193,-2.7696,-2.92,-3.0774,-3.2258,-3.2744,-3.2421,-3.071,-2.8873,-2.7101,-2.5355,0.0,0.0,0.0,0.0,0.0,0.0,0.0,0.0,0.0,0.0,0.0,0.0,0.0,0.0,0.0,0.0,0.0,0.0,0.0,0.0,0.0,0.0,0.0,0.0,0.0,0.0,0.0,0.0,0.0,0.0,0.0,0.0,0.0,0.0,0.0,0.0,0.0,0.0,0.0,0.0,0.0,0.0,0.0,0.0,0.0,0.0,0.0,0.0,0.0,0.0,0.0,0.0,0.0,0.0,0.0,0.0,0.0,0.0,0.0,-1.2531,0.0,0.0,0.0,0.0,0.0,0.0,0.0,0.0,0.0,0.0,0.0,0.0,0.0,0.0,0.0,0.0,0.0,0.0,0.0,0.0,0.0,0.0,0.0,0.0,0.0,0.0,0.0,0.0,0.0,0.0,0.0,0.0,0.0,0.0,0.0,0.0,0.0,0.0,0.0,0.0,0.0,-2.5625,-2.7419,-2.9205,-3.1024,-3.2797,-3.344,-3.3282,-3.1457,-2.9631,-2.7817,-2.5942,0.0,0.0,0.0,0.0,0.0,0.0,0.0,0.0,0.0,0.0,0.0,0.0,0.0,0.0,0.0,0.0,0.0,0.0,0.0,0.0,0.0,0.0,0.0,0.0,0.0,0.0,0.0,0.0,0.0,0.0,0.0,0.0,0.0,0.0,0.0,0.0,0.0,0.0,0.0,0.0,0.0,0.0,0.0,0.0,0.0,0.0,0.0,0.0,0.0,0.0,0.0,0.0,0.0,0.0,0.0,0.0,0.0,0.0,0.0,0.0,0.0,0.0,0.0,0.0,0.0,0.0,0.0,0.0,0.0,0.0,0.0,0.0,0.0,0.0,0.0,0.0,0.0,0.0,0.0,0.0,0.0,0.0,0.0,0.0,0.0,0.0,0.0,0.0,0.0,0.0,0.0,0.0,0.0,0.0,0.0,0.0,0.0,0.0,0.0,0.0,0.0,-2.5031,-2.7121,-2.9239,-3.1296,-3.3342,-3.4151,-3.4104,-3.2282,-3.0407,-2.8491,0.0,0.0,0.0,0.0,0.0,0.0,0.0,0.0,0.0,0.0,0.0,0.0,0.0,0.0,0.0,0.0,0.0,0.0,0.0,0.0,0.0,0.0,0.0,0.0,0.0,0.0,0.0,0.0,0.0,0.0,0.0,0.0,0.0,0.0,0.0,0.0,0.0,0.0,0.0,0.0,0.0,0.0,0.0,0.0,0.0,0.0,0.0,0.0,0.0,0.0,0.0,0.0,0.0,0.0,0.0,0.0,0.0,0.0,0.0,0.0,0.0,0.0,0.0,0.0,0.0,0.0,0.0,0.0,0.0,0.0,0.0,0.0,0.0,0.0,0.0,0.0,0.0,0.0,0.0,0.0,0.0,0.0,0.0,0.0,0.0,0.0,0.0,0.0,0.0,0.0,0.0,0.0,0.0,0.0,0.0,0.0,0.0,0.0,0.0,0.0,0.0,0.0,-2.4509,-2.6857,-2.9194,-3.1533,-3.3948,-3.482,-3.4863,-3.2945,-3.1046,-2.9101,0.0,0.0,0.0,0.0,0.0,0.0,0.0,0.0,0.0,0.0,0.0,0.0,0.0,0.0,0.0,0.0,0.0,0.0,0.0,0.0,0.0,0.0,0.0,0.0,0.0,0.0,0.0,0.0,0.0,0.0,0.0,0.0,0.0,0.0,0.0,0.0,0.0,0.0,0.0,0.0,0.0,0.0,0.0,0.0,0.0,0.0,0.0,0.0,0.0,0.0,0.0,0.0,0.0,0.0,0.0,0.0,0.0,0.0,0.0,0.0,0.0,0.0,0.0,0.0,0.0,0.0,0.0,0.0,0.0,0.0,0.0,0.0,0.0,0.0,0.0,0.0,0.0,0.0,0.0,0.0,0.0,0.0,0.0,0.0,0.0,0.0,0.0,0.0,0.0,0.0,0.0,0.0,0.0,0.0,0.0,0.0,0.0,0.0,0.0,0.0,0.0,0.0,-2.3978,-2.6569,-2.9189,-3.185,-3.4485,-3.5578,-3.5713,-3.3736,-3.1742,-2.9712,0.0,0.0,0.0,0.0,0.0,0.0,0.0,0.0,0.0,0.0,0.0,0.0,0.0,0.0,0.0,0.0,0.0,0.0,0.0,0.0,0.0,0.0,0.0,0.0,0.0,0.0,0.0,0.0,0.0,0.0,0.0,0.0,0.0,0.0,0.0,0.0,0.0,0.0,0.0,0.0,0.0,0.0,0.0,0.0,0.0,0.0,0.0,0.0,0.0,0.0,0.0,0.0,0.0,0.0,0.0,0.0,0.0,0.0,0.0,0.0,0.0,0.0,0.0,0.0,0.0,0.0,0.0,0.0,0.0,0.0,0.0,0.0,0.0,0.0,0.0,0.0,0.0,0.0,0.0,0.0,0.0,0.0,0.0,0.0,0.0,0.0,0.0,0.0,0.0,0.0,0.0,0.0,0.0,0.0,0.0,0.0,0.0,0.0,0.0,0.0,0.0,0.0,-2.3464,-2.6259,-2.9218,-3.2122,-3.5047,-3.6296,-3.6556,-3.4518,-3.2438,0.0,0.0,0.0,0.0,0.0,0.0,0.0,0.0,0.0,0.0,0.0,0.0,0.0,0.0,0.0,0.0,0.0,0.0,0.0,0.0,0.0,0.0,0.0,0.0,0.0,0.0,0.0,0.0,0.0,0.0,0.0,0.0,0.0,0.0,0.0,0.0,0.0,0.0,0.0,0.0,0.0,0.0,0.0,0.0,0.0,0.0,0.0,0.0,0.0,0.0,0.0,0.0,0.0,0.0,0.0,0.0,0.0,0.0,0.0,0.0,0.0,0.0,0.0,0.0,0.0,0.0,0.0,0.0,0.0,0.0,0.0,0.0,0.0,0.0,0.0,0.0,0.0,0.0,0.0,0.0,0.0,0.0,0.0,0.0,0.0,0.0,0.0,0.0,0.0,0.0,0.0,0.0,0.0,0.0,0.0,0.0,0.0,0.0,0.0,0.0,0.0,0.0,0.0,-2.2199,-2.5174,-2.809,-3.1024,-3.4076,-3.5409,-3.5769,-3.3776,-3.1803,-2.9732,0.0,0.0,0.0,0.0,0.0,0.0,0.0,0.0,0.0,0.0,0.0,0.0,0.0,0.0,0.0,0.0,0.0,0.0,0.0,0.0,0.0,0.0,0.0,0.0,0.0,0.0,0.0,0.0,0.0,0.0,0.0,0.0,0.0,0.0,0.0,0.0,0.0,0.0,0.0,0.0,0.0,0.0,0.0,0.0,0.0,0.0,0.0,0.0,0.0,0.0,0.0,0.0,0.0,0.0,0.0,0.0,0.0,0.0,0.0,0.0,0.0,0.0,0.0,0.0,0.0,0.0,0.0,0.0,0.0,0.0,0.0,0.0,0.0,0.0,0.0,0.0,0.0,0.0,0.0,0.0,0.0,0.0,0.0,0.0,0.0,0.0,0.0,0.0,0.0,0.0,0.0,0.0,0.0,0.0,0.0,0.0,0.0,0.0,0.0,0.0,0.0,0.0,0.0,-2.3734,-2.661,-2.9588,-3.2579,-3.4025,-3.4404,-3.2571,-3.0582,-2.862,0.0,0.0,0.0,0.0,0.0,0.0,0.0,0.0,0.0,0.0,0.0,0.0,0.0,0.0,0.0,0.0,0.0,0.0,0.0,0.0,0.0,0.0,0.0,0.0,0.0,0.0,0.0,0.0,0.0,0.0,0.0,0.0,0.0,0.0,0.0,0.0,0.0,0.0,0.0,0.0,0.0,0.0,0.0,0.0,0.0,0.0,0.0,0.0,0.0,0.0,0.0,0.0,0.0,0.0,0.0,0.0,0.0,0.0,0.0,0.0,0.0,0.0,0.0,0.0,0.0,0.0,0.0,0.0,0.0,0.0,0.0,0.0,0.0,0.0,0.0,0.0,0.0,0.0,0.0,0.0,0.0,0.0,0.0,0.0,0.0,0.0,0.0,0.0,0.0,0.0,0.0,0.0,0.0,0.0,0.0,0.0,0.0,0.0,0.0,0.0,0.0,0.0,0.0,-2.1633,-2.44,-2.7303,-3.0213,-3.1571,-3.198,-3.0282,-2.8479,-2.6632,-2.5,0.0,0.0,0.0,0.0,0.0,0.0,0.0,0.0,0.0,0.0,0.0,0.0,0.0,0.0,0.0,0.0,0.0,0.0,0.0,0.0,0.0,0.0,0.0,0.0,0.0,0.0,0.0,0.0,0.0,0.0,0.0,0.0,0.0,0.0,0.0,0.0,0.0,0.0,0.0,0.0,0.0,0.0,0.0,0.0,0.0,0.0,0.0,0.0,0.0,0.0,0.0,0.0,0.0,0.0,0.0,0.0,0.0,0.0,0.0,0.0,0.0,0.0,0.0,0.0,0.0,0.0,0.0,0.0,0.0,0.0,0.0,0.0,0.0,0.0,0.0,0.0,0.0,0.0,0.0,0.0,0.0,0.0,0.0,0.0,0.0,0.0,0.0,0.0,0.0,0.0,0.0,0.0,0.0,0.0,0.0,0.0,0.0,0.0,0.0,0.0,0.0,0.0,-1.9518,-2.2233,-2.4934,-2.7741,-2.9077,-2.9515,-2.7987,-2.6389,-2.4688,-2.3147,0.0,0.0,0.0,0.0,0.0,0.0,0.0,0.0,0.0,0.0,0.0,0.0,0.0,0.0,0.0,0.0,0.0,0.0,0.0,0.0,0.0,0.0,0.0,0.0,0.0,0.0,0.0,0.0,0.0,0.0,0.0,0.0,0.0,0.0,0.0,0.0,0.0,0.0,0.0,0.0,0.0,0.0,0.0,0.0,0.0,0.0,0.0,0.0,0.0,0.0,0.0,0.0,0.0,0.0,0.0,0.0,0.0,0.0,0.0,0.0,0.0,0.0,0.0,0.0,0.0,0.0,0.0,0.0,0.0,0.0,0.0,0.0,0.0,0.0,0.0,0.0,0.0,0.0,0.0,0.0,0.0,0.0,0.0,0.0,0.0,0.0,0.0,0.0,0.0,0.0,0.0,0.0,0.0,0.0,0.0,0.0,0.0,0.0,0.0,0.0,0.0,0.0,-1.7521,-2.0078,-2.2635,-2.5308,-2.6604,-2.7046,-2.5707,-2.4261,-2.2744,-2.1354,0.0,0.0,0.0,0.0,0.0,0.0,0.0,0.0,0.0,0.0,0.0,0.0,0.0,0.0,0.0,0.0,0.0,0.0,0.0,0.0,0.0,0.0,0.0,0.0,0.0,0.0,0.0,0.0,0.0,0.0,0.0,0.0,0.0,0.0,0.0,0.0,0.0,0.0,0.0,0.0,0.0,0.0,0.0,0.0,0.0,0.0,0.0,0.0,0.0,0.0,0.0,0.0,0.0,0.0,0.0,0.0,0.0,0.0,0.0,0.0,0.0,0.0,0.0,0.0,0.0,0.0,0.0,0.0,0.0,0.0,0.0,0.0,0.0,0.0,0.0,0.0,0.0,0.0,0.0,0.0,0.0,0.0,0.0,0.0,0.0,0.0,0.0,0.0,0.0,0.0,0.0,0.0,0.0,0.0,0.0,0.0,0.0,0.0,0.0,0.0,0.0,0.0,0.0,-1.788,-2.0309,-2.2858,-2.4144,-2.4615,-2.3336,-2.2135,-2.0839,0.0,0.0,0.0,0.0,0.0,0.0,0.0,0.0,0.0,0.0,0.0,0.0,0.0,0.0,0.0,0.0,0.0,0.0,0.0,0.0,0.0,0.0,0.0,0.0,0.0,0.0,0.0,0.0,0.0,0.0,0.0,0.0,0.0,0.0,0.0,0.0,0.0,0.0,0.0,0.0,0.0,0.0,0.0,0.0,0.0,0.0,0.0,0.0,0.0,0.0,0.0,0.0,0.0,0.0,0.0,0.0,0.0,0.0,0.0,0.0,0.0,0.0,0.0,0.0,0.0,0.0,0.0,0.0,0.0,0.0,0.0,0.0,0.0,0.0,0.0,0.0,0.0,0.0,0.0,0.0,0.0,0.0,0.0,0.0,0.0,0.0,0.0,0.0,0.0,0.0,0.0,0.0,0.0,0.0,0.0,0.0,0.0,0.0,0.0,0.0,0.0,0.0,0.0,0.0,-1.5666,-1.8007,-2.0429,-2.1691,-2.2169,-2.1042,-1.9983,-1.8923,0.0,0.0,0.0,0.0,0.0,0.0,0.0,0.0,0.0,0.0,0.0,0.0,0.0,0.0]}],[{"header":{"parameterUnit":"kt","parameterCategory":2,"dx":1,"dy":1,"la1":29.285339999999998,"la2":30.599998999999997,"lo1":-89.70041500000002,"lo2":-87.6738589999976,"nx":112,"ny":82,"refTime":"2022-10-26T18:00:00:Z","depth":0,"parameterNumber":2,"parameterNumberName":"V-component_of_WINDS"},"data":[-4.2748,-4.1833,0.0,-3.9997,-3.903,0.0,-3.7033,-3.6028,-3.5031,-3.3994,-3.2923,-3.1656,-3.0244,-2.8484,-2.6607,-2.4656,-2.2672,-2.0907,0.0,-1.789,0.0,0.0,0.0,0.0,0.0,0.0,0.0,0.0,0.0,0.0,0.0,0.0,-0.6036,-0.5584,-0.4992,-0.4491,-0.3962,-0.3408,-0.3451,-0.3979,-0.5846,-0.7792,-0.9566,-1.1566,-1.3529,-1.5477,-1.7397,-1.9317,-2.1216,-2.3239,-2.5154,-2.7079,-2.8998,-2.9747,-3.0476,-3.11,-3.1827,-3.2574,-3.3218,-3.3862,-3.4631,-3.5298,-3.5989,-3.6733,-3.7425,-3.7993,-3.8389,-3.8537,-3.8438,-3.8338,-3.8239,-3.8163,-3.8063,-3.7938,-3.7938,-3.7862,-3.7809,-3.7684,-3.7607,-3.7529,-3.735,-3.7169,-3.6917,-3.6688,-3.6482,-3.6194,-3.5986,-3.5777,-3.5545,-3.5335,-3.5125,-3.4936,-3.4746,-3.4705,-3.4771,-3.4944,-3.5246,-3.5571,-3.5767,-3.6071,-3.6375,-3.6572,-3.677,-3.7121,-3.7427,-3.7733,-3.7979,-3.837,-3.8713,-3.9007,-3.9322,-3.9717,0.0,0.0,-3.7893,-3.6799,0.0,-3.4621,-3.3527,-3.2362,-3.1275,-3.0102,-2.888,-2.7537,-2.603,-2.4249,-2.2381,-2.0522,-1.8856,-1.751,0.0,0.0,0.0,0.0,0.0,0.0,0.0,0.0,0.0,0.0,0.0,0.0,0.0,-0.6745,-0.6428,-0.6097,-0.5748,-0.5385,-0.5121,-0.4722,-0.4901,-0.5557,-0.7254,-0.9148,-1.0893,-1.2861,-1.469,-1.6494,-1.8414,-2.0315,-2.2229,-2.4005,-2.5933,-2.775,-2.9692,-3.0417,-3.1037,-3.176,-3.2423,-3.3167,-3.3808,-3.445,-3.5091,-3.5779,-3.6544,-3.7185,-3.7874,-3.8538,-3.8859,-3.9007,-3.8958,-3.8835,-3.8736,-3.8661,-3.8661,-3.8562,-3.8462,-3.8363,-3.8312,-3.8212,-3.8236,-3.816,-3.7982,-3.7804,-3.7577,-3.735,-3.7145,-3.6861,-3.6655,-3.6448,-3.624,-3.6009,-3.58,-3.5613,-3.5342,-3.5409,-3.5476,-3.565,-3.5974,-3.6194,-3.652,-3.6717,-3.7021,-3.7243,-3.7571,-3.7923,-3.8146,-3.8453,-3.8807,-3.9115,-3.9433,-3.9725,-4.0015,-4.0383,-3.7076,-3.5936,-3.4808,-3.3567,-3.2301,-3.1148,-2.9917,-2.8713,-2.7485,-2.6151,-2.4815,-2.334,-2.1702,-1.9805,-1.786,-1.6196,-1.5315,0.0,0.0,0.0,0.0,0.0,0.0,0.0,0.0,0.0,0.0,0.0,0.0,0.0,-0.6992,-0.6913,-0.6705,-0.6602,-0.6491,-0.6372,-0.6245,-0.5991,-0.6302,-0.7073,-0.8733,-1.0601,-1.2317,-1.4142,-1.5953,-1.7744,-1.9544,-2.1333,-2.3111,-2.5005,-2.6698,-2.8535,-3.0273,-3.0994,-3.1714,-3.2331,-3.2969,-3.3708,-3.4346,-3.5007,-3.5645,-3.633,-3.6968,-3.7654,-3.8341,-3.8906,-3.9323,-3.9496,-3.9424,-3.9326,-3.9203,-3.9203,-3.913,-3.9081,-3.8983,-3.8859,-3.8884,-3.8834,-3.876,-3.8809,-3.8585,-3.8385,-3.8208,-3.8006,-3.7804,-3.7625,-3.7318,-3.7137,-3.6931,-3.6724,-3.6517,-3.6332,-3.61,-3.6087,-3.6155,-3.6374,-3.67,-3.6943,-3.7247,-3.7468,-3.7796,-3.8042,-3.8288,-3.8642,-3.8996,-3.9327,-3.9577,-3.9861,-4.0178,-4.0444,-4.0733,-4.1098,-3.4138,-3.2841,-3.1548,-3.0257,-2.8916,-2.7634,-2.6281,-2.4974,-2.3574,-2.2178,-2.0689,0.0,0.0,0.0,-1.4117,-1.3159,0.0,-1.1903,0.0,0.0,0.0,0.0,0.0,0.0,0.0,0.0,0.0,0.0,0.0,0.0,-0.6949,-0.6969,-0.7086,-0.7207,-0.7215,-0.7219,-0.7337,-0.7335,-0.7772,-0.8542,-1.029,-1.2005,-1.3705,-1.5394,-1.718,-1.885,-2.0648,-2.2329,-2.4082,-2.5756,-2.7468,-2.9184,-3.095,-3.1666,-3.228,-3.2916,-3.3629,-3.4264,-3.4899,-3.5557,-3.6239,-3.6874,-3.746,-3.8119,-3.8804,-3.9392,-3.9783,-3.9859,-3.991,-3.9787,-3.9691,-3.9691,-3.9644,-3.9597,-3.9597,-3.9499,-3.9401,-3.9353,-3.9403,-3.9329,-3.923,-3.8933,-3.8734,-3.8558,-3.8381,-3.818,-3.8001,-3.7798,-3.7618,-3.7437,-3.7231,-3.7024,-3.6817,-3.6783,-3.6876,-3.7119,-3.7445,-3.769,-3.8017,-3.824,-3.8487,-3.884,-3.9088,-3.9467,-3.974,-4.0097,-4.0324,-4.0608,-4.0899,-4.1188,-4.1579,-4.1813,-3.1047,-2.9611,-2.8201,-2.6839,-2.5425,-2.4008,-2.2531,-2.1035,-1.9519,-1.7984,0.0,0.0,0.0,0.0,0.0,0.0,-0.9578,0.0,0.0,0.0,0.0,0.0,0.0,0.0,0.0,0.0,0.0,0.0,0.0,-0.6684,-0.69,-0.7126,-0.7458,-0.7686,-0.7918,-0.8159,-0.8404,-0.8634,-0.9192,-1.0081,-1.168,-1.3369,-1.5059,-1.6722,-1.8359,-2.005,-2.1724,-2.3396,-2.4943,-2.6597,-2.8308,-2.9966,-3.1618,-3.2229,-3.2862,-3.3472,-3.4204,-3.4836,-3.5444,-3.6123,-3.673,-3.7362,-3.7922,-3.8579,-3.9261,-3.9847,-4.0262,-4.0339,-4.0295,-4.0269,-4.0173,-4.0199,-4.0154,-4.0083,-4.0083,-4.0011,-4.0011,-3.999,-3.9943,-3.9969,-3.9773,-3.9601,-3.9379,-3.9206,-3.9056,-3.8881,-3.868,-3.8454,-3.8276,-3.802,-3.7917,-3.7737,-3.7531,-3.7499,-3.7593,-3.7942,-3.8188,-3.8435,-3.8762,-3.901,-3.9259,-3.9532,-3.9806,-4.0186,-4.0437,-4.0819,-4.1071,-4.1356,-4.1646,-4.1933,-4.2219,-4.2553,-2.7836,-2.6288,-2.4688,-2.314,-2.1616,-2.0057,-1.8534,0.0,-1.5233,-1.3428,0.0,0.0,0.0,0.0,0.0,0.0,0.0,0.0,0.0,0.0,0.0,0.0,0.0,0.0,0.0,0.0,-0.5183,-0.5563,-0.6053,-0.6456,-0.6868,-0.7295,-0.7828,-0.8269,-0.8718,-0.9072,-0.9538,-1.002,-1.07,-1.1692,-1.3153,-1.4706,-1.6381,-1.8021,-1.9553,-2.1218,-2.2789,-2.4347,-2.5891,-2.7458,-2.907,-3.0695,-3.2254,-3.2883,-3.3513,-3.4142,-3.4772,-3.5377,-3.6054,-3.661,-3.7239,-3.7917,-3.85,-3.9179,-3.9764,-4.0324,-4.0737,-4.0815,-4.0772,-4.0772,-4.0703,-4.0703,-4.0634,-4.0659,-4.0615,-4.0571,-4.0571,-4.0526,-4.0577,-4.0532,-4.0337,-4.024,-4.0044,-3.9874,-3.9702,-3.9529,-3.9355,-3.9155,-3.8979,-3.8802,-3.86,-3.8421,-3.8242,-3.8211,-3.8331,-3.8554,-3.8928,-3.9177,-3.945,-3.9699,-4.0053,-4.0328,-4.0604,-4.0881,-4.1263,-4.1541,-4.1795,-4.208,-4.2368,-4.2653,-4.2937,-4.3268,-2.4365,-2.2627,-2.0859,-1.9116,-1.7499,-1.5957,0.0,0.0,0.0,0.0,0.0,0.0,0.0,0.0,0.0,0.0,0.0,0.0,0.0,0.0,0.0,0.0,0.0,0.0,0.0,-0.3655,-0.4296,-0.4958,-0.5529,-0.6229,-0.6836,-0.7462,-0.8089,-0.8729,-0.9401,-1.0073,-1.0646,-1.1367,-1.2164,-1.3252,-1.4695,-1.622,-1.7661,-1.9307,-2.0838,-2.2384,-2.3828,-2.5381,-2.6856,-2.8342,-2.984,-3.1353,-3.288,-3.3528,-3.4178,-3.4804,-3.5333,-3.5935,-3.6537,-3.7188,-3.7669,-3.837,-3.9046,-3.9679,-4.0263,-4.0821,-4.114,-4.1312,-4.1245,-4.1271,-4.1297,-4.1203,-4.1229,-4.1161,-4.1144,-4.1196,-4.1153,-4.1153,-4.111,-4.1187,-4.1021,-4.0802,-4.0731,-4.0537,-4.0341,-4.0196,-4.0024,-3.9852,-3.9653,-3.9478,-3.9278,-3.9102,-3.8949,-3.892,-3.9042,-3.929,-3.9539,-3.9916,-4.024,-4.0515,-4.0767,-4.1019,-4.1272,-4.1625,-4.1983,-4.2238,-4.2544,-4.2829,-4.3089,-4.3373,-4.3655,-4.3856,-2.061,-1.8576,-1.6701,-1.5038,-1.3466,0.0,0.0,-0.7246,-0.4628,-0.1829,0.0,0.0,0.0,0.0,0.0,0.0,0.0,0.0,0.0,0.0,0.0,0.0,0.0,0.0,0.0,-0.2587,-0.3416,-0.4259,-0.5019,-0.59,-0.6804,-0.7719,-0.8551,-0.9405,-1.0175,-1.1052,-1.1852,-1.2666,-1.3678,-1.4773,-1.6193,-1.7608,-1.9129,-2.0554,-2.1999,-2.3433,-2.4978,-2.6426,-2.7821,-2.9313,-3.0699,-3.21,-3.3541,-3.4164,-3.481,-3.536,-3.5983,-3.651,-3.7182,-3.7735,-3.8263,-3.8911,-3.9517,-4.0217,-4.0798,-4.1288,-4.1632,-4.1805,-4.1792,-4.1792,-4.1698,-4.1725,-4.1751,-4.1711,-4.167,-4.1722,-4.1749,-4.1707,-4.1733,-4.1812,-4.1648,-4.1483,-4.1317,-4.1221,-4.1028,-4.0859,-4.069,-4.0545,-4.0373,-4.0175,-4.0002,-3.9827,-3.9627,-3.9626,-3.9724,-4.0048,-4.0324,-4.0575,-4.0901,-4.1281,-4.1534,-4.1735,-4.2014,-4.2423,-4.2729,-4.3011,-4.3345,-4.3655,-4.3785,-4.4171,-4.4399,-4.4623,-1.6542,-1.4335,-1.2993,-1.1468,-0.9538,0.0,-0.454,-0.1719,0.1248,0.0,0.0,0.0,0.0,0.0,0.0,0.0,0.0,0.0,0.0,0.0,0.0,0.0,0.0,0.0,0.0,-0.1502,-0.2521,-0.3556,-0.4607,-0.5676,-0.6766,-0.7775,-0.8904,-0.9953,-1.1027,-1.2011,-1.302,-1.4046,-1.5165,-1.6479,-1.7781,-1.9058,-2.0469,-2.1884,-2.3217,-2.4646,-2.5981,-2.7347,-2.8729,-3.0148,-3.1467,-3.2881,-3.4194,-3.4813,-3.5361,-3.6005,-3.6554,-3.7198,-3.7749,-3.83,-3.8852,-3.943,-4.0009,-4.0681,-4.1261,-4.1776,-4.2094,-4.2293,-4.2255,-4.2282,-4.2217,-4.2243,-4.2297,-4.2324,-4.2284,-4.2244,-4.2298,-4.2351,-4.2378,-4.2364,-4.2296,-4.216,-4.197,-4.1805,-4.1614,-4.1517,-4.135,-4.1208,-4.0941,-4.077,-4.0723,-4.055,-4.0351,-4.0327,-4.0453,-4.0804,-4.1081,-4.1334,-4.1663,-4.1942,-4.2222,-4.2528,-4.2834,-4.3168,-4.345,-4.3759,-4.4095,-4.4432,-4.456,-4.4815,-4.5142,-4.5365,-1.3332,-1.1744,-0.9902,-0.7758,-0.5278,0.0,0.0619,0.3702,0.6798,0.0,0.0,0.0,0.0,0.0,0.0,0.0,0.0,0.0,0.0,0.0,0.0,0.0,0.0,0.0,0.0,-0.0403,-0.162,-0.295,-0.4192,-0.5453,-0.6734,-0.7927,-0.9251,-1.0488,-1.1758,-1.3046,-1.4257,-1.5496,-1.6716,-1.8029,-1.921,-2.0487,-2.1887,-2.3189,-2.4399,-2.5741,-2.7076,-2.8327,-2.9637,-3.0967,-3.232,-3.3628,-3.4766,-3.5477,-3.6024,-3.6571,-3.7143,-3.7692,-3.8309,-3.8884,-3.9342,-3.9945,-4.0523,-4.1166,-4.1654,-4.2234,-4.2578,-4.275,-4.2714,-4.2741,-4.2704,-4.2785,-4.2812,-4.2866,-4.2893,-4.2855,-4.2817,-4.2871,-4.2925,-4.3005,-4.2966,-4.2806,-4.2644,-4.2482,-4.2292,-4.2102,-4.1936,-4.1866,-4.1629,-4.1486,-4.1316,-4.1146,-4.1073,-4.105,-4.1203,-4.1558,-4.1762,-4.2041,-4.2321,-4.2602,-4.2935,-4.3268,-4.3577,-4.3887,-4.4197,-4.4482,-4.4846,-4.508,-4.5309,-4.5536,-4.5759,-4.6133,-1.1097,-0.8906,-0.6373,-0.3667,0.0,0.0,0.5599,0.8713,0.0,0.0,0.0,0.0,0.0,0.0,0.0,0.0,0.0,0.0,0.0,0.0,0.0,0.0,0.0,0.0,0.0,0.0,0.0,-0.2244,-0.3784,-0.524,-0.6707,-0.8197,-0.9598,-1.1018,-1.2479,-1.3968,-1.5382,-1.6814,-1.8236,-1.9536,-2.0722,-2.2004,-2.3191,-2.4389,-2.5637,-2.6864,-2.8106,-2.9268,-3.0589,-3.1815,-3.3065,-3.4293,-3.5451,-3.6065,-3.661,-3.7223,-3.7677,-3.8249,-3.8889,-3.9462,-4.0011,-4.0495,-4.1044,-4.1621,-4.2135,-4.274,-4.3085,-4.314,-4.3194,-4.3249,-4.3241,-4.3268,-4.3323,-4.3378,-4.3432,-4.346,-4.3423,-4.3505,-4.3495,-4.355,-4.3512,-4.3446,-4.3287,-4.3128,-4.2993,-4.2805,-4.2641,-4.2477,-4.2312,-4.2172,-4.2005,-4.1862,-4.1718,-4.1822,-4.1852,-4.2183,-4.2515,-4.2822,-4.303,-4.3338,-4.3673,-4.3983,-4.4268,-4.4605,-4.4943,-4.5154,-4.5494,-4.5831,-4.6085,-4.6309,-4.6503,-4.6721,-0.8279,0.0,0.0,0.0,0.0,0.0,1.0155,1.3366,1.6617,0.0,0.0,0.0,0.0,0.0,0.0,0.0,0.0,0.0,0.0,0.0,0.0,0.0,0.0,0.0,0.0,0.0,0.0,0.0,-0.3378,-0.5023,-0.668,-0.8458,-1.004,-1.1646,-1.3293,-1.4966,-1.6577,-1.8191,-1.9717,-2.1121,-2.23,-2.3372,-2.4574,-2.5674,-2.6926,-2.8079,-2.9135,-3.0309,-3.1526,-3.265,-3.3799,-3.4951,-3.6103,-3.6647,-3.7257,-3.7776,-3.832,-3.8799,-3.9371,-3.9944,-4.0491,-4.1038,-4.1522,-4.2098,-4.2611,-4.3216,-4.356,-4.3643,-4.3671,-4.3754,-4.3747,-4.3775,-4.383,-4.3913,-4.3941,-4.3996,-4.3933,-4.4044,-4.4126,-4.4209,-4.4145,-4.4017,-4.386,-4.3795,-4.357,-4.341,-4.3343,-4.3086,-4.3018,-4.2854,-4.2715,-4.2575,-4.246,-4.2467,-4.2598,-4.2932,-4.3167,-4.3502,-4.3838,-4.4175,-4.4513,-4.4798,-4.4984,-4.535,-4.5717,-4.593,-4.6298,-4.661,-4.676,-4.6955,-4.7147,-4.7363,0.0,0.0,0.0,0.4447,0.7814,1.1102,1.4454,1.7768,2.1071,2.4385,0.0,0.0,0.0,0.0,0.0,0.0,0.0,0.0,0.0,0.0,0.0,0.0,0.0,0.0,0.0,0.0,0.0,0.0,0.0,-0.4811,-0.6654,-0.8621,-1.0482,-1.2371,-1.4097,-1.5946,-1.7719,-1.9563,-2.1192,-2.2683,-2.3758,-2.4848,-2.5916,-2.7018,-2.8063,-2.915,-3.0218,-3.1309,-3.2424,-3.3564,-3.4638,-3.5692,-3.6748,-3.7289,-3.7831,-3.8399,-3.8916,-3.9433,-3.994,-4.0484,-4.094,-4.1512,-4.2023,-4.2597,-4.3111,-4.3714,-4.403,-4.4114,-4.4142,-4.4254,-4.4249,-4.4305,-4.4361,-4.4417,-4.4473,-4.4529,-4.4585,-4.4668,-4.4752,-4.4746,-4.4711,-4.4557,-4.4549,-4.4393,-4.4209,-4.4051,-4.3892,-4.3787,-4.3652,-4.3612,-4.3422,-4.3285,-4.3146,-4.3182,-4.3244,-4.3606,-4.3916,-4.4253,-4.4493,-4.4858,-4.5198,-4.5511,-4.5752,-4.6121,-4.6491,-4.6834,-4.7104,-4.7341,-4.7537,-4.7757,-4.7946,-4.816,-0.3124,0.0061,0.3267,0.663,1.0001,1.3341,1.6725,2.0102,2.3465,2.6801,0.0,0.0,0.0,0.0,0.0,0.0,0.0,0.0,0.0,0.0,0.0,0.0,0.0,0.0,0.0,0.0,0.0,0.0,0.0,0.0,-0.66,-0.8731,-1.0673,-1.2741,-1.4636,-1.6564,-1.8626,-2.0549,-2.2276,-2.3785,-2.488,-2.5859,-2.6835,-2.785,-2.8906,-2.9986,-3.0974,-3.208,-3.3096,-3.4139,-3.5208,-3.6191,-3.7268,-3.7807,-3.8373,-3.8913,-3.9339,-3.988,-4.0449,-4.0929,-4.1384,-4.1982,-4.2466,-4.3066,-4.3579,-4.4065,-4.4409,-4.4581,-4.4637,-4.4634,-4.4719,-4.4776,-4.4832,-4.4888,-4.4973,-4.5146,-4.5231,-4.5259,-4.5344,-4.5396,-4.5335,-4.5184,-4.515,-4.4997,-4.4843,-4.4687,-4.4531,-4.4428,-4.4297,-4.4258,-4.407,-4.3936,-4.38,-4.3839,-4.3904,-4.4269,-4.4634,-4.4849,-4.5189,-4.5557,-4.5899,-4.617,-4.6513,-4.6784,-4.7156,-4.7529,-4.7801,-4.8039,-4.8259,-4.8448,-4.8606,-4.8817,-0.2074,0.1148,0.4357,0.7673,1.1046,1.4374,1.7788,2.1236,2.4493,2.783,0.0,0.0,0.0,0.0,0.0,0.0,0.0,0.0,0.0,0.0,0.0,0.0,0.0,0.0,0.0,0.0,0.0,0.0,0.0,-0.4425,-0.6519,-0.871,-1.083,-1.2872,-1.4938,-1.7034,-1.9196,-2.1211,-2.2938,-2.4431,-2.5531,-2.6537,-2.7542,-2.8568,-2.9502,-3.0503,-3.1508,-3.2539,-3.355,-3.4588,-3.5653,-3.6682,-3.7627,-3.8229,-3.8767,-3.9217,-3.9756,-4.0269,-4.0775,-4.1255,-4.1796,-4.2333,-4.293,-4.3442,-4.3955,-4.4413,-4.4728,-4.4928,-4.5013,-4.507,-4.5242,-4.5328,-4.5385,-4.5471,-4.5556,-4.5642,-4.5728,-4.5813,-4.5899,-4.6044,-4.5925,-4.5865,-4.5627,-4.5504,-4.5498,-4.5346,-4.5164,-4.5101,-4.4973,-4.4816,-4.4659,-4.4527,-4.4422,-4.4464,-4.4627,-4.4899,-4.5267,-4.5608,-4.5854,-4.6197,-4.6568,-4.6814,-4.7187,-4.7462,-4.7764,-4.8139,-4.8542,-4.878,-4.8996,-4.9181,-4.9362,-4.9511,-0.2957,0.0064,0.314,0.6288,0.9448,1.2678,1.5958,1.9216,2.2436,2.5633,0.0,0.0,0.0,0.0,0.0,0.0,0.0,0.0,0.0,0.0,0.0,0.0,0.0,0.0,0.0,0.0,0.0,0.0,-0.2074,-0.4338,-0.6494,-0.865,-1.0741,-1.2844,-1.4888,-1.698,-1.9113,-2.112,-2.2921,-2.4416,-2.5522,-2.6557,-2.7573,-2.8589,-2.9537,-3.0554,-3.1598,-3.2624,-3.3653,-3.4686,-3.5682,-3.6709,-3.774,-3.8276,-3.8812,-3.9376,-3.9913,-4.045,-4.0955,-4.1521,-4.2029,-4.2597,-4.3221,-4.3732,-4.4244,-4.4814,-4.51,-4.5271,-4.5443,-4.5501,-4.5587,-4.5759,-4.5845,-4.5903,-4.5989,-4.6162,-4.6249,-4.6335,-4.6393,-4.6508,-4.645,-4.6421,-4.6275,-4.6127,-4.5979,-4.5947,-4.5796,-4.5645,-4.5583,-4.543,-4.5276,-4.5176,-4.5074,-4.5092,-4.523,-4.5572,-4.5821,-4.6192,-4.6442,-4.6814,-4.7215,-4.7466,-4.7813,-4.8091,-4.8398,-4.8775,-4.9054,-4.9391,-4.9657,-4.9806,-4.9981,-5.0152,-0.3995,-0.1091,0.1863,0.4783,0.7799,1.0852,1.3941,1.7049,2.0225,0.0,0.0,0.0,0.0,0.0,0.0,0.0,0.0,0.0,0.0,0.0,0.0,0.0,0.0,0.0,0.0,0.0,0.0,0.0,-0.1933,-0.4147,-0.6363,-0.8483,-1.0621,-1.2705,-1.4832,-1.6892,-1.9009,-2.1007,-2.2804,-2.4301,-2.5434,-2.6458,-2.7485,-2.8514,-2.9477,-3.0509,-3.1548,-3.2592,-3.3753,-3.4717,-3.5798,-3.6821,-3.7814,-3.8409,-3.8943,-3.9531,-4.0066,-4.0629,-4.1134,-4.1726,-4.2318,-4.2912,-4.3421,-4.4017,-4.4557,-4.5125,-4.544,-4.5725,-4.5754,-4.5926,-4.6013,-4.6184,-4.6272,-4.633,-4.6417,-4.6589,-4.6791,-4.6849,-4.6937,-4.711,-4.7083,-4.697,-4.6913,-4.674,-4.6566,-4.6536,-4.6389,-4.6241,-4.6092,-4.6003,-4.5881,-4.5758,-4.5661,-4.571,-4.585,-4.6166,-4.6418,-4.6763,-4.7137,-4.7419,-4.7823,-4.8077,-4.8425,-4.8708,-4.9115,-4.937,-4.9653,-4.9988,-5.0248,-5.0419,-5.0586,-5.075,-0.4894,-0.2203,0.0532,0.3294,0.6118,0.9017,1.2002,1.5003,1.7952,2.0941,2.3883,0.0,0.0,0.0,0.0,0.0,0.0,0.0,0.0,0.0,0.0,0.0,0.0,0.0,0.0,0.0,0.0,0.0,-0.1795,-0.4058,-0.6221,-0.8402,-1.0506,-1.2551,-1.4745,-1.6798,-1.8915,-2.0904,-2.2699,-2.4309,-2.534,-2.6376,-2.7415,-2.8457,-2.9546,-3.0551,-3.1583,-3.2668,-3.3736,-3.4808,-3.5823,-3.6894,-3.7972,-3.8505,-3.9038,-3.9684,-4.0244,-4.0774,-4.1336,-4.1927,-4.2491,-4.3111,-4.3761,-4.4326,-4.4837,-4.5319,-4.5832,-4.6061,-4.6203,-4.6262,-4.6433,-4.6521,-4.6692,-4.6835,-4.6923,-4.7124,-4.7242,-4.7385,-4.7473,-4.7675,-4.765,-4.7511,-4.7455,-4.7314,-4.72,-4.7057,-4.6971,-4.6855,-4.6681,-4.6594,-4.6475,-4.6356,-4.6324,-4.6348,-4.6429,-4.6656,-4.7031,-4.7406,-4.7754,-4.804,-4.8297,-4.8675,-4.8961,-4.9341,-4.9627,-4.9951,-5.0238,-5.06,-5.0854,-5.1047,-5.1208,-5.1424,-0.5908,-0.3347,-0.0734,0.1846,0.4507,0.7272,1.0088,1.2879,1.5718,1.8572,2.139,0.0,0.0,0.0,0.0,0.0,0.0,0.0,0.0,0.0,0.0,0.0,0.0,0.0,0.0,0.0,0.0,0.0,-0.166,-0.3873,-0.6091,-0.8318,-1.0388,-1.2495,-1.4573,-1.6711,-1.8798,-2.0796,-2.2625,-2.4221,-2.5352,-2.6378,-2.7429,-2.8506,-2.95,-3.061,-3.166,-3.2653,-3.374,-3.4808,-3.5957,-3.7026,-3.8015,-3.8659,-3.9216,-3.9775,-4.0361,-4.0948,-4.1537,-4.2126,-4.2716,-4.3336,-4.3956,-4.4549,-4.5171,-4.5652,-4.6135,-4.6394,-4.6565,-4.6706,-4.6877,-4.6995,-4.7137,-4.7279,-4.745,-4.754,-4.7771,-4.7913,-4.8085,-4.8204,-4.8181,-4.8128,-4.7991,-4.7937,-4.7823,-4.7654,-4.7514,-4.7429,-4.7287,-4.723,-4.7087,-4.6942,-4.6884,-4.694,-4.7025,-4.7344,-4.7632,-4.801,-4.8359,-4.862,-4.8909,-4.9289,-4.9579,-4.9961,-5.0222,-5.0576,-5.0867,-5.1228,-5.1476,-5.1663,-5.1847,-5.2057,-0.6957,-0.4463,-0.2016,0.0478,0.3002,0.5594,0.8185,1.0861,1.3511,1.6177,1.8935,2.0109,0.0,0.0,0.0,0.0,0.0,0.0,0.0,0.0,0.0,0.0,0.0,0.0,0.0,0.0,0.0,0.0,0.0,-0.3693,-0.5954,-0.8147,-1.0266,-1.2354,-1.4498,-1.6604,-1.8692,-2.07,-2.2618,-2.4129,-2.5269,-2.6395,-2.7393,-2.8463,-2.9561,-3.0577,-3.1646,-3.2746,-3.3829,-3.4857,-3.5977,-3.7043,-3.8056,-3.8724,-3.9307,-3.9976,-4.0534,-4.112,-4.1707,-4.2407,-4.3024,-4.3613,-4.4203,-4.488,-4.5501,-4.6011,-4.6493,-4.6723,-4.6893,-4.7146,-4.7316,-4.7436,-4.7577,-4.7718,-4.7859,-4.806,-4.8181,-4.8433,-4.8605,-4.8806,-4.8786,-4.8734,-4.8571,-4.8519,-4.8413,-4.8217,-4.8134,-4.7996,-4.7912,-4.7827,-4.7687,-4.7546,-4.749,-4.755,-4.7638,-4.7958,-4.8221,-4.8659,-4.8864,-4.9216,-4.948,-4.9921,-5.0304,-5.0539,-5.0804,-5.1189,-5.1513,-5.1843,-5.2115,-5.2296,-5.2473,-5.2678,-0.7994,-0.5613,-0.3262,-0.089,0.1459,0.3895,0.6375,0.883,1.1373,1.3913,1.6465,1.761,1.8098,0.0,0.0,0.0,0.0,0.0,0.0,0.0,0.0,0.0,0.0,0.0,0.0,0.0,0.0,0.0,0.0,-0.3608,-0.5818,-0.805,-1.014,-1.2275,-1.4404,-1.6505,-1.8596,-2.0687,-2.2515,-2.4138,-2.5269,-2.6319,-2.7375,-2.8459,-2.9508,-3.0628,-3.1691,-3.2835,-3.3828,-3.4938,-3.602,-3.711,-3.8234,-3.8873,-3.9454,-4.0121,-4.0704,-4.1317,-4.2014,-4.2628,-4.3216,-4.3832,-4.4503,-4.515,-4.5799,-4.6338,-4.6818,-4.7129,-4.7299,-4.747,-4.767,-4.7841,-4.8012,-4.8182,-4.8353,-4.8524,-4.8725,-4.8976,-4.9147,-4.938,-4.933,-4.9281,-4.92,-4.9039,-4.8958,-4.8825,-4.8691,-4.8608,-4.8443,-4.839,-4.8306,-4.8169,-4.8114,-4.8148,-4.824,-4.8562,-4.8943,-4.9239,-4.9506,-4.983,-5.0214,-5.0481,-5.0778,-5.1164,-5.1461,-5.1848,-5.2117,-5.2445,-5.2712,-5.2916,-5.3118,-5.3347,-0.8952,-0.6759,-0.4543,-0.2275,-0.0,0.2246,0.4494,0.6835,0.9212,1.1557,1.4049,1.5182,1.57,1.5047,0.0,0.0,0.0,0.0,0.0,0.0,0.0,0.0,0.0,0.0,0.0,0.0,0.0,0.0,0.0,0.0,-0.5773,-0.787,-1.0095,-1.2199,-1.4219,-1.6399,-1.858,-2.0665,-2.2494,0.0,-2.5283,-2.6304,-2.7373,-2.8385,-2.9451,-3.0588,-3.178,-3.2835,-3.3934,-3.4981,-3.6146,-3.7286,-3.8324,-3.8961,-3.9625,-4.0206,-4.09,-4.1566,-4.2206,-4.282,-4.3434,-4.4131,-4.4748,-4.5365,-4.6042,-4.669,-4.714,-4.748,-4.77,-4.793,-4.8021,-4.824,-4.8441,-4.8721,-4.8891,-4.9062,-4.9263,-4.9512,-4.9714,-4.9915,-4.9868,-4.9819,-4.974,-4.9661,-4.9471,-4.9422,-4.9322,-4.9241,-4.9109,-4.8997,-4.8915,-4.8781,-4.8728,-4.8735,-4.8831,-4.9184,-4.9538,-4.9922,-5.0192,-5.0462,-5.0848,-5.1088,-5.1445,-5.1777,-5.2108,-5.2467,-5.2678,-5.3034,-5.3357,-5.3555,-5.3751,-5.3944,-0.9967,-0.789,-0.5798,-0.3688,-0.153,0.0559,0.2679,0.4925,0.7097,0.9357,1.165,1.2757,1.339,1.2852,1.2318,0.0,0.0,0.0,0.0,0.0,0.0,0.0,0.0,0.0,0.0,0.0,0.0,0.0,0.0,0.0,0.0,-0.7698,-0.9886,-1.2056,-1.4113,-1.6258,-1.8439,-2.0533,-2.2484,-2.4074,-2.5206,-2.6261,-2.7324,-2.846,-2.9522,-3.0677,-3.178,-3.2892,-3.4037,-3.5132,-3.6211,-3.7349,-3.8497,-3.9132,-3.9821,-4.0456,-4.1121,-4.1785,-4.2396,-4.3118,-4.3732,-4.4375,-4.5071,-4.5686,-4.6362,-4.707,-4.7549,-4.7828,-4.7967,-4.8277,-4.8447,-4.8634,-4.8943,-4.9144,-4.9314,-4.9592,-4.9793,-5.0072,-5.0273,-5.0475,-5.0475,-5.0397,-5.0273,-5.0195,-5.0148,-4.996,-4.9881,-4.9863,-4.9704,-4.9624,-4.9574,-4.9494,-4.9362,-4.9341,-4.9493,-4.9765,-5.012,-5.0423,-5.0696,-5.1083,-5.1471,-5.1714,-5.2073,-5.2377,-5.2767,-5.3011,-5.3317,-5.3672,-5.3874,-5.4213,-5.4403,-5.459,-1.1029,-0.9069,-0.6968,-0.4996,-0.3075,-0.1117,0.0909,0.2949,0.5026,0.7157,0.9293,1.0452,1.1023,1.0721,1.0437,1.0156,0.0,0.0,0.0,0.0,0.0,0.0,0.0,0.0,0.0,0.0,0.0,0.0,0.0,0.0,0.0,-0.7599,-0.984,-1.1979,-1.4096,-1.6156,-1.8325,-2.0515,-2.2384,-2.4065,-2.5209,-2.6278,-2.7377,-2.8508,-2.9565,-3.0762,-3.1861,-3.2969,-3.4078,-3.5281,-3.6357,-3.7521,-3.8584,-3.9244,-3.9932,-4.0649,-4.1311,-4.2002,-4.2641,-4.3333,-4.4054,-4.4697,-4.534,-4.6034,-4.671,-4.7386,-4.7864,-4.8172,-4.8389,-4.862,-4.8898,-4.9114,-4.9392,-4.9592,-4.987,-5.0039,-5.0316,-5.0549,-5.0826,-5.1103,-5.1027,-5.0951,-5.0875,-5.0722,-5.0676,-5.0568,-5.0491,-5.0444,-5.0319,-5.0271,-5.0162,-5.0004,-4.9955,-4.9967,-5.009,-5.0365,-5.0722,-5.1028,-5.1417,-5.1693,-5.2052,-5.2329,-5.2719,-5.2996,-5.3274,-5.3604,-5.3997,-5.4267,-5.4496,-5.4829,-5.5075,-5.5257,-1.207,-1.0166,-0.8252,-0.6414,-0.4507,-0.2657,-0.0835,0.1042,0.2987,0.4886,0.6965,0.8033,0.8758,0.8606,0.8532,0.8464,0.823,0.0,0.0,0.0,0.0,0.0,0.0,0.0,0.0,0.0,0.0,0.0,0.0,0.0,0.0,-0.7497,-0.9697,-1.1896,-1.4002,-1.6143,-1.832,-2.0426,-2.2382,-2.405,-2.5144,-2.6228,-2.7426,-2.8551,-2.9709,-3.0737,-3.1881,-3.3011,-3.42,-3.5343,-3.6553,-3.7607,-3.8669,-3.9437,-4.0124,-4.0811,-4.1499,-4.2217,-4.2855,-4.3545,-4.4265,-4.5015,-4.5687,-4.6409,-4.7054,-4.7621,-4.8098,-4.8483,-4.8729,-4.9037,-4.9314,-4.959,-4.9866,-5.0067,-5.0343,-5.0619,-5.0863,-5.1096,-5.1371,-5.1647,-5.1679,-5.1498,-5.1498,-5.1348,-5.1273,-5.1197,-5.1121,-5.0969,-5.0924,-5.0878,-5.077,-5.0615,-5.0599,-5.0661,-5.0707,-5.0954,-5.1312,-5.1653,-5.2012,-5.2323,-5.2571,-5.2932,-5.3274,-5.3604,-5.3884,-5.4216,-5.461,-5.488,-5.5075,-5.5383,-5.5737,-5.5944,-1.3086,-1.1313,-0.9532,-0.7755,-0.5992,-0.4212,-0.2499,-0.0756,0.1025,0.2795,0.4641,0.577,0.6502,0.6548,0.668,0.6672,0.6726,0.678,0.0,0.0,0.0,0.0,0.0,0.0,0.0,0.0,0.0,0.0,0.0,0.0,0.0,-0.7407,-0.9639,-1.1794,-1.3888,-1.6027,-1.8211,-2.0412,-2.2291,-2.3989,-2.5179,-2.6278,-2.7492,-2.8554,-2.9685,-3.0838,-3.198,-3.3106,-3.4237,-3.5404,-3.6612,-3.7774,-3.8862,-3.9546,-4.0232,-4.1027,-4.1714,-4.2429,-4.3066,-4.3784,-4.4532,-4.5281,-4.6031,-4.6674,-4.7425,-4.8038,-4.8545,-4.8883,-4.9235,-4.9511,-4.9786,-5.003,-5.023,-5.0506,-5.0781,-5.1055,-5.1435,-5.1636,-5.1942,-5.2216,-5.2216,-5.2175,-5.2101,-5.2028,-5.1922,-5.1774,-5.1667,-5.1593,-5.1518,-5.143,-5.1323,-5.1247,-5.1171,-5.1219,-5.1344,-5.1641,-5.1923,-5.2314,-5.2596,-5.291,-5.3271,-5.3554,-5.3917,-5.42,-5.4483,-5.4878,-5.5211,-5.5513,-5.5705,-5.6008,-5.6355,-5.6589,-1.4134,-1.251,-1.0791,-0.9152,-0.7516,-0.5803,-0.4168,-0.26,-0.0945,0.0736,0.2392,0.3526,0.4275,0.4574,0.4815,0.4991,0.5183,0.5439,0.57,0.0,0.0,0.0,0.0,0.0,0.0,0.0,0.0,0.0,0.0,0.0,0.0,-0.7305,-0.9497,-1.1697,-1.3768,-1.5983,-1.8096,-2.0295,-2.2277,-2.4025,-2.5208,-2.6404,-2.7577,-2.8636,-2.9785,-3.0937,-3.21,-3.3168,-3.4404,-3.5545,-3.6696,-3.7856,-3.9081,-3.9736,-4.0447,-4.1241,-4.1954,-4.2669,-4.3355,-4.41,-4.4847,-4.5624,-4.6295,-4.7013,-4.7686,-4.8406,-4.888,-4.9324,-4.9661,-4.9905,-5.0148,-5.0465,-5.0739,-5.0971,-5.1318,-5.1591,-5.1928,-5.2233,-5.2505,-5.2778,-5.281,-5.281,-5.2698,-5.2594,-5.2489,-5.2385,-5.2312,-5.2238,-5.2165,-5.2017,-5.1943,-5.1869,-5.1794,-5.1814,-5.1972,-5.2301,-5.2554,-5.2915,-5.32,-5.3486,-5.3912,-5.4166,-5.4529,-5.4784,-5.518,-5.553,-5.5753,-5.6102,-5.6355,-5.6621,-5.6994,-5.7222,-1.5214,-1.3656,-1.2027,-1.0526,-0.9019,-0.7439,-0.5943,-0.4454,-0.2884,-0.1318,0.0195,0.1227,0.2066,0.2536,0.2947,0.3302,0.3729,0.4167,0.4618,0.5084,0.0,0.0,0.0,0.0,0.0,0.0,0.0,0.0,0.0,0.0,-0.496,-0.7183,-0.9415,-1.1593,-1.3731,-1.587,-1.8131,-2.0269,-2.2295,-2.3997,-2.5254,-2.6387,-2.7555,-2.8736,-2.985,-3.1,-3.2162,-3.3334,-3.4569,-3.5762,-3.6886,-3.8046,-3.9242,-3.9951,-4.0633,-4.1452,-4.2164,-4.2877,-4.367,-4.4335,-4.508,-4.5796,-4.6573,-4.7274,-4.7991,-4.8708,-4.9243,-4.9686,-4.9992,-5.0308,-5.0581,-5.0854,-5.12,-5.1472,-5.1776,-5.2184,-5.252,-5.2791,-5.3062,-5.3365,-5.3468,-5.3398,-5.3295,-5.3224,-5.3153,-5.305,-5.2946,-5.2874,-5.273,-5.2658,-5.2585,-5.2553,-5.2376,-5.2439,-5.2599,-5.2919,-5.3175,-5.3473,-5.3793,-5.4189,-5.4477,-5.4766,-5.513,-5.5419,-5.5785,-5.6106,-5.6396,-5.6698,-5.6994,-5.7255,-5.7513,-5.7803,-1.6403,-1.4925,-1.3436,-1.2072,-1.0628,-0.9251,-0.7812,-0.644,-0.5003,-0.3581,-0.2169,-0.1134,-0.0251,0.0378,0.0949,0.1466,0.205,0.2584,0.3196,0.0,0.4468,0.0,0.0,0.0,0.0,0.0,0.0,0.0,0.0,0.0,-0.5102,-0.7336,-0.9522,-1.1688,-1.3831,-1.6049,-1.8248,-2.0446,-2.2386,-2.416,-2.5374,-2.6603,-2.7711,-2.8913,-3.0127,-3.13,-3.246,-3.3526,-3.4785,-3.6004,-3.7127,-3.8313,-3.9508,-4.0187,-4.0895,-4.174,-4.2451,-4.3162,-4.3981,-4.4693,-4.5405,-4.6102,-4.6877,-4.7653,-4.8398,-4.9143,-4.9678,-5.0119,-5.0464,-5.0705,-5.0945,-5.1352,-5.1624,-5.1965,-5.2338,-5.2673,-5.3008,-5.331,-5.3648,-5.395,-5.4015,-5.4015,-5.3881,-5.3812,-5.3775,-5.364,-5.3538,-5.3435,-5.3365,-5.3224,-5.3224,-5.3121,-5.2985,-5.3011,-5.3172,-5.3463,-5.3793,-5.4052,-5.4416,-5.4739,-5.5063,-5.5396,-5.5688,-5.6054,-5.6346,-5.6638,-5.6962,-5.7341,-5.763,-5.7918,-5.8171,-5.8487,-1.7625,-1.6308,-1.5018,-1.3653,-1.2352,-1.1017,-0.9704,-0.8388,-0.7197,-0.5957,-0.4662,-0.3589,-0.2632,-0.1896,-0.1164,-0.043,0.0246,0.0929,0.1623,0.2392,0.3187,0.3998,0.0,0.0,0.0,0.0,0.0,0.0,0.0,0.0,-0.5414,-0.7596,-0.9746,-1.1905,-1.4073,-1.63,-1.8461,-2.0688,-2.2663,-2.441,-2.5663,-2.681,-2.7963,-2.9239,-3.0398,-3.1569,-3.2753,-3.3843,-3.5023,-3.6188,-3.7336,-3.8548,-3.972,-4.0447,-4.1153,-4.1967,-4.2704,-4.352,-4.4259,-4.4999,-4.5754,-4.648,-4.7253,-4.8069,-4.8799,-4.9573,-5.018,-5.0587,-5.0858,-5.1136,-5.1406,-5.1778,-5.215,-5.2483,-5.2788,-5.3122,-5.349,-5.3823,-5.4223,-5.4523,-5.4656,-5.4556,-5.4423,-5.4355,-5.4321,-5.4187,-5.4053,-5.3952,-5.3884,-5.3815,-5.3714,-5.3612,-5.351,-5.3608,-5.3803,-5.4064,-5.4358,-5.4723,-5.4984,-5.5245,-5.5676,-5.5938,-5.62,-5.6567,-5.6967,-5.7262,-5.759,-5.786,-5.8177,-5.846,-5.8774,-5.9156,-1.9396,-1.8267,-1.7059,-1.5831,-1.4673,-1.3554,-1.2391,-1.1169,-0.9998,-0.89,-0.7751,-0.6788,-0.584,-0.4988,-0.4206,-0.3426,-0.2653,-0.1886,-0.1066,-0.0297,0.0538,0.0,0.0,0.0,0.0,0.0,0.0,0.0,0.0,0.0,-0.6931,-0.9016,-1.1063,-1.3114,-1.5243,-1.7373,-1.9502,-2.1608,-2.3532,-2.5248,-2.6521,-2.7613,-2.8819,-2.9938,-3.1095,-3.2214,0.0,-3.4537,-3.569,-3.6804,-3.7978,-3.9112,-4.0256,-4.1033,-4.184,-4.2542,-4.335,-4.4053,-4.4757,-4.5491,-4.6299,-4.7065,-4.7831,-4.8526,-4.9293,-5.0061,-5.063,-5.1064,-5.1433,-5.1701,-5.2036,-5.2335,-5.2669,-5.3001,-5.3365,-5.363,-5.396,-5.4322,-5.4683,-5.5012,-5.511,-5.5012,-5.4914,-5.4816,-5.4752,-5.4653,-5.4555,-5.4456,-5.4357,-5.4192,-5.4192,-5.4093,-5.3993,-5.4025,-5.419,-5.4455,-5.4819,-5.5185,-5.5381,-5.5747,-5.6078,-5.6412,-5.6677,-5.7044,-5.7376,-5.7741,-5.8006,-5.8346,-5.8655,-5.8963,-5.9302,-5.9607,-2.1217,-2.0179,-1.9163,-1.8078,-1.7057,-1.6062,-1.5028,-1.396,-1.2911,-1.1884,-1.091,-0.9954,-0.9037,-0.8151,-0.7265,-0.6411,-0.5566,-0.469,-0.3833,-0.2927,-0.2082,-0.1131,0.0,0.0,0.0,0.0,0.0,0.0,0.0,-0.6509,-0.8486,-1.0486,-1.2469,-1.4463,-1.6497,-1.8537,-2.0629,-2.2701,-2.4514,-2.6185,-2.7385,-2.8503,-2.961,-3.0753,-3.1836,-3.2956,0.0,-3.523,-3.6308,-3.7499,-3.8625,-3.9684,-4.0828,-4.1628,-4.24,-4.3201,-4.3898,-4.4596,-4.5366,-4.6094,-4.6854,-4.7583,-4.8343,-4.9104,-4.9897,-5.0557,-5.1155,-5.1617,-5.2014,-5.2278,-5.264,-5.2903,-5.323,-5.3556,-5.3851,-5.4175,-5.4469,-5.4824,-5.5145,-5.5437,-5.5532,-5.5471,-5.5376,-5.528,-5.5185,-5.5089,-5.5026,-5.4964,-5.4834,-5.4737,-5.4674,-5.4577,-5.4382,-5.4482,-5.4649,-5.4917,-5.5249,-5.555,-5.5851,-5.6152,-5.6519,-5.6787,-5.7055,-5.7423,-5.7791,-5.816,-5.8462,-5.8731,-5.9067,-5.9401,-5.9734,-5.9997,-2.3091,-2.2161,-2.1244,-2.0411,-1.9519,-1.8573,-1.7684,-1.6812,-1.5858,-1.4927,-1.4112,-1.3201,-1.2275,-1.1289,-1.0297,-0.9362,-0.843,-0.7459,-0.6442,-0.5524,-0.4582,-0.3614,-0.2711,0.0,0.0,0.0,0.0,0.0,0.0,-0.8186,-1.0048,-1.2001,-1.3935,-1.5935,-1.7853,-1.9825,-2.1805,-2.3761,-2.552,-2.7106,-2.8262,-2.9407,-3.0443,-3.1587,-3.2627,-3.3749,0.0,0.0,-3.7061,-3.8151,-3.9204,-4.034,-4.1484,-4.2205,-4.297,-4.3692,-4.4456,-4.5219,-4.5942,-4.6665,-4.742,-4.8111,-4.8933,-4.9752,-5.0507,-5.1162,-5.1686,-5.2111,-5.247,-5.2794,-5.3117,-5.3409,-5.373,-5.405,-5.4375,-5.4692,-5.5008,-5.5357,-5.5646,-5.5924,-5.5993,-5.5934,-5.5841,-5.5748,-5.5655,-5.5596,-5.5502,-5.5408,-5.528,-5.5186,-5.5159,-5.5065,-5.4909,-5.4881,-5.5016,-5.5382,-5.5686,-5.6052,-5.6323,-5.6627,-5.6995,-5.7266,-5.7537,-5.7905,-5.8245,-5.8617,-5.8889,-5.9157,-5.9486,-5.9911,-6.027,-6.049,-2.4946,-2.4199,-2.3402,-2.2679,-2.1866,-2.1079,-2.0297,-1.9541,-1.8768,-1.7977,-1.7289,-1.6368,-1.5424,-1.4385,-1.3315,-1.2305,-1.1282,-1.0229,-0.9187,-0.8148,-0.7109,-0.6102,-0.5094,-0.4067,0.0,0.0,0.0,0.0,0.0,-0.9995,-1.1809,-1.3625,-1.5588,-1.7461,-1.9311,-2.1188,-2.3023,-2.4915,-2.6601,-2.8063,-2.9181,-3.0329,-3.1395,-3.2443,-3.346,-3.4542,-3.5634,-3.6679,-3.779,-3.891,-3.9867,-4.0932,-4.2075,-4.2833,-4.352,-4.4338,-4.5025,-4.5781,-4.6499,-4.7216,-4.8032,-4.8749,-4.9498,-5.0343,-5.1027,-5.1774,-5.2291,-5.2679,-5.2936,-5.3288,-5.3605,-5.3955,-5.427,-5.4583,-5.487,-5.5181,-5.5525,-5.5833,-5.6118,-5.6458,-5.6493,-5.6402,-5.6368,-5.6243,-5.6096,-5.604,-5.5983,-5.5857,-5.5765,-5.5673,-5.5581,-5.5489,-5.5338,-5.5373,-5.545,-5.5851,-5.6158,-5.6525,-5.6799,-5.7107,-5.7414,-5.7748,-5.8022,-5.8365,-5.8707,-5.9077,-5.9351,-5.9653,-6.0008,-6.0389,-6.0741,-6.1022,-2.684,0.0,-2.5548,-2.4869,-2.4253,-2.3628,0.0,-2.2328,-2.1677,-2.1096,-2.0504,-1.9564,-1.861,-1.7492,-1.6419,-1.525,-1.4198,-1.3093,-1.195,-1.0872,-0.9777,-0.859,-0.751,-0.6417,-0.5297,0.0,0.0,0.0,0.0,-1.2014,-1.376,-1.5463,-1.7268,-1.9089,-2.0801,-2.2531,-2.4398,-2.6064,-2.7588,-2.9037,-3.0162,-3.1247,-3.2276,-3.3355,-3.4319,-3.5405,-3.6433,-3.744,-3.8485,-3.9606,-4.0607,-4.1644,-4.2679,-4.34,-4.415,-4.5024,-4.5706,-4.6421,-4.7101,-4.7845,-4.8589,-4.9396,-5.0138,-5.0847,-5.1587,-5.23,-5.2845,-5.3227,-5.3532,-5.3853,-5.4198,-5.4439,-5.4782,-5.5088,-5.5372,-5.5676,-5.6014,-5.628,-5.6614,-5.6999,-5.7052,-5.6964,-5.6842,-5.6719,-5.6542,-5.6454,-5.64,-5.6346,-5.6256,-5.6132,-5.5973,-5.5884,-5.5794,-5.5807,-5.5945,-5.629,-5.6657,-5.6968,-5.7245,-5.7556,-5.7867,-5.8178,-5.8488,-5.8858,-5.9204,-5.9515,-5.9791,-6.0152,-6.05,-6.0848,-6.1215,-6.1523,0.0,-2.8211,-2.764,-2.7149,-2.6641,-2.6141,-2.5598,-2.5071,0.0,-2.4136,-2.3568,-2.2738,-2.1794,-2.0655,-1.951,-1.832,-1.7132,-1.5925,-1.4748,-1.3621,-1.2433,-1.1235,-1.0048,-0.8873,-0.7611,-0.7355,0.0,0.0,0.0,0.0,-1.5732,-1.7324,-1.9021,-2.0667,-2.2257,-2.3966,-2.5659,-2.7305,-2.8725,-3.0096,-3.1137,-3.2226,-3.3196,-3.4212,-3.5265,0.0,-3.7294,-3.8306,-3.9325,-4.0284,-4.1286,-4.2258,-4.3235,-4.4011,-4.4786,-4.556,-4.6332,-4.7007,-4.7777,-4.845,-4.9187,-4.9924,-5.0721,-5.1422,-5.2164,-5.2897,-5.3435,-5.3835,-5.4051,-5.4392,-5.4731,-5.4999,-5.5301,-5.5601,-5.5899,-5.6231,-5.6544,-5.6804,-5.7096,-5.7458,-5.7493,-5.7408,-5.7287,-5.7202,-5.7081,-5.6995,-5.6858,-5.6806,-5.6684,-5.6527,-5.644,-5.6318,-5.6265,-5.6282,-5.6422,-5.6735,-5.7049,-5.7417,-5.7731,-5.801,-5.8358,-5.8637,-5.8917,-5.923,-5.9635,-5.9984,-6.0263,-6.0564,-6.0906,-6.1336,-6.1728,-6.2029,-3.054,-3.0173,-2.9802,-2.9389,-2.9021,-2.8626,-2.8266,-2.7876,-2.7539,-2.7117,-2.6716,-2.5924,-2.5065,-2.3863,-2.2606,-2.1354,-2.0064,-1.8825,-1.757,-1.6351,-1.5123,-1.3922,-1.2738,-1.1486,0.0,-0.9864,0.0,0.0,0.0,0.0,-1.7773,-1.9278,-2.08,-2.2364,-2.386,-2.5413,-2.6998,-2.8499,-2.9854,-3.1143,-3.2165,-3.3167,-3.4206,-3.5192,-3.6152,-3.7187,-3.8132,-3.9178,0.0,-4.1038,-4.2008,-4.2952,-4.3901,-4.4701,-4.5469,-4.6203,-4.6906,-4.7669,-4.8337,-4.9097,-4.9762,-5.0525,-5.1255,-5.2017,-5.2744,-5.347,-5.3966,-5.4392,-5.4604,-5.4938,-5.5236,-5.5568,-5.5828,-5.6086,-5.6413,-5.6738,-5.7097,-5.73,-5.7586,-5.7905,-5.7941,-5.7858,-5.774,-5.7657,-5.7538,-5.7455,-5.7371,-5.7287,-5.7083,-5.6964,-5.6879,-5.6794,-5.6709,-5.6729,-5.687,-5.7186,-5.7503,-5.7819,-5.8152,-5.8469,-5.8786,-5.9067,-5.9349,-5.9701,-6.0106,-6.0493,-6.074,-6.104,-6.141,-6.183,-6.2212,-6.249,-3.238,-3.2154,-3.1897,-3.1637,-3.1412,-3.1181,-3.0947,-3.0734,-3.0425,-3.011,-2.9838,-2.9148,-2.8299,-2.6979,-2.5662,-2.4334,-2.3043,-2.169,-2.0418,-1.913,-1.7882,-1.6662,-1.5379,-1.4125,-1.2908,0.0,-1.396,0.0,0.0,0.0,-1.9787,-2.1209,-2.2635,-2.4067,-2.5499,-2.6902,-2.8354,-2.9743,-3.1062,-3.2252,-3.328,-3.4257,-3.5182,-3.6114,-3.7113,0.0,-3.8946,-3.9934,-4.0865,-4.177,-4.2743,-4.3689,-4.4545,-4.534,-4.6102,-4.6797,-4.7554,-4.8217,-4.8971,-4.9664,-5.0379,-5.1136,-5.1859,-5.2614,-5.3333,-5.4016,-5.454,-5.4906,-5.5201,-5.5494,-5.5835,-5.604,-5.6377,-5.6698,-5.6935,-5.7218,-5.7535,-5.7851,-5.8129,-5.8369,-5.8405,-5.8361,-5.8245,-5.8164,-5.8084,-5.7886,-5.7769,-5.7652,-5.7535,-5.7418,-5.7372,-5.7242,-5.716,-5.7183,-5.7325,-5.7645,-5.7928,-5.8212,-5.858,-5.8899,-5.9219,-5.9539,-5.9858,-6.0178,-6.0582,-6.0938,-6.1222,-6.1521,-6.192,-6.2294,-6.2618,-6.2975,-3.4262,-3.416,-3.4037,-3.3894,-3.3753,-3.3694,-3.3564,-3.3479,-3.3268,-3.3129,-3.3026,-3.2381,-3.1529,-3.0118,-2.872,-2.7297,-2.5954,-2.4588,-2.3264,-2.1922,-2.0661,-1.932,-1.8054,-1.6789,-1.554,-1.5137,-1.6438,0.0,0.0,0.0,-2.1774,-2.309,-2.4425,-2.575,-2.7122,-2.8431,-2.9729,-3.1039,-3.2241,-3.3361,-3.4337,-3.5233,-3.6162,-3.7101,-3.8014,-3.8903,-3.9799,-4.076,0.0,-4.2574,-4.3521,-4.4377,-4.5269,-4.6024,-4.6779,-4.7498,-4.8214,-4.887,-4.9615,-5.0302,-5.0952,-5.1724,-5.2473,-5.3186,-5.3898,-5.4521,-5.5039,-5.5449,-5.5772,-5.6024,-5.6309,-5.6603,-5.6884,-5.7163,-5.7511,-5.7787,-5.8096,-5.8326,-5.8633,-5.8866,-5.8907,-5.883,-5.8716,-5.8597,-5.8519,-5.8404,-5.8211,-5.8096,-5.8017,-5.7902,-5.7823,-5.7743,-5.7619,-5.7646,-5.7789,-5.8075,-5.8361,-5.8647,-5.9014,-5.9336,-5.9694,-5.9981,-6.0267,-6.0672,-6.103,-6.1388,-6.1674,-6.1972,-6.24,-6.2718,-6.308,-6.3466,-3.6142,-3.6114,-3.6144,-3.6162,-3.614,-3.6167,-3.6207,-3.6197,-3.6154,-3.6231,-3.6227,-3.5651,-3.4735,-3.3231,-3.1778,-3.0226,-2.8824,-2.7398,-2.6083,-2.4714,-2.336,-2.1956,-2.06,-1.9353,-1.8094,-1.7655,-1.8835,-2.0024,0.0,0.0,-2.371,-2.4866,-2.6132,-2.7363,-2.8649,-2.9896,-3.1099,-3.2276,-3.3442,-3.4493,-3.5366,-3.6238,-3.7146,-3.8004,-3.8891,-3.9821,-4.0718,-4.1562,0.0,-4.3358,-4.4186,-4.5078,-4.5913,-4.6662,-4.741,-4.8122,-4.8864,-4.9604,-5.0272,-5.0951,-5.156,-5.2322,-5.3029,-5.3699,-5.4473,-5.5125,-5.5635,-5.6001,-5.6319,-5.6563,-5.6841,-5.7126,-5.74,-5.7672,-5.7978,-5.8319,-5.8621,-5.8886,-5.911,-5.9408,-5.941,-5.9264,-5.9152,-5.9077,-5.8965,-5.8814,-5.8738,-5.8625,-5.8513,-5.8436,-5.8319,-5.8205,-5.8128,-5.8122,-5.8224,-5.8555,-5.8843,-5.9132,-5.9492,-5.9817,-6.0177,-6.043,-6.0762,-6.1123,-6.1439,-6.1764,-6.2097,-6.243,-6.2851,-6.3198,-6.3585,-6.3963,-3.7964,-3.814,-3.8232,-3.835,-3.8515,-3.8694,-3.8882,-3.8968,-3.9124,-3.9232,-3.937,-3.8837,-3.7961,-3.6367,-3.4815,-3.327,-3.1734,-3.0242,-2.8827,-2.7357,-2.5933,-2.4526,-2.3168,-2.18,-2.0545,-2.0084,-2.1183,-2.2248,0.0,0.0,-2.5632,-2.676,-2.7888,-2.8985,-3.0145,-3.1273,-3.2401,-3.3497,-3.4583,-3.563,-3.645,-3.7275,-3.8135,-3.9,-3.9837,-4.071,-4.1555,-4.2403,0.0,-4.4129,-4.502,-4.5858,-4.6666,-4.7408,-4.8115,-4.8818,-4.9518,-5.018,-5.0855,-5.1544,-5.218,-5.2882,-5.3596,-5.4293,-5.4976,-5.5669,-5.6207,-5.66,-5.6839,-5.7112,-5.7384,-5.7689,-5.7962,-5.8227,-5.849,-5.8788,-5.9084,-5.9341,-5.9597,-5.9887,-5.9922,-5.9777,-5.9705,-5.9596,-5.9451,-5.9341,-5.9195,-5.9085,-5.9011,-5.89,-5.879,-5.864,-5.8565,-5.8563,-5.8672,-5.8998,-5.9289,-5.9616,-5.9942,-6.0269,-6.0632,-6.0923,-6.1213,-6.154,-6.1903,-6.2266,-6.2562,-6.2894,-6.3308,-6.3684,-6.4058,-6.4505,-3.9887,-4.0101,-4.0398,-4.0647,-4.0939,-4.1244,-4.15,-4.174,-4.2048,-4.2305,-4.2546,-4.2056,-4.1186,-3.9496,-3.7881,-3.627,-3.4633,-3.3103,-3.1584,-3.0007,-2.8473,-2.7024,-2.5585,-2.4199,-2.2858,-2.234,-2.3338,-2.4383,-2.5446,0.0,-2.7549,-2.8554,-2.9588,-3.0615,-3.1669,-3.2683,-3.3678,-3.4725,-3.5722,-3.6736,-3.7565,-3.8314,-3.913,-3.9969,-4.0792,-4.1605,-4.2402,-4.3201,0.0,-4.4939,-4.5779,-4.6589,-4.7434,-4.8135,-4.8834,-4.9494,-5.0151,-5.0786,-5.147,-5.21,-5.2811,-5.347,-5.4163,-5.4852,-5.5539,-5.6179,-5.6789,-5.7096,-5.737,-5.7636,-5.7937,-5.8236,-5.8535,-5.8756,-5.8976,-5.923,-5.9555,-5.9839,-6.0087,-6.0332,-6.0369,-6.0263,-6.0156,-6.005,-5.9943,-5.9803,-5.9695,-5.9551,-5.948,-5.9374,-5.9229,-5.912,-5.9012,-5.9049,-5.9122,-5.9451,-5.9743,-6.0036,-6.0401,-6.073,-6.1059,-6.1351,-6.168,-6.2009,-6.2338,-6.2703,-6.3034,-6.3365,-6.3735,-6.4177,-6.4544,-6.498,-4.1711,-4.2109,-4.2448,-4.2896,-4.3351,-4.3729,-4.4112,-4.451,-4.4925,-4.5369,-4.572,-4.5309,-4.4411,-4.2695,-4.0945,-3.9234,-3.7525,-3.589,-3.4293,-3.2672,-3.1091,-2.9489,-2.8,-2.6553,-2.5054,-2.4451,-2.5413,-2.6402,-2.7436,0.0,-2.9354,-3.0276,-3.1251,-3.2177,-3.3131,-3.4102,-3.5026,-3.5994,-3.6858,-3.7778,-3.8598,-3.9355,-4.0114,-4.0909,-4.174,-4.2607,-4.3325,-4.4097,-4.4937,-4.5762,-4.6506,-4.7301,-4.8151,-4.8844,-4.9533,-5.015,-5.0781,-5.1424,-5.2098,-5.272,-5.342,-5.4142,-5.479,-5.5471,-5.6149,-5.6783,-5.7347,-5.7723,-5.7911,-5.8207,-5.8465,-5.872,-5.9009,-5.9294,-5.9472,-5.9755,-6.0106,-6.031,-6.055,-6.0825,-6.0854,-6.0714,-6.061,-6.0476,-6.0372,-6.0237,-6.0095,-5.999,-5.9884,-5.9779,-5.9604,-5.9534,-5.9468,-5.9505,-5.9582,-5.995,-6.0207,-6.0464,-6.0832,-6.1199,-6.1565,-6.1824,-6.2118,-6.2449,-6.2817,-6.3184,-6.3514,-6.3844,-6.428,-6.4641,-6.5037,-6.5463,-4.3592,-4.4094,-4.4576,-4.5194,-4.5727,-4.624,-4.6785,-4.7261,-4.7835,-4.8391,-4.8892,-4.849,-4.7603,-4.5788,-4.3974,-4.2168,-4.0391,-3.8677,-3.6972,-3.5243,-3.3575,-3.1907,-3.0327,-2.875,-2.7229,-2.6539,-2.742,-2.8353,-2.9288,-3.0203,-3.1091,-3.1962,-3.2783,-3.3652,-3.4538,-3.5442,-3.6297,-3.7178,-3.8024,-3.8818,-3.9601,-4.0353,-4.1085,-4.1886,-4.2677,-4.3468,-4.4194,-4.497,-4.5767,-4.6531,-4.7296,-4.8063,-4.8865,-4.9516,-5.0163,-5.077,-5.1443,-5.2111,-5.2693,-5.3352,-5.3998,-5.472,-5.5395,-5.6031,-5.6736,-5.7362,-5.7879,-5.8209,-5.8464,-5.8753,-5.9003,-5.9214,-5.9493,-5.9768,-5.9978,-6.0284,-6.052,-6.0754,-6.1024,-6.1317,-6.1317,-6.1179,-6.1078,-6.0939,-6.081,-6.0708,-6.0541,-6.0429,-6.0327,-6.0195,-6.0054,-5.9958,-5.9891,-5.9935,-6.0046,-6.0384,-6.068,-6.0939,-6.1271,-6.1641,-6.2005,-6.2269,-6.2565,-6.2929,-6.3336,-6.3673,-6.3965,-6.4293,-6.4722,-6.5113,-6.5501,-6.5925,-4.5444,-4.6124,-4.6813,-4.7478,-4.8115,-4.8742,-4.9437,-5.0078,-5.0698,-5.1371,-5.21,-5.1709,-5.0798,-4.8884,-4.694,-4.5133,-4.3286,-4.1438,-3.9623,-3.7844,-3.6025,-3.4296,-3.2637,-3.0957,-2.9349,-2.858,-2.9411,-3.0235,-3.1073,-3.1922,-3.2771,-3.3589,-3.4323,-3.51,-3.5926,-3.6731,-3.7518,-3.8395,-3.9195,-3.9924,-4.0607,-4.1333,-4.2139,-4.2903,-4.3622,-4.4319,-4.5086,0.0,-4.6542,-4.7346,-4.8118,-4.8841,-4.958,-5.0221,-5.0776,-5.1374,-5.2083,-5.2776,-5.335,-5.3956,-5.46,-5.527,-5.5937,-5.6564,-5.7261,-5.7917,-5.8388,-5.8709,-5.9027,-5.9272,-5.9515,-5.9682,-5.9988,-6.0289,-6.0495,-6.0726,-6.0945,-6.1208,-6.1494,-6.1753,-6.179,-6.1692,-6.1593,-6.1457,-6.1296,-6.1159,-6.1059,-6.0884,-6.0784,-6.0684,-6.052,-6.0418,-6.0317,-6.0337,-6.0522,-6.0857,-6.1154,-6.1451,-6.1748,-6.2083,-6.2463,-6.276,-6.302,-6.342,-6.3792,-6.4134,-6.4394,-6.4721,-6.518,-6.5564,-6.5972,-6.6388,-4.5754,-4.6352,-4.6905,-4.7467,-4.8045,-4.8573,-4.9122,-4.9692,-5.0213,-5.0802,-5.138,-5.096,-5.0053,-4.825,-4.6415,-4.4539,-4.279,-4.1053,-3.9289,-3.7534,-3.5807,-3.416,-3.249,-3.0899,-2.9382,-2.8668,-2.9555,-3.0449,-3.1409,-3.2311,-3.3246,-3.4181,-3.5027,-3.5869,-3.6788,-3.7714,-3.8618,-3.9515,-4.0389,-4.1109,-4.1752,-4.2426,-4.3171,-4.3845,-4.4482,-4.5191,-4.5826,-4.6499,-4.7238,-4.8016,-4.8683,-4.9425,-5.0054,-5.0698,-5.1261,-5.1861,-5.2488,-5.315,-5.3806,-5.4387,-5.5,-5.5612,-5.6255,-5.6894,-5.7572,-5.8248,-5.8626,-5.8963,-5.9222,-5.944,-5.9666,-5.984,-6.0046,-6.0249,-6.0464,-6.0696,-6.0905,-6.1093,-6.1297,-6.1514,-6.1514,-6.1423,-6.1276,-6.1146,-6.1036,-6.0887,-6.0737,-6.0605,-6.0453,-6.0338,-6.0205,-6.0089,-5.9971,-6.0024,-6.0167,-6.0466,-6.0817,-6.1192,-6.1505,-6.1892,-6.2241,-6.2578,-6.2851,-6.32,-6.361,-6.3995,-6.4331,-6.4655,-6.5106,-6.5542,-6.5951,-6.638,-4.6032,-4.6465,-4.6978,-4.7413,-4.7873,-4.829,-4.8735,-4.9175,-4.9647,-5.0117,-5.0585,-5.0133,-4.9223,-4.746,-4.5686,-4.3902,-4.2179,-4.0501,-3.8824,-3.7134,-3.545,-3.3853,-3.2287,-3.0748,-2.9273,-2.8601,-2.952,-3.0533,-3.1573,-3.2595,-3.3573,-3.4623,-3.5533,-3.6516,-3.7522,-3.8548,-3.9545,-4.0528,-4.1411,-4.2185,-4.2771,-4.339,-4.4104,-4.4743,-4.5306,-4.594,0.0,-4.7162,-4.7897,-4.8625,-4.9246,-4.9863,-5.055,-5.1125,-5.1733,-5.2301,-5.2902,-5.3536,-5.4136,-5.4763,-5.5322,-5.5915,-5.6542,-5.7193,-5.789,-5.8485,-5.8916,-5.9194,-5.943,-5.9588,-5.9778,-5.9927,-6.0071,-6.0226,-6.0436,-6.059,-6.0793,-6.0915,-6.107,-6.1221,-6.1221,-6.1127,-6.0966,-6.0795,-6.065,-6.0552,-6.0415,-6.0276,-6.0137,-5.9983,-5.9841,-5.9683,-5.9592,-5.9619,-5.9774,-6.0095,-6.0453,-6.0849,-6.1225,-6.1619,-6.2013,-6.2348,-6.2665,-6.2997,-6.3425,-6.3852,-6.4204,-6.4564,-6.5029,-6.5489,-6.5946,-6.6323,-4.624,-4.6633,-4.7009,-4.733,-4.7683,-4.8,-4.8352,-4.8741,-4.9097,-4.9454,-4.9878,-4.9331,-4.8391,-4.6681,-4.4955,-4.3213,-4.1581,-3.9944,-3.8324,-3.6656,-3.5048,-3.3501,-3.1965,-3.0482,-2.9045,-2.8451,-2.9471,-3.0555,-3.1663,-3.2721,-3.3845,-3.496,-3.5947,-3.7003,-3.8123,-3.9174,-4.0245,-4.1305,-4.2242,-4.307,-4.3645,-4.4268,-4.4871,-4.543,-4.6004,-4.659,-4.7207,-4.7879,-4.851,-4.9099,-4.9684,-5.0339,-5.0989,-5.1573,-5.2089,-5.2667,-5.3277,-5.3859,-5.4439,-5.5031,-5.5703,-5.6292,-5.69,-5.7485,-5.8163,-5.88,-5.9192,-5.9447,-5.9638,-5.9733,-5.9861,-5.9984,-6.0114,-6.0198,-6.0344,-6.0485,-6.0627,-6.0759,-6.0847,-6.0969,-6.0893,-6.0776,-6.0619,-6.05,-6.0299,-6.021,-6.008,-5.9879,-5.9707,-5.9571,-5.9432,-5.93,-5.913,-5.9212,-5.9368,-5.9722,-6.0075,-6.0501,-6.0889,-6.1275,-6.1659,-6.208,-6.2499,-6.2878,-6.3294,-6.3707,-6.4064,-6.444,-6.4855,-6.5359,-6.5819,-6.6271,-4.6501,-4.6777,-4.7013,-4.7263,-4.7483,-4.7743,-4.7973,-4.8246,-4.8528,-4.8781,-4.9102,-4.8546,-4.7575,-4.5892,-4.424,-4.2566,-4.0957,-3.9369,-3.7766,-3.6209,-3.4662,-3.3124,-3.1662,-3.0237,-2.88,-2.8213,-2.9363,-3.0498,0.0,-3.2791,-3.3934,-3.5142,-3.6232,-3.7349,-3.8496,-3.9635,-4.0769,-4.193,-4.297,-4.3812,-4.4387,-4.4956,-4.551,-4.6102,-4.665,-4.7228,-4.7799,-4.8416,-4.901,-4.9577,-5.0138,-5.0769,-5.1393,-5.1905,-5.2474,-5.304,-5.3604,-5.4202,-5.4743,-5.5358,-5.6026,-5.6599,-5.7209,-5.7818,-5.8462,-5.9042,-5.9455,-5.9687,-5.9811,-5.9882,-5.9955,-6.0096,-6.0117,-6.0131,-6.025,-6.0327,-6.0396,-6.0534,-6.0632,-6.0681,-6.0605,-6.0433,-6.0295,-6.0151,-5.9933,-5.9827,-5.9681,-5.9492,-5.9339,-5.9183,-5.9025,-5.8865,-5.8701,-5.8758,-5.8931,-5.9328,-5.976,-6.0189,-6.055,-6.0974,-6.1357,-6.1826,-6.2279,-6.2692,-6.3116,-6.3577,-6.3943,-6.4375,-6.4815,-6.5278,-6.572,-6.6202,-4.6811,-4.6945,-4.7015,-4.7133,-4.7298,-4.7407,-4.7597,-4.7789,-4.7929,-4.812,-4.8287,-4.7702,-4.6755,-4.5144,-4.3516,-4.1898,-4.0297,-3.8788,-3.7244,-3.5777,-3.4308,-3.2758,-3.1305,-2.9938,-2.8513,-2.797,-2.9127,-3.0356,-3.1603,-3.2735,-3.3925,-3.5185,-3.6355,-3.7559,-3.8759,-3.9983,-4.1203,-4.2456,-4.3514,-4.4344,-4.4936,-4.548,-4.6052,-4.6651,-4.7204,-4.7786,-4.8328,-4.8887,-4.9413,-4.9959,-5.0572,-5.1149,-5.1718,-5.2252,-5.2821,-5.3389,-5.393,-5.4532,-5.5095,-5.5721,-5.6319,-5.6915,-5.7538,-5.8169,-5.8752,-5.9303,-5.9663,-5.9873,-5.9933,-6.002,-6.01,-6.0134,-6.0085,-6.0063,-6.0112,-6.0155,-6.0218,-6.0282,-6.0339,-6.0388,-6.0288,-6.0138,-5.9947,-5.9753,-5.9565,-5.9403,-5.9237,-5.9076,-5.8904,-5.8773,-5.8595,-5.8418,-5.8236,-5.8277,-5.8466,-5.8992,-5.944,-5.9882,-6.0243,-6.0643,-6.1079,-6.1549,-6.2008,-6.2509,-6.2969,-6.3426,-6.3842,-6.4296,-6.4774,-6.518,-6.5621,-6.6155,-4.7058,-4.7061,-4.7045,-4.7079,-4.7166,-4.7205,-4.7216,-4.7267,-4.7385,-4.7446,-4.7489,-4.6835,-4.5945,-4.4356,-4.2777,-4.1164,-3.9711,-3.8218,-3.672,-3.5289,-3.3837,-3.244,-3.1005,-2.9615,-2.8187,-2.7623,0.0,-3.0091,-3.1393,-3.2637,-3.3898,-3.5196,-3.6474,-3.7715,-3.8954,-4.025,-4.1544,-4.28,-4.3903,-4.4828,-4.5394,-4.5934,-4.6537,-4.709,-4.763,-4.8191,-4.8778,-4.9279,-4.9845,-5.0398,-5.0939,-5.1474,-5.2,-5.2583,-5.3135,-5.3648,-5.4234,-5.4813,-5.5354,-5.5931,-5.6584,-5.7198,-5.7773,-5.8424,-5.9034,-5.9567,-5.9948,-6.0134,-6.0158,-6.0139,-6.0144,-6.0147,-6.0133,-6.0082,-6.0012,-6.0044,-6.0044,-6.002,-5.9985,-5.9997,-5.9885,-5.972,-5.9571,-5.938,-5.9167,-5.8967,-5.8799,-5.8626,-5.8449,-5.8304,-5.8155,-5.7925,-5.7774,-5.7799,-5.801,-5.8485,-5.899,-5.9491,-5.9948,-6.04,-6.0847,-6.1328,-6.1803,-6.2312,-6.2815,-6.3276,-6.3731,-6.4233,-6.4695,-6.5125,-6.5612,-6.6128,-4.7308,-4.7195,-4.7068,-4.7027,-4.7044,-4.6948,-4.6897,-4.6793,-4.6786,-4.674,-4.665,-4.6016,-4.51,-4.3558,-4.2014,-4.047,-3.9071,-3.7659,-3.6232,-3.4811,-3.3364,-3.2052,-3.0662,-2.9241,-2.7838,-2.7279,-2.8564,-2.9891,-3.1224,-3.2533,-3.3854,-3.5188,-3.6481,-3.7785,-3.9092,-4.0411,-4.1768,-4.3091,-4.4229,-4.5191,-4.5756,-4.6364,-4.6919,-4.7477,-4.7982,-4.8571,-4.911,-4.9644,-5.023,-5.0759,-5.1279,-5.1784,-5.2315,-5.2885,-5.3418,-5.3911,-5.4517,-5.5083,-5.5613,-5.6216,-5.6859,-5.7425,-5.8064,-5.8701,-5.9342,-5.9901,-6.0226,-6.0382,-6.0332,-6.0244,-6.0213,-6.0172,-6.012,-6.0095,-5.9985,-5.9901,-5.9845,-5.9778,-5.9701,-5.965,-5.9501,-5.9323,-5.9131,-5.897,-5.8767,-5.8542,-5.8327,-5.8144,-5.7973,-5.7854,-5.767,-5.7464,-5.7266,-5.7364,-5.7568,-5.803,-5.8563,-5.9088,-5.9608,-6.012,-6.0588,-6.1087,-6.1616,-6.2178,-6.2656,-6.3131,-6.3633,-6.4164,-6.4616,-6.5098,-6.5566,-6.6055,-4.7569,-4.7352,-4.7148,-4.6983,-4.6866,-4.6736,-4.654,-4.635,-4.6236,-4.6058,-4.5868,-4.5191,-4.4245,-4.2741,-4.1265,-3.9814,-3.8419,-3.7039,-3.5693,-3.4346,-3.2975,-3.1625,-3.029,-2.8926,-2.7527,-2.704,-2.8309,-2.9657,-3.1049,-3.2381,-3.372,-3.51,-3.6488,-3.7882,-3.9246,-4.0582,-4.1922,-4.3301,-4.4501,-4.555,-4.6144,-4.6656,-4.7289,-4.7829,-4.8327,-4.8922,-4.9463,-4.995,-5.0532,-5.1048,-5.155,-5.2076,-5.2624,-5.3193,-5.3717,-5.4235,-5.4834,-5.5395,-5.5955,-5.6515,-5.7151,-5.7748,-5.8344,-5.9016,-5.9649,-6.0234,-6.054,-6.059,-6.0505,-6.0393,-6.0323,-6.0243,-6.0152,-6.0051,-5.9913,-5.9752,-5.9588,-5.9478,-5.9361,-5.9302,-5.9154,-5.9,-5.8729,-5.8556,-5.8345,-5.8091,-5.7932,-5.7728,-5.7566,-5.7422,-5.7195,-5.6997,-5.6867,-5.6934,-5.7127,-5.7629,-5.816,-5.8682,-5.9271,-5.9813,-6.0308,-6.0902,-6.1452,-6.1996,-6.2529,-6.3093,-6.3574,-6.4105,-6.4576,-6.5034,-6.5513,-6.6047,-4.7811,-4.7521,-4.7165,-4.6931,-4.6726,-4.6435,-4.6161,-4.5892,-4.5651,-4.5364,-4.5107,-4.4369,-4.3384,-4.1947,-4.0525,-3.9159,-3.7822,-3.6494,-3.5182,-3.3854,-3.2578,-3.1208,-2.9932,-2.8572,-2.7219,-2.6756,-2.8108,-2.9474,-3.0886,-3.2269,-3.3654,-3.505,-3.6522,-3.8005,-3.9378,-4.0759,-4.2189,-4.3584,-4.485,-4.5912,-4.6514,-4.7098,-4.7626,-4.817,-4.8731,-4.9272,-4.9804,-5.0305,-5.0839,-5.1356,-5.1892,-5.2411,-5.2911,-5.3478,-5.4006,-5.4521,-5.5111,-5.5701,-5.6229,-5.6818,-5.7421,-5.8009,-5.865,-5.9328,-5.9953,-6.0502,-6.0828,-6.0887,-6.071,-6.0593,-6.0425,-6.0307,-6.0178,-6.0009,-5.9825,-5.9663,-5.9451,-5.9297,-5.9169,-5.8987,-5.8807,-5.8613,-5.8375,-5.8169,-5.7954,-5.7766,-5.7498,-5.7294,-5.7117,-5.6932,-5.6701,-5.6524,-5.6336,-5.6376,-5.6617,-5.7205,-5.7783,-5.8348,-5.8977,-5.9507,-6.0076,-6.0661,-6.1275,-6.1803,-6.2398,-6.2981,-6.3516,-6.401,-6.4498,-6.4967,-6.5453,-6.5985,-4.8033,-4.7639,-4.7241,-4.6888,-4.6566,-4.6199,0.0,-4.5403,-4.5019,-4.4667,-4.4348,-4.354,-4.2519,-4.1174,-3.9832,-3.8449,-3.7209,-3.5936,-3.46,-3.3366,-3.2131,-3.0817,-2.9544,-2.8264,-2.6912,-2.6464,-2.7889,-2.9302,-3.0763,-3.2193,-3.3588,-3.5028,-3.6578,-3.8109,-3.9554,-4.1025,-4.2507,-4.3981,-4.5242,-4.6267,-4.6996,-4.7519,-4.7986,-4.8541,-4.9105,-4.9612,-5.0133,-5.0707,-5.1222,-5.1679,-5.2261,-5.2784,-5.3191,-5.381,-5.4334,-5.4839,-5.5401,-5.6,-5.6504,-5.7066,-5.774,-5.8323,-5.8922,-5.9634,-6.0233,-6.0811,-6.114,-6.1146,-6.1003,-6.0809,-6.0569,-6.0344,-6.0142,-5.9962,-5.9767,-5.9594,-5.9406,-5.9167,-5.8985,-5.8788,-5.8504,-5.8225,-5.7999,-5.7762,-5.755,-5.7365,-5.7134,-5.693,-5.6678,-5.6416,-5.6181,-5.6006,-5.5781,-5.584,-5.6101,-5.6783,-5.7429,-5.8027,-5.8632,-5.9242,-5.9818,-6.0402,-6.1039,-6.1676,-6.2261,-6.2866,-6.3425,-6.3919,-6.4383,-6.4863,-6.5376,-6.5945,0.0,0.0,0.0,0.0,0.0,0.0,0.0,-4.4889,-4.4445,-4.3997,-4.3546,-4.2706,-4.168,-4.0377,-3.91,-3.7806,-3.6563,-3.5326,-3.4087,-3.2905,-3.1764,-3.0521,-2.9229,-2.8025,-2.6689,-2.627,-2.7706,-2.919,-3.0643,-3.217,-3.3636,-3.5149,-3.6678,-3.8198,-3.9732,-4.1248,-4.2777,-4.4265,-4.5587,-4.6706,-4.7387,-4.7923,-4.8367,-4.8938,-4.9472,-5.0026,-5.0513,-5.1086,-5.1561,-5.2013,-5.2551,-5.3095,-5.356,-5.4105,-5.465,-5.5169,-5.5726,-5.6309,-5.6866,-5.7487,-5.8081,-5.8702,-5.9334,-5.9992,-6.0587,-6.1182,-6.1469,-6.1469,-6.1217,-6.0946,-6.073,-6.05,-6.0215,-5.999,-5.974,-5.9471,-5.9233,-5.9015,-5.8692,-5.8441,-5.8199,-5.797,-5.7717,-5.7452,-5.7211,-5.6958,-5.6695,-5.6465,-5.6215,-5.5918,-5.5759,-5.5623,-5.5399,-5.5419,-5.5644,-5.6319,-5.7025,-5.7679,-5.8304,-5.8964,-5.9571,-6.0222,-6.0875,-6.1498,-6.212,-6.2754,-6.3336,-6.3911,-6.4392,-6.4899,-6.5388,-6.5945,0.0,0.0,0.0,0.0,0.0,0.0,0.0,0.0,0.0,0.0,0.0,-4.1899,-4.0862,0.0,-3.836,-3.7119,-3.5895,-3.4721,-3.3563,-3.2441,-3.1338,-3.0109,-2.8927,-2.7712,-2.6453,-2.6141,-2.7618,-2.9119,-3.0645,-3.2188,-3.3753,-3.5242,-3.6813,-3.8403,-3.9976,-4.1565,-4.317,-4.4688,-4.6035,-4.7167,-4.7808,-4.8388,-4.8846,-4.9379,-4.9941,-5.0439,-5.0928,-5.1474,-5.1913,-5.2362,-5.2861,-5.3404,-5.3926,-5.443,-5.4939,-5.5521,-5.6067,-5.665,-5.7234,-5.7854,-5.8475,-5.9097,-5.9685,-6.0377,-6.1004,-6.1556,-6.1857,-6.1792,-6.1494,-6.1213,-6.0913,-6.0559,-6.0304,-6.0021,-5.9718,-5.9396,-5.9123,-5.8795,-5.8447,-5.8143,-5.7872,-5.7681,-5.7372,-5.7118,-5.6817,-5.6539,-5.63,-5.5996,-5.5764,-5.5552,-5.5361,-5.5198,-5.4942,-5.4999,-5.5187,-5.5904,-5.6605,-5.7317,-5.8016,-5.8672,-5.9336,-5.9997,-6.0699,-6.1326,-6.1974,-6.2632,-6.3286,-6.3873,-6.4396,-6.4868,-6.5381,-6.5935,0.0,0.0,0.0,0.0,0.0,0.0,0.0,0.0,0.0,0.0,0.0,0.0,0.0,0.0,0.0,-3.6426,-3.5339,-3.422,-3.3089,-3.1968,-3.0859,-2.9698,-2.8592,-2.7435,-2.6253,-2.5956,-2.7538,-2.9083,-3.075,-3.2335,-3.3903,-3.5494,-3.7079,-3.8641,-4.0281,-4.194,-4.3618,-4.5208,-4.6538,-4.7685,0.0,0.0,-4.9301,-4.9848,-5.0334,-5.0851,-5.1314,-5.1872,-5.2364,-5.2825,-5.3246,-5.3718,-5.4228,-5.4775,-5.5283,-5.5831,-5.6413,-5.6997,-5.7544,-5.8163,-5.8858,-5.9479,-6.01,-6.076,-6.1382,-6.1966,0.0,-6.2152,-6.1764,-6.1435,-6.1122,-6.0703,-6.0349,-6.0011,-5.9653,-5.931,-5.9014,-5.8663,-5.829,-5.7931,-5.76,-5.7349,-5.7021,-5.6747,-5.6521,-5.6217,-5.59,-5.5695,-5.5439,-5.5167,-5.4949,-5.4715,-5.4442,-5.4505,-5.4774,-5.5536,-5.6278,-5.7034,-5.7698,-5.8374,-5.9073,-5.9791,-6.0489,-6.1129,-6.1824,-6.252,-6.3212,-6.383,-6.4362,-6.4836,-6.5366,-6.5954,0.0,0.0,0.0,0.0,0.0,0.0,0.0,0.0,0.0,0.0,0.0,0.0,0.0,0.0,0.0,0.0,-3.4662,-3.3639,-3.2583,-3.1532,-3.0392,-2.9305,-2.8211,-2.7137,-2.6053,-2.5877,-2.7433,-2.9119,-3.079,-3.2415,-3.4019,0.0,0.0,0.0,0.0,-4.2383,-4.405,-4.5706,-4.7137,-4.8249,-4.8904,-4.9406,-4.9846,-5.0316,-5.0855,-5.1326,-5.183,-5.2273,-5.2778,-5.325,-5.3687,-5.4078,-5.4513,-5.5111,-5.5663,-5.6216,-5.6805,-5.7395,-5.7941,0.0,0.0,-5.985,-6.0514,-6.1134,-6.18,-6.2385,-6.261,-6.251,-6.2105,-6.1728,-6.1312,-6.0895,-6.0466,-6.011,-5.9668,-5.9302,-5.8878,-5.85,-5.81,-5.771,-5.7356,-5.7081,-5.6773,-5.6448,-5.621,-5.592,-5.5581,-5.5325,-5.505,-5.4758,-5.4516,-5.4312,-5.4001,0.0,-5.4375,-5.5155,-5.5939,-5.6705,-5.7407,-5.8159,-5.8851,-5.9565,-6.0323,-6.0995,-6.1706,-6.241,-6.313,-6.3765,-6.4309,-6.4804,-6.5342,-6.5962,0.0,0.0,0.0,0.0,0.0,0.0,0.0,0.0,0.0,0.0,0.0,0.0,0.0,0.0,0.0,0.0,-3.4025,-3.3051,-3.2095,-3.1068,-3.0014,-2.8944,-2.7912,-2.6865,-2.5847,-2.5753,-2.7349,-2.9004,-3.0823,-3.2515,-3.4238,-3.5796,-3.7602,-3.935,-4.1091,-4.2885,-4.4612,-4.6305,-4.7793,-4.8916,-4.9567,-4.9982,-5.0417,-5.0909,-5.1367,-5.1855,-5.2349,-5.2705,-5.3223,-5.3646,-5.4096,0.0,0.0,0.0,0.0,0.0,-5.7206,-5.7765,-5.836,-5.8991,-5.9622,-6.0255,-6.0923,-6.1592,-6.2191,-6.2725,-6.3015,-6.2842,-6.2421,-6.1974,-6.1502,-6.1103,-6.0652,-6.0174,-5.9737,-5.9314,-5.8825,-5.8421,-5.7944,-5.7555,-5.7147,0.0,-5.6483,-5.6227,-5.5905,-5.564,-5.5387,-5.498,-5.4689,-5.4379,-5.4151,-5.393,-5.3687,-5.3683,-5.3915,-5.4781,0.0,0.0,0.0,-5.795,-5.8645,-5.9354,0.0,0.0,0.0,-6.2338,-6.3106,-6.3745,0.0,0.0,-6.5412,-6.5995,0.0,0.0,0.0,0.0,0.0,0.0,0.0,0.0,0.0,0.0,0.0,0.0,0.0,0.0,0.0,0.0,-3.3717,-3.2784,-3.1843,-3.0928,-2.9987,-2.9004,-2.8003,-2.706,-2.6093,-2.6037,-2.7628,-2.9225,-3.0879,-3.2565,-3.4176,-3.5731,-3.7446,-3.9132,-4.0841,-4.2488,-4.4211,-4.5782,-4.7142,-4.825,-4.8821,-4.9329,-4.9722,-5.0164,-5.056,-5.1033,-5.1506,-5.1884,-5.2295,-5.271,-5.3187,-5.3574,-5.3933,-5.4435,-5.4972,-5.558,-5.6101,-5.6674,-5.7246,-5.7804,-5.8398,-5.9041,-5.9636,-6.028,-6.0876,-6.1472,-6.1612,-6.1491,-6.1057,-6.0634,-6.0186,-5.9783,-5.9354,-5.8966,-5.8555,-5.8118,-5.7654,-5.7195,-5.6788,-5.6372,-5.6057,-5.5653,-5.5388,-5.5061,-5.4724,-5.4448,-5.4086,-5.3714,-5.343,-5.3165,-5.2854,-5.2595,-5.2349,-5.2415,-5.2743,-5.3655,-5.45,-5.5385,-5.6309,-5.7162,-5.7952,-5.8785,-5.9626,-6.0409,-6.1269,-6.2075,0.0,0.0,0.0,0.0,0.0,0.0,0.0,0.0,0.0,0.0,0.0,0.0,0.0,0.0,0.0,0.0,0.0,0.0,0.0,0.0,0.0,0.0,0.0,0.0,-3.1722,-3.0885,-3.0048,-2.9107,-2.8236,-2.7304,-2.6485,-2.6397,-2.7936,-2.9433,-3.0984,-3.2589,-3.4118,-3.5645,-3.7196,-3.877,-4.0363,-4.1977,-4.3556,-4.5123,-4.6356,-4.7414,-4.7979,-4.8429,-4.8852,-4.9217,-4.9586,-5.0025,-5.0474,-5.0829,-5.1254,-5.1592,-5.2029,-5.2404,-5.277,-5.33,-5.3799,-5.4297,-5.483,-5.5327,-5.5824,-5.6356,-5.7005,-5.7607,-5.8127,-5.8728,-5.9374,-5.9894,-6.0047,-5.9912,-5.951,-5.9086,-5.8707,-5.8339,-5.7912,-5.7494,-5.7118,-5.675,-5.6322,-5.5868,-5.5419,-5.5039,-5.4738,-5.4388,-5.4122,-5.3729,-5.3406,-5.3043,-5.2776,0.0,-5.2111,-5.185,-5.1484,-5.1207,-5.0893,-5.1045,-5.143,-5.2331,-5.3374,-5.4363,-5.5307,-5.6257,-5.7176,-5.8136,-5.9097,-5.9921,-6.0865,-6.178,-6.2627,0.0,0.0,0.0,0.0,0.0,0.0,0.0,0.0,0.0,0.0,0.0,0.0,0.0,0.0,0.0,0.0,0.0,0.0,0.0,0.0,0.0,0.0,0.0,0.0,0.0,-3.0089,-2.9315,-2.8541,-2.7628,-2.6889,-2.6879,-2.8263,-2.9697,-3.1155,-3.2568,-3.4,-3.5423,-3.695,-3.8395,-3.9782,-4.1257,-4.2701,-4.4158,-4.5379,-4.6295,-4.6786,-4.7209,-4.7638,-4.7974,-4.839,-4.875,-4.9154,-4.9536,-4.9928,-5.0265,-5.0578,-5.0939,-5.1264,-5.1748,-5.2181,-5.2718,-5.3183,-5.3645,-5.4133,-5.4628,-5.5156,-5.5754,-5.6274,-5.6797,-5.739,-5.7868,-5.8042,-5.7906,-5.7511,-5.7218,-5.6844,-5.6457,-5.6083,-5.5719,-5.54,-5.5055,-5.4652,-5.4256,-5.3901,-5.3584,-5.3277,-5.2891,-5.2584,-5.2171,-5.1789,-5.1474,-5.1188,-5.0832,-5.0541,-5.0181,-4.9885,-4.9618,-4.9319,-4.9455,-4.9831,-5.0931,-5.2028,-5.312,-5.4198,-5.5285,-5.6328,-5.737,-5.8379,-5.935,-6.0337,-6.1395,-6.2381,0.0,0.0,0.0,0.0,0.0,0.0,0.0,0.0,0.0,0.0,0.0,0.0,0.0,0.0,0.0,0.0,0.0,0.0,0.0,0.0,0.0,0.0,0.0,0.0,0.0,0.0,-2.9513,-2.8795,0.0,-2.7339,-2.7317,-2.863,-2.9989,-3.1278,-3.2611,-3.3961,-3.5261,-3.6639,-3.7899,-3.9237,-4.0586,-4.1877,-4.3237,-4.4344,-4.5232,-4.563,-4.6021,-4.6362,-4.6749,-4.7119,-4.7471,-4.7749,-4.8159,-4.8495,-4.8814,-4.9082,-4.9402,-4.9787,-5.0223,-5.0611,-5.1039,-5.1499,-5.1914,-5.2438,-5.2887,-5.3329,-5.3877,-5.4424,-5.4858,-5.5397,-5.5865,-5.6016,-5.595,-5.5614,-5.5287,-5.4977,-5.4598,-5.4276,-5.3931,-5.3667,-5.3345,-5.2999,-5.2663,-5.2335,-5.2047,-5.1683,-5.1355,-5.0996,-5.067,-5.0246,-4.9953,-4.966,-4.9238,-4.8945,-4.8653,-4.836,-4.8004,-4.7712,-4.7833,-4.8322,-4.9559,-5.0707,-5.1905,-5.3047,-5.4267,-5.5436,-5.6566,-5.7692,-5.8783,-5.991,-6.1047,0.0,0.0,0.0,0.0,0.0,0.0,0.0,0.0,0.0,0.0,0.0,0.0,0.0,0.0,0.0,0.0,0.0,0.0,0.0,0.0,0.0,0.0,0.0,0.0,0.0,0.0,0.0,-2.9659,-2.9016,0.0,0.0,0.0,0.0,-3.0217,-3.1443,-3.2626,-3.3847,-3.5078,-3.6287,-3.7474,-3.8731,-3.9934,-4.1113,-4.236,-4.3335,-4.4065,-4.4482,-4.4824,-4.5121,-4.547,-4.5841,-4.6067,-4.64,-4.6666,-4.7072,-4.7381,-4.7643,-4.7929,-4.8316,-4.8634,-4.8989,-4.9408,-4.9853,-5.0295,-5.0695,-5.1089,-5.1515,-5.2046,-5.2499,-5.2979,-5.3423,-5.3833,0.0,0.0,-5.371,-5.3406,-5.3076,-5.2756,-5.2489,-5.2154,-5.1958,-5.1694,-5.1354,-5.1076,-5.0773,-5.0454,-5.0146,-4.9891,-4.9443,0.0,-4.8738,-4.8417,-4.8096,-4.771,-4.7422,-4.707,-4.675,-4.6365,-4.6012,-4.6268,-4.6836,-4.813,-4.9413,-5.0718,-5.1975,-5.3243,-5.4505,-5.5759,-5.6968,-5.8283,-5.949,0.0,0.0,0.0,0.0,0.0,0.0,0.0,0.0,0.0,0.0,0.0,0.0,0.0,0.0,0.0,0.0,0.0,0.0,0.0,0.0,0.0,0.0,0.0,0.0,0.0,0.0,-3.093,-3.0385,-2.9873,-2.9331,-2.8861,0.0,0.0,0.0,0.0,0.0,0.0,-3.3791,-3.4901,-3.5933,-3.6936,-3.8059,-3.9188,-4.0296,-4.1408,-4.2293,-4.2944,-4.3266,-4.3573,-4.3894,-4.4183,-4.4498,-4.4739,-4.5053,-4.5309,-4.5638,-4.5945,-4.6211,-4.6468,-4.6794,-4.7105,-4.7447,-4.7779,-4.8173,-4.8561,-4.8938,-4.9341,-4.9742,-5.0209,-5.067,-5.1087,-5.1521,0.0,0.0,0.0,0.0,-5.1444,-5.1202,-5.0906,-5.0693,-5.0493,-5.0272,-4.9986,-4.9719,-4.95,-4.9208,-4.8975,-4.8683,-4.8338,-4.7979,-4.7617,0.0,-4.6892,-4.6495,-4.6154,-4.5843,-4.5499,-4.5118,-4.4829,-4.4471,-4.4699,-4.5278,-4.6718,-4.8112,-4.949,-5.0885,-5.2251,-5.3678,-5.5021,-5.6278,-5.7675,0.0,0.0,0.0,0.0,0.0,0.0,0.0,0.0,0.0,0.0,0.0,0.0,0.0,0.0,0.0,0.0,0.0,0.0,0.0,0.0,0.0,0.0,0.0,0.0,0.0,0.0,0.0,-3.0846,-3.0449,-3.0062,-2.9639,-2.9226,0.0,0.0,0.0,0.0,0.0,0.0,0.0,0.0,0.0,-3.6469,-3.7468,-3.8453,-3.9421,-4.0405,-4.1231,-4.1814,-4.2087,-4.2373,-4.2637,-4.2879,-4.315,-4.3417,-4.3689,-4.3944,-4.4195,-4.4482,-4.4757,-4.4991,0.0,0.0,0.0,0.0,-4.6524,-4.685,-4.7231,-4.7572,-4.7966,-4.8361,0.0,0.0,0.0,0.0,0.0,0.0,0.0,-4.9557,-4.9305,-4.9067,-4.8945,-4.877,-4.8569,-4.8346,-4.8097,-4.7859,-4.7674,-4.7468,-4.7152,-4.6837,-4.6495,-4.6092,0.0,0.0,0.0,-4.4602,-4.4274,-4.3908,-4.3562,-4.3235,-4.2901,-4.3091,-4.3775,-4.5271,-4.6806,-4.8291,-4.9773,-5.129,-5.2812,-5.4205,-5.5622,0.0,0.0,0.0,0.0,0.0,0.0,0.0,0.0,0.0,0.0,0.0,0.0,0.0,0.0,0.0,0.0,0.0,0.0,0.0,0.0,0.0,0.0,0.0,0.0,0.0,0.0,0.0,0.0,0.0,-3.0503,-3.0197,0.0,0.0,0.0,0.0,0.0,0.0,0.0,0.0,0.0,0.0,0.0,0.0,0.0,-3.7743,-3.8569,-3.9401,-4.0108,-4.0705,-4.0988,-4.1201,-4.1377,-4.1618,-4.1857,-4.2099,-4.2332,0.0,-4.2789,-4.3016,0.0,0.0,0.0,0.0,0.0,0.0,0.0,0.0,0.0,0.0,0.0,0.0,0.0,0.0,0.0,0.0,0.0,0.0,0.0,0.0,0.0,0.0,-4.7155,-4.7004,-4.683,-4.6632,-4.6447,-4.6273,-4.6113,-4.5961,-4.5653,-4.5246,0.0,0.0,0.0,0.0,0.0,0.0,-4.2687,-4.23,-4.1955,-4.1588,-4.1229,-4.1539,-4.2227,-4.3848,-4.544,-4.7099,-4.8707,-5.0276,-5.1862,-5.3462,0.0,0.0,0.0,0.0,0.0,0.0,0.0,0.0,0.0,0.0,0.0,0.0,0.0,0.0,0.0,0.0,0.0,0.0,0.0,0.0,0.0,0.0,0.0,0.0,0.0,0.0,0.0,0.0,0.0,0.0,0.0,0.0,0.0,0.0,0.0,0.0,0.0,0.0,0.0,0.0,0.0,0.0,0.0,0.0,0.0,0.0,0.0,0.0,0.0,0.0,-3.9808,-3.9994,-4.0182,-4.0362,-4.0579,-4.0795,-4.0974,-4.1223,-4.1435,-4.161,0.0,0.0,0.0,0.0,0.0,0.0,0.0,0.0,0.0,0.0,0.0,0.0,0.0,0.0,0.0,0.0,0.0,0.0,0.0,0.0,0.0,0.0,-4.5374,-4.5189,-4.5075,-4.4939,-4.4779,0.0,0.0,0.0,0.0,0.0,0.0,0.0,0.0,0.0,0.0,0.0,-4.108,-4.0738,-4.0392,-3.9946,-3.9617,-3.9913,-4.0697,-4.2383,-4.4126,-4.5866,-4.7584,-4.9307,0.0,0.0,0.0,0.0,0.0,0.0,0.0,0.0,0.0,0.0,0.0,0.0,0.0,0.0,0.0,0.0,0.0,0.0,0.0,0.0,0.0,0.0,0.0,0.0,0.0,0.0,0.0,0.0,0.0,0.0,0.0,0.0,0.0,0.0,0.0,0.0,0.0,0.0,0.0,0.0,0.0,0.0,0.0,0.0,0.0,0.0,0.0,0.0,0.0,0.0,0.0,0.0,0.0,0.0,0.0,0.0,0.0,0.0,0.0,-3.9882,0.0,0.0,0.0,0.0,0.0,0.0,0.0,0.0,0.0,0.0,0.0,0.0,0.0,0.0,0.0,0.0,0.0,0.0,0.0,0.0,0.0,0.0,0.0,0.0,0.0,0.0,0.0,0.0,0.0,0.0,0.0,0.0,0.0,0.0,0.0,0.0,0.0,0.0,0.0,0.0,-3.9574,-3.9189,-3.875,-3.8343,-3.8104,-3.8338,-3.9156,-4.0939,-4.2806,-4.4661,-4.6455,0.0,0.0,0.0,0.0,0.0,0.0,0.0,0.0,0.0,0.0,0.0,0.0,0.0,0.0,0.0,0.0,0.0,0.0,0.0,0.0,0.0,0.0,0.0,0.0,0.0,0.0,0.0,0.0,0.0,0.0,0.0,0.0,0.0,0.0,0.0,0.0,0.0,0.0,0.0,0.0,0.0,0.0,0.0,0.0,0.0,0.0,0.0,0.0,0.0,0.0,0.0,0.0,0.0,0.0,0.0,0.0,0.0,0.0,0.0,-3.8283,0.0,0.0,0.0,0.0,0.0,0.0,0.0,0.0,0.0,0.0,0.0,0.0,0.0,0.0,0.0,0.0,0.0,0.0,0.0,0.0,0.0,0.0,0.0,0.0,0.0,0.0,0.0,0.0,0.0,0.0,0.0,0.0,0.0,0.0,0.0,0.0,0.0,0.0,0.0,0.0,0.0,-3.799,-3.7566,-3.7213,-3.681,-3.6424,-3.6815,-3.7619,-3.9547,-4.1541,-4.3454,-4.5388,0.0,0.0,0.0,0.0,0.0,0.0,0.0,0.0,0.0,0.0,0.0,0.0,0.0,0.0,0.0,0.0,0.0,0.0,0.0,0.0,0.0,0.0,0.0,0.0,0.0,0.0,0.0,0.0,0.0,0.0,0.0,0.0,0.0,0.0,0.0,0.0,0.0,0.0,0.0,0.0,0.0,0.0,0.0,0.0,0.0,0.0,0.0,0.0,0.0,0.0,0.0,0.0,0.0,0.0,0.0,0.0,0.0,0.0,0.0,0.0,0.0,0.0,0.0,0.0,0.0,0.0,0.0,0.0,0.0,0.0,0.0,0.0,0.0,0.0,0.0,0.0,0.0,0.0,0.0,0.0,0.0,0.0,0.0,0.0,0.0,0.0,0.0,0.0,0.0,0.0,0.0,0.0,0.0,0.0,0.0,0.0,0.0,0.0,0.0,0.0,0.0,-3.642,-3.5991,-3.5628,-3.5219,-3.483,-3.521,-3.6096,-3.8133,-4.0169,-4.2239,0.0,0.0,0.0,0.0,0.0,0.0,0.0,0.0,0.0,0.0,0.0,0.0,0.0,0.0,0.0,0.0,0.0,0.0,0.0,0.0,0.0,0.0,0.0,0.0,0.0,0.0,0.0,0.0,0.0,0.0,0.0,0.0,0.0,0.0,0.0,0.0,0.0,0.0,0.0,0.0,0.0,0.0,0.0,0.0,0.0,0.0,0.0,0.0,0.0,0.0,0.0,0.0,0.0,0.0,0.0,0.0,0.0,0.0,0.0,0.0,0.0,0.0,0.0,0.0,0.0,0.0,0.0,0.0,0.0,0.0,0.0,0.0,0.0,0.0,0.0,0.0,0.0,0.0,0.0,0.0,0.0,0.0,0.0,0.0,0.0,0.0,0.0,0.0,0.0,0.0,0.0,0.0,0.0,0.0,0.0,0.0,0.0,0.0,0.0,0.0,0.0,0.0,-3.484,-3.4375,-3.4031,-3.3667,-3.3216,-3.3626,-3.456,-3.675,-3.8855,-4.0986,0.0,0.0,0.0,0.0,0.0,0.0,0.0,0.0,0.0,0.0,0.0,0.0,0.0,0.0,0.0,0.0,0.0,0.0,0.0,0.0,0.0,0.0,0.0,0.0,0.0,0.0,0.0,0.0,0.0,0.0,0.0,0.0,0.0,0.0,0.0,0.0,0.0,0.0,0.0,0.0,0.0,0.0,0.0,0.0,0.0,0.0,0.0,0.0,0.0,0.0,0.0,0.0,0.0,0.0,0.0,0.0,0.0,0.0,0.0,0.0,0.0,0.0,0.0,0.0,0.0,0.0,0.0,0.0,0.0,0.0,0.0,0.0,0.0,0.0,0.0,0.0,0.0,0.0,0.0,0.0,0.0,0.0,0.0,0.0,0.0,0.0,0.0,0.0,0.0,0.0,0.0,0.0,0.0,0.0,0.0,0.0,0.0,0.0,0.0,0.0,0.0,0.0,-3.3308,-3.2809,-3.2418,-3.1989,-3.16,-3.2034,-3.3013,-3.5241,-3.7496,-3.9789,0.0,0.0,0.0,0.0,0.0,0.0,0.0,0.0,0.0,0.0,0.0,0.0,0.0,0.0,0.0,0.0,0.0,0.0,0.0,0.0,0.0,0.0,0.0,0.0,0.0,0.0,0.0,0.0,0.0,0.0,0.0,0.0,0.0,0.0,0.0,0.0,0.0,0.0,0.0,0.0,0.0,0.0,0.0,0.0,0.0,0.0,0.0,0.0,0.0,0.0,0.0,0.0,0.0,0.0,0.0,0.0,0.0,0.0,0.0,0.0,0.0,0.0,0.0,0.0,0.0,0.0,0.0,0.0,0.0,0.0,0.0,0.0,0.0,0.0,0.0,0.0,0.0,0.0,0.0,0.0,0.0,0.0,0.0,0.0,0.0,0.0,0.0,0.0,0.0,0.0,0.0,0.0,0.0,0.0,0.0,0.0,0.0,0.0,0.0,0.0,0.0,0.0,-3.1709,-3.1294,-3.0789,-3.035,-2.9933,-3.0456,-3.1498,-3.3773,-3.6185,0.0,0.0,0.0,0.0,0.0,0.0,0.0,0.0,0.0,0.0,0.0,0.0,0.0,0.0,0.0,0.0,0.0,0.0,0.0,0.0,0.0,0.0,0.0,0.0,0.0,0.0,0.0,0.0,0.0,0.0,0.0,0.0,0.0,0.0,0.0,0.0,0.0,0.0,0.0,0.0,0.0,0.0,0.0,0.0,0.0,0.0,0.0,0.0,0.0,0.0,0.0,0.0,0.0,0.0,0.0,0.0,0.0,0.0,0.0,0.0,0.0,0.0,0.0,0.0,0.0,0.0,0.0,0.0,0.0,0.0,0.0,0.0,0.0,0.0,0.0,0.0,0.0,0.0,0.0,0.0,0.0,0.0,0.0,0.0,0.0,0.0,0.0,0.0,0.0,0.0,0.0,0.0,0.0,0.0,0.0,0.0,0.0,0.0,0.0,0.0,0.0,0.0,0.0,-3.1266,-3.0812,-3.0388,-2.996,-2.9491,-2.9976,-3.0957,-3.3337,-3.5632,-3.8055,0.0,0.0,0.0,0.0,0.0,0.0,0.0,0.0,0.0,0.0,0.0,0.0,0.0,0.0,0.0,0.0,0.0,0.0,0.0,0.0,0.0,0.0,0.0,0.0,0.0,0.0,0.0,0.0,0.0,0.0,0.0,0.0,0.0,0.0,0.0,0.0,0.0,0.0,0.0,0.0,0.0,0.0,0.0,0.0,0.0,0.0,0.0,0.0,0.0,0.0,0.0,0.0,0.0,0.0,0.0,0.0,0.0,0.0,0.0,0.0,0.0,0.0,0.0,0.0,0.0,0.0,0.0,0.0,0.0,0.0,0.0,0.0,0.0,0.0,0.0,0.0,0.0,0.0,0.0,0.0,0.0,0.0,0.0,0.0,0.0,0.0,0.0,0.0,0.0,0.0,0.0,0.0,0.0,0.0,0.0,0.0,0.0,0.0,0.0,0.0,0.0,0.0,0.0,-3.0791,-3.0342,-2.9848,-2.9464,-2.9839,-3.0842,-3.3145,-3.5492,-3.7808,0.0,0.0,0.0,0.0,0.0,0.0,0.0,0.0,0.0,0.0,0.0,0.0,0.0,0.0,0.0,0.0,0.0,0.0,0.0,0.0,0.0,0.0,0.0,0.0,0.0,0.0,0.0,0.0,0.0,0.0,0.0,0.0,0.0,0.0,0.0,0.0,0.0,0.0,0.0,0.0,0.0,0.0,0.0,0.0,0.0,0.0,0.0,0.0,0.0,0.0,0.0,0.0,0.0,0.0,0.0,0.0,0.0,0.0,0.0,0.0,0.0,0.0,0.0,0.0,0.0,0.0,0.0,0.0,0.0,0.0,0.0,0.0,0.0,0.0,0.0,0.0,0.0,0.0,0.0,0.0,0.0,0.0,0.0,0.0,0.0,0.0,0.0,0.0,0.0,0.0,0.0,0.0,0.0,0.0,0.0,0.0,0.0,0.0,0.0,0.0,0.0,0.0,0.0,-3.1476,-3.1091,-3.059,-3.0082,-3.0487,-3.1427,-3.3631,-3.5803,-3.8035,-4.0204,0.0,0.0,0.0,0.0,0.0,0.0,0.0,0.0,0.0,0.0,0.0,0.0,0.0,0.0,0.0,0.0,0.0,0.0,0.0,0.0,0.0,0.0,0.0,0.0,0.0,0.0,0.0,0.0,0.0,0.0,0.0,0.0,0.0,0.0,0.0,0.0,0.0,0.0,0.0,0.0,0.0,0.0,0.0,0.0,0.0,0.0,0.0,0.0,0.0,0.0,0.0,0.0,0.0,0.0,0.0,0.0,0.0,0.0,0.0,0.0,0.0,0.0,0.0,0.0,0.0,0.0,0.0,0.0,0.0,0.0,0.0,0.0,0.0,0.0,0.0,0.0,0.0,0.0,0.0,0.0,0.0,0.0,0.0,0.0,0.0,0.0,0.0,0.0,0.0,0.0,0.0,0.0,0.0,0.0,0.0,0.0,0.0,0.0,0.0,0.0,0.0,0.0,-3.2165,-3.1753,-3.1346,-3.081,-3.1182,-3.207,-3.4102,-3.6155,-3.8199,-4.0295,0.0,0.0,0.0,0.0,0.0,0.0,0.0,0.0,0.0,0.0,0.0,0.0,0.0,0.0,0.0,0.0,0.0,0.0,0.0,0.0,0.0,0.0,0.0,0.0,0.0,0.0,0.0,0.0,0.0,0.0,0.0,0.0,0.0,0.0,0.0,0.0,0.0,0.0,0.0,0.0,0.0,0.0,0.0,0.0,0.0,0.0,0.0,0.0,0.0,0.0,0.0,0.0,0.0,0.0,0.0,0.0,0.0,0.0,0.0,0.0,0.0,0.0,0.0,0.0,0.0,0.0,0.0,0.0,0.0,0.0,0.0,0.0,0.0,0.0,0.0,0.0,0.0,0.0,0.0,0.0,0.0,0.0,0.0,0.0,0.0,0.0,0.0,0.0,0.0,0.0,0.0,0.0,0.0,0.0,0.0,0.0,0.0,0.0,0.0,0.0,0.0,0.0,-3.278,-3.2446,-3.2027,-3.1533,-3.1846,-3.2664,-3.4583,-3.6482,-3.842,-4.0373,0.0,0.0,0.0,0.0,0.0,0.0,0.0,0.0,0.0,0.0,0.0,0.0,0.0,0.0,0.0,0.0,0.0,0.0,0.0,0.0,0.0,0.0,0.0,0.0,0.0,0.0,0.0,0.0,0.0,0.0,0.0,0.0,0.0,0.0,0.0,0.0,0.0,0.0,0.0,0.0,0.0,0.0,0.0,0.0,0.0,0.0,0.0,0.0,0.0,0.0,0.0,0.0,0.0,0.0,0.0,0.0,0.0,0.0,0.0,0.0,0.0,0.0,0.0,0.0,0.0,0.0,0.0,0.0,0.0,0.0,0.0,0.0,0.0,0.0,0.0,0.0,0.0,0.0,0.0,0.0,0.0,0.0,0.0,0.0,0.0,0.0,0.0,0.0,0.0,0.0,0.0,0.0,0.0,0.0,0.0,0.0,0.0,0.0,0.0,0.0,0.0,0.0,0.0,-3.3104,-3.266,-3.2195,-3.2481,-3.3266,-3.5091,-3.6839,-3.8582,0.0,0.0,0.0,0.0,0.0,0.0,0.0,0.0,0.0,0.0,0.0,0.0,0.0,0.0,0.0,0.0,0.0,0.0,0.0,0.0,0.0,0.0,0.0,0.0,0.0,0.0,0.0,0.0,0.0,0.0,0.0,0.0,0.0,0.0,0.0,0.0,0.0,0.0,0.0,0.0,0.0,0.0,0.0,0.0,0.0,0.0,0.0,0.0,0.0,0.0,0.0,0.0,0.0,0.0,0.0,0.0,0.0,0.0,0.0,0.0,0.0,0.0,0.0,0.0,0.0,0.0,0.0,0.0,0.0,0.0,0.0,0.0,0.0,0.0,0.0,0.0,0.0,0.0,0.0,0.0,0.0,0.0,0.0,0.0,0.0,0.0,0.0,0.0,0.0,0.0,0.0,0.0,0.0,0.0,0.0,0.0,0.0,0.0,0.0,0.0,0.0,0.0,0.0,0.0,-3.3789,-3.3337,-3.2853,-3.3084,-3.3814,-3.5545,-3.7189,-3.8798,0.0,0.0,0.0,0.0,0.0,0.0,0.0,0.0,0.0,0.0,0.0,0.0,0.0,0.0]}]]]